[[{"header":{"parameterUnit":"m.s-1","parameterCategory":1,"la1":30.6,"la2":29.2853,"lo1":-89.7004,"lo2":-87.6739,"dy":0.0162,"dx":0.0183,"nx":112,"ny":82,"refTime":"2023-09-06T06:00:00:Z","depth":0,"parameterNumber":2,"parameterNumberName":"U-component_of_WINDS"},"data":[0.0,0.0,0.0,0.0,0.0,0.0,0.0,0.0,0.0,0.0,0.0,0.0,0.0,0.0,0.0,0.0,0.0,0.0,0.0,0.0,0.0,0.0,0.0,0.0,0.0,0.0,0.0,0.0,0.0,0.0,0.0,0.0,0.0,0.0,0.0,0.0,0.0,0.0,0.0,0.0,0.0,0.0,0.0,0.0,0.0,0.0,0.0,0.0,0.0,0.0,0.0,0.0,0.0,0.0,0.0,0.0,0.0,0.0,0.0,0.0,0.0,0.0,0.0,0.0,0.0,0.0,0.0,0.0,0.0,0.0,0.0,0.0,0.0,0.0,0.0,0.0,0.0,0.0,0.0,0.0,0.0,0.0,0.0,0.0,0.0,0.0,0.0,0.0,0.0,0.0,-1.3681,-1.637,-1.9188,-2.1252,-2.2215,-2.0686,-1.9668,-1.9751,0.0,0.0,0.0,0.0,0.0,0.0,0.0,0.0,0.0,0.0,0.0,0.0,0.0,0.0,0.0,0.0,0.0,0.0,0.0,0.0,0.0,0.0,0.0,0.0,0.0,0.0,0.0,0.0,0.0,0.0,0.0,0.0,0.0,0.0,0.0,0.0,0.0,0.0,0.0,0.0,0.0,0.0,0.0,0.0,0.0,0.0,0.0,0.0,0.0,0.0,0.0,0.0,0.0,0.0,0.0,0.0,0.0,0.0,0.0,0.0,0.0,0.0,0.0,0.0,0.0,0.0,0.0,0.0,0.0,0.0,0.0,0.0,0.0,0.0,0.0,0.0,0.0,0.0,0.0,0.0,0.0,0.0,0.0,0.0,0.0,0.0,0.0,0.0,0.0,0.0,0.0,0.0,0.0,0.0,0.0,0.0,0.0,0.0,0.0,0.0,0.0,0.0,0.0,0.0,-1.5161,-1.7502,-1.9228,-2.0804,-2.218,-1.9753,-1.8131,-1.8157,0.0,0.0,0.0,0.0,0.0,0.0,0.0,0.0,0.0,0.0,0.0,0.0,0.0,0.0,0.0,0.0,0.0,0.0,0.0,0.0,0.0,0.0,0.0,0.0,0.0,0.0,0.0,0.0,0.0,0.0,0.0,0.0,0.0,0.0,0.0,0.0,0.0,0.0,0.0,0.0,0.0,0.0,0.0,0.0,0.0,0.0,0.0,0.0,0.0,0.0,0.0,0.0,0.0,0.0,0.0,0.0,0.0,0.0,0.0,0.0,0.0,0.0,0.0,0.0,0.0,0.0,0.0,0.0,0.0,0.0,0.0,0.0,0.0,0.0,0.0,0.0,0.0,0.0,0.0,0.0,0.0,0.0,0.0,0.0,0.0,0.0,0.0,0.0,0.0,0.0,0.0,0.0,0.0,0.0,0.0,0.0,0.0,0.0,0.0,0.0,0.0,0.0,0.0,-1.5011,-1.6175,-1.7281,-1.8626,-2.0213,-2.2133,-1.9527,-1.7118,-1.5522,-1.5153,0.0,0.0,0.0,0.0,0.0,0.0,0.0,0.0,0.0,0.0,0.0,0.0,0.0,0.0,0.0,0.0,0.0,0.0,0.0,0.0,0.0,0.0,0.0,0.0,0.0,0.0,0.0,0.0,0.0,0.0,0.0,0.0,0.0,0.0,0.0,0.0,0.0,0.0,0.0,0.0,0.0,0.0,0.0,0.0,0.0,0.0,0.0,0.0,0.0,0.0,0.0,0.0,0.0,0.0,0.0,0.0,0.0,0.0,0.0,0.0,0.0,0.0,0.0,0.0,0.0,0.0,0.0,0.0,0.0,0.0,0.0,0.0,0.0,0.0,0.0,0.0,0.0,0.0,0.0,0.0,0.0,0.0,0.0,0.0,0.0,0.0,0.0,0.0,0.0,0.0,0.0,0.0,0.0,0.0,0.0,0.0,0.0,0.0,0.0,0.0,0.0,0.0,-1.5248,-1.5911,-1.6579,-1.7781,-1.927,-2.1098,-1.9108,-1.6345,-1.2918,-1.3519,0.0,0.0,0.0,0.0,0.0,0.0,0.0,0.0,0.0,0.0,0.0,0.0,0.0,0.0,0.0,0.0,0.0,0.0,0.0,0.0,0.0,0.0,0.0,0.0,0.0,0.0,0.0,0.0,0.0,0.0,0.0,0.0,0.0,0.0,0.0,0.0,0.0,0.0,0.0,0.0,0.0,0.0,0.0,0.0,0.0,0.0,0.0,0.0,0.0,0.0,0.0,0.0,0.0,0.0,0.0,0.0,0.0,0.0,0.0,0.0,0.0,0.0,0.0,0.0,0.0,0.0,0.0,0.0,0.0,0.0,0.0,0.0,0.0,0.0,0.0,0.0,0.0,0.0,0.0,0.0,0.0,0.0,0.0,0.0,0.0,0.0,0.0,0.0,0.0,0.0,0.0,0.0,0.0,0.0,0.0,0.0,0.0,0.0,0.0,0.0,0.0,0.0,-1.3392,-1.3447,-1.5631,-1.68,-1.7586,-1.8078,-1.7847,-1.5704,-1.1011,-1.1974,0.0,0.0,0.0,0.0,0.0,0.0,0.0,0.0,0.0,0.0,0.0,0.0,0.0,0.0,0.0,0.0,0.0,0.0,0.0,0.0,0.0,0.0,0.0,0.0,0.0,0.0,0.0,0.0,0.0,0.0,0.0,0.0,0.0,0.0,0.0,0.0,0.0,0.0,0.0,0.0,0.0,0.0,0.0,0.0,0.0,0.0,0.0,0.0,0.0,0.0,0.0,0.0,0.0,0.0,0.0,0.0,0.0,0.0,0.0,0.0,0.0,0.0,0.0,0.0,0.0,0.0,0.0,0.0,0.0,0.0,0.0,0.0,0.0,0.0,0.0,0.0,0.0,0.0,0.0,0.0,0.0,0.0,0.0,0.0,0.0,0.0,0.0,0.0,0.0,0.0,0.0,0.0,0.0,0.0,0.0,0.0,0.0,0.0,0.0,0.0,0.0,0.0,-1.3965,-1.354,-1.399,-1.4845,-1.5545,-1.5969,-1.5399,-1.4444,-1.3086,0.0,0.0,0.0,0.0,0.0,0.0,0.0,0.0,0.0,0.0,0.0,0.0,0.0,0.0,0.0,0.0,0.0,0.0,0.0,0.0,0.0,0.0,0.0,0.0,0.0,0.0,0.0,0.0,0.0,0.0,0.0,0.0,0.0,0.0,0.0,0.0,0.0,0.0,0.0,0.0,0.0,0.0,0.0,0.0,0.0,0.0,0.0,0.0,0.0,0.0,0.0,0.0,0.0,0.0,0.0,0.0,0.0,0.0,0.0,0.0,0.0,0.0,0.0,0.0,0.0,0.0,0.0,0.0,0.0,0.0,0.0,0.0,0.0,0.0,0.0,0.0,0.0,0.0,0.0,0.0,0.0,0.0,0.0,0.0,0.0,0.0,0.0,0.0,0.0,0.0,0.0,0.0,0.0,0.0,0.0,0.0,0.0,0.0,0.0,0.0,0.0,0.0,-1.45,-1.368,-1.2833,-1.2354,-1.3066,-1.3629,-1.3695,-1.3268,-1.3311,-1.3989,0.0,0.0,0.0,0.0,0.0,0.0,0.0,0.0,0.0,0.0,0.0,0.0,0.0,0.0,0.0,0.0,0.0,0.0,0.0,0.0,0.0,0.0,0.0,0.0,0.0,0.0,0.0,0.0,0.0,0.0,0.0,0.0,0.0,0.0,0.0,0.0,0.0,0.0,0.0,0.0,0.0,0.0,0.0,0.0,0.0,0.0,0.0,0.0,0.0,0.0,0.0,0.0,0.0,0.0,0.0,0.0,0.0,0.0,0.0,0.0,0.0,0.0,0.0,0.0,0.0,0.0,0.0,0.0,0.0,0.0,0.0,0.0,0.0,0.0,0.0,0.0,0.0,0.0,0.0,0.0,0.0,0.0,0.0,0.0,0.0,0.0,0.0,0.0,0.0,0.0,0.0,0.0,0.0,0.0,0.0,0.0,0.0,0.0,0.0,0.0,0.0,0.0,-1.3841,-1.2123,-1.0852,-1.0793,-1.167,-1.1942,-1.1147,-1.1745,-1.2423,0.0,0.0,0.0,0.0,0.0,0.0,0.0,0.0,0.0,0.0,0.0,0.0,0.0,0.0,0.0,0.0,0.0,0.0,0.0,0.0,0.0,0.0,0.0,0.0,0.0,0.0,0.0,0.0,0.0,0.0,0.0,0.0,0.0,0.0,0.0,0.0,0.0,0.0,0.0,0.0,0.0,0.0,0.0,0.0,0.0,0.0,0.0,0.0,0.0,0.0,0.0,0.0,0.0,0.0,0.0,0.0,0.0,0.0,0.0,0.0,0.0,0.0,0.0,0.0,0.0,0.0,0.0,0.0,0.0,0.0,0.0,0.0,0.0,0.0,0.0,0.0,0.0,0.0,0.0,0.0,0.0,0.0,0.0,0.0,0.0,0.0,0.0,0.0,0.0,0.0,0.0,0.0,0.0,0.0,0.0,0.0,0.0,0.0,0.0,0.0,0.0,0.0,0.0,-1.3913,-1.1347,-0.9646,-1.0434,-1.0152,-0.9806,-0.9574,-0.9743,-1.1553,-1.5486,0.0,0.0,0.0,0.0,0.0,0.0,0.0,0.0,0.0,0.0,0.0,0.0,0.0,0.0,0.0,0.0,0.0,0.0,0.0,0.0,0.0,0.0,0.0,0.0,0.0,0.0,0.0,0.0,0.0,0.0,0.0,0.0,0.0,0.0,0.0,0.0,0.0,0.0,0.0,0.0,0.0,0.0,0.0,0.0,0.0,0.0,0.0,0.0,0.0,0.0,0.0,0.0,0.0,0.0,0.0,0.0,0.0,0.0,0.0,0.0,0.0,0.0,0.0,0.0,0.0,0.0,0.0,0.0,0.0,0.0,0.0,0.0,0.0,0.0,0.0,0.0,0.0,0.0,0.0,0.0,0.0,0.0,0.0,0.0,0.0,0.0,0.0,0.0,0.0,0.0,0.0,0.0,0.0,0.0,0.0,0.0,0.0,0.0,0.0,0.0,0.0,0.0,-1.4116,-1.1464,-0.9643,-1.0327,-0.9496,-0.889,-0.889,-0.889,-1.0524,-1.4315,0.0,0.0,0.0,0.0,0.0,0.0,0.0,0.0,0.0,0.0,0.0,0.0,0.0,0.0,0.0,0.0,0.0,0.0,0.0,0.0,0.0,0.0,0.0,0.0,0.0,0.0,0.0,0.0,0.0,0.0,0.0,0.0,0.0,0.0,0.0,0.0,0.0,0.0,0.0,0.0,0.0,0.0,0.0,0.0,0.0,0.0,0.0,0.0,0.0,0.0,0.0,0.0,0.0,0.0,0.0,0.0,0.0,0.0,0.0,0.0,0.0,0.0,0.0,0.0,0.0,0.0,0.0,0.0,0.0,0.0,0.0,0.0,0.0,0.0,0.0,0.0,0.0,0.0,0.0,0.0,0.0,0.0,0.0,0.0,0.0,0.0,0.0,0.0,0.0,0.0,0.0,0.0,0.0,0.0,0.0,0.0,0.0,0.0,0.0,0.0,0.0,0.0,-1.4381,-1.2201,-1.0412,-1.0267,-0.9508,-0.8976,-0.8908,-0.8891,-0.9574,-1.1155,0.0,0.0,0.0,0.0,0.0,0.0,0.0,0.0,0.0,0.0,0.0,0.0,0.0,0.0,0.0,0.0,0.0,0.0,0.0,0.0,0.0,0.0,0.0,0.0,0.0,0.0,0.0,0.0,0.0,0.0,0.0,0.0,0.0,0.0,0.0,0.0,0.0,0.0,0.0,0.0,0.0,0.0,0.0,0.0,0.0,0.0,0.0,0.0,0.0,0.0,0.0,0.0,0.0,0.0,0.0,0.0,0.0,0.0,0.0,0.0,-1.5152,-1.4927,0.0,0.0,0.0,0.0,0.0,0.0,0.0,0.0,0.0,0.0,0.0,0.0,0.0,0.0,0.0,0.0,0.0,0.0,0.0,0.0,0.0,0.0,0.0,0.0,0.0,0.0,0.0,0.0,0.0,0.0,0.0,0.0,0.0,0.0,0.0,0.0,0.0,0.0,0.0,0.0,-1.4533,-1.253,-1.0498,-0.9342,-0.9555,-0.9523,-0.8942,-0.8891,-1.012,-1.3031,-1.2265,0.0,0.0,0.0,0.0,0.0,0.0,0.0,0.0,0.0,0.0,0.0,0.0,0.0,0.0,0.0,0.0,0.0,0.0,0.0,0.0,0.0,0.0,0.0,0.0,0.0,0.0,0.0,0.0,0.0,0.0,0.0,0.0,0.0,0.0,0.0,0.0,0.0,0.0,0.0,0.0,0.0,0.0,0.0,0.0,0.0,0.0,0.0,0.0,0.0,0.0,0.0,0.0,0.0,0.0,0.0,0.0,0.0,0.0,0.0,-1.8963,-1.8178,0.0,0.0,0.0,0.0,0.0,0.0,0.0,0.0,0.0,0.0,0.0,0.0,0.0,0.0,0.0,0.0,0.0,0.0,0.0,0.0,0.0,0.0,0.0,0.0,0.0,0.0,0.0,0.0,0.0,0.0,0.0,0.0,0.0,0.0,0.0,0.0,0.0,0.0,0.0,0.0,-1.5097,-1.3478,-1.1724,-1.0464,-1.0679,-1.0378,-0.9021,-0.923,-1.0015,-1.1365,-1.2016,0.0,0.0,0.0,0.0,0.0,0.0,0.0,0.0,0.0,0.0,0.0,0.0,0.0,0.0,0.0,0.0,0.0,0.0,0.0,0.0,0.0,0.0,0.0,0.0,0.0,0.0,0.0,0.0,0.0,0.0,0.0,0.0,0.0,0.0,0.0,0.0,0.0,0.0,0.0,0.0,0.0,0.0,0.0,0.0,0.0,0.0,0.0,0.0,0.0,0.0,0.0,0.0,0.0,-2.3419,-2.3983,-2.4393,-2.4393,-2.4005,-2.3318,-2.3164,-2.2291,-2.0846,-1.9394,0.0,0.0,0.0,0.0,0.0,0.0,0.0,0.0,0.0,0.0,0.0,0.0,0.0,0.0,0.0,0.0,0.0,0.0,0.0,0.0,0.0,0.0,-1.6431,-1.6209,-1.6605,-1.6278,-1.3497,0.0,0.0,0.0,0.0,0.0,0.0,0.0,0.0,0.0,0.0,0.0,-1.5548,-1.4332,-1.3009,-1.2018,-1.1949,-1.1237,-0.9445,-0.9726,-0.973,-0.9134,-1.1685,-1.1999,0.0,0.0,0.0,0.0,0.0,0.0,0.0,0.0,0.0,0.0,0.0,0.0,0.0,0.0,0.0,0.0,0.0,0.0,0.0,0.0,0.0,0.0,0.0,0.0,0.0,0.0,0.0,0.0,0.0,0.0,0.0,0.0,-1.7535,-1.8428,0.0,0.0,0.0,0.0,0.0,0.0,0.0,0.0,0.0,0.0,0.0,0.0,0.0,-2.2381,-2.5388,-2.5597,-2.6158,-2.7064,-2.718,-2.6506,-2.5149,-2.5149,-2.5082,-2.4947,-2.4259,0.0,-2.3309,-1.9528,0.0,0.0,0.0,0.0,0.0,0.0,0.0,0.0,0.0,0.0,0.0,0.0,0.0,0.0,0.0,0.0,0.0,0.0,0.0,0.0,0.0,0.0,-1.7577,-1.755,-1.7127,-1.6639,-1.6187,-1.7036,-1.7533,-1.6413,-1.6168,-1.5921,0.0,0.0,0.0,0.0,0.0,0.0,-1.5072,-1.4109,-1.3007,-1.2014,-1.2111,-1.1855,-1.0876,-1.0318,-0.9958,-0.987,-1.0271,-1.0416,-1.0205,-1.325,0.0,0.0,0.0,0.0,0.0,0.0,0.0,0.0,0.0,0.0,0.0,0.0,0.0,0.0,0.0,0.0,0.0,0.0,0.0,0.0,0.0,0.0,0.0,0.0,0.0,0.0,0.0,0.0,0.0,-1.8487,-2.0735,-2.1048,-2.114,-2.0508,0.0,0.0,0.0,0.0,0.0,0.0,0.0,0.0,0.0,-2.3837,-2.5189,-2.6785,-2.872,-2.876,-2.8961,-2.9313,-2.9313,-2.8659,-2.7428,-2.6967,-2.6486,-2.5986,-2.5139,-2.4774,-2.4591,-2.2296,-2.186,-2.2376,0.0,0.0,0.0,0.0,-1.7941,-1.7953,-1.8455,-1.8982,-1.9387,-1.8937,0.0,0.0,0.0,0.0,0.0,0.0,0.0,-1.8068,-1.833,-1.9376,-2.0057,-1.8957,-1.8766,-1.8714,-1.8306,-1.8735,-1.8847,-1.7661,-1.7648,-1.7757,-1.745,-1.6536,0.0,0.0,0.0,-1.4719,-1.4882,-1.4024,-1.3107,-1.2316,-1.2647,-1.2415,-1.1197,-1.0808,-1.0444,-1.0041,-0.9604,-0.962,-1.0147,-1.2293,-1.3282,0.0,0.0,0.0,0.0,0.0,0.0,0.0,0.0,0.0,0.0,0.0,0.0,0.0,0.0,0.0,0.0,0.0,0.0,0.0,0.0,0.0,0.0,0.0,0.0,0.0,0.0,0.0,0.0,-2.1204,-2.3195,-2.3155,-2.3744,-2.3327,0.0,0.0,0.0,0.0,0.0,0.0,-2.3524,-2.4827,-2.6277,-2.7948,-2.9197,-3.0332,-3.1371,-3.116,-3.116,-3.1371,-3.0948,-3.0275,-2.939,-2.8371,-2.7544,-2.6871,-2.5793,-2.5418,-2.5543,-2.4272,-2.327,-2.2399,-2.1767,-2.1419,-2.124,-2.0977,-2.0877,-2.0985,-2.1636,-2.1914,-2.1952,-2.1763,-2.1588,-2.1194,-1.983,0.0,0.0,0.0,0.0,-1.9779,-2.022,-2.1294,-2.1929,-2.0662,-2.0481,-2.0463,-1.9909,-1.9776,-1.9454,-1.8403,-1.8548,-1.885,-1.8892,-1.7616,0.0,-1.6558,-1.5503,-1.4671,-1.4652,-1.4018,-1.337,-1.284,-1.3184,-1.297,-1.1787,-1.1516,-1.1161,-1.0622,-0.9874,-0.9801,-1.0559,-1.1684,-1.237,-1.2556,0.0,0.0,0.0,0.0,0.0,0.0,0.0,0.0,0.0,0.0,0.0,0.0,0.0,0.0,0.0,0.0,0.0,0.0,0.0,0.0,0.0,0.0,0.0,0.0,0.0,0.0,0.0,0.0,0.0,-2.4121,-2.6321,0.0,0.0,0.0,0.0,-2.4062,-2.4825,-2.6392,-2.8979,-2.907,-2.9802,-3.1484,-3.156,-3.2352,-3.3987,-3.3179,-3.3179,-3.3987,-3.2391,-3.1179,-3.0283,-2.864,-2.7871,-2.7736,-2.6043,-2.5774,-2.6332,-2.3879,-2.3755,-2.487,-2.2521,-2.253,-2.382,-2.2981,-2.2593,-2.2498,-2.2524,-2.1953,-2.1422,-2.2905,-2.3281,-2.3154,-2.2994,-2.1729,0.0,0.0,-2.1689,-2.0698,-2.305,-2.2896,-2.226,-2.287,-2.1932,-2.087,-2.0834,-2.023,-1.9294,-1.7897,-1.7612,-1.7542,-1.7338,0.0,-1.608,-1.6201,-1.5626,-1.4943,-1.432,-1.4135,-1.393,-1.358,-1.3567,-1.3506,-1.3294,-1.2647,-1.2212,-1.2186,-1.1428,-1.1352,-1.2151,-1.2251,-1.294,-1.4341,-1.3786,0.0,0.0,0.0,0.0,0.0,0.0,0.0,0.0,0.0,0.0,0.0,0.0,0.0,0.0,0.0,0.0,0.0,0.0,0.0,0.0,0.0,0.0,0.0,0.0,0.0,0.0,0.0,0.0,-2.6629,-2.8456,0.0,-2.7348,-2.8012,-2.8528,-2.8454,-3.0277,-3.178,-3.2673,-3.3204,-3.3723,-3.4226,-3.4214,-3.4484,-3.5026,-3.4737,-3.418,-3.3353,-3.2756,-3.1737,-3.0359,-2.9198,-2.839,-2.7832,-2.6659,-2.5986,-2.5697,-2.4793,-2.4774,-2.5207,-2.4332,-2.436,-2.4841,-2.4514,-2.437,-2.4341,-2.435,-2.4017,-2.3569,-2.3422,-2.2952,-2.2446,-2.2342,-2.1871,-2.1614,-2.2804,-2.259,-2.2319,-2.373,-2.3601,-2.3203,-2.345,-2.3092,-2.2575,-2.2052,-2.1453,-2.0753,-1.9679,-1.8789,-1.8019,-1.7416,-1.6272,-1.5407,-1.5439,-1.481,-1.4323,-1.4216,-1.4298,-1.425,-1.3952,-1.3768,-1.3589,-1.3423,-1.329,-1.3147,-1.3032,-1.1695,-1.1321,-1.2266,-1.0882,-1.0816,-1.228,-1.0233,-1.0562,0.0,0.0,0.0,0.0,0.0,0.0,0.0,0.0,0.0,0.0,0.0,0.0,0.0,0.0,0.0,0.0,0.0,0.0,0.0,0.0,0.0,0.0,0.0,0.0,0.0,-2.7155,-2.9681,-2.9744,-3.1307,-3.1973,-3.0886,-3.1612,-3.224,-3.2478,-3.4342,-3.5597,-3.5861,-3.6129,-3.6222,-3.6141,-3.5795,-3.5577,-3.5528,-3.5515,-3.4776,-3.3333,-3.3045,-3.2179,-3.0814,-2.9621,-2.8967,-2.8679,-2.7525,-2.6717,-2.6159,-2.587,-2.5572,-2.5303,-2.5303,-2.5303,-2.5303,-2.5303,-2.5303,-2.5303,-2.5303,-2.5203,-2.4977,-2.4138,-2.3449,-2.2926,-2.2763,-2.2645,-2.2721,-2.3254,-2.34,-2.3529,-2.4061,-2.4054,-2.3876,-2.3876,-2.3658,-2.3238,-2.244,-2.179,-2.1106,-2.0262,-1.9411,-1.8825,-1.8825,-1.7763,-1.7106,-1.7645,-1.6589,-1.5811,-1.6032,-1.5139,-1.4427,-1.4252,-1.4082,-1.3835,-1.352,-1.385,-1.39,-1.349,-1.2395,-1.2106,-1.2816,-1.1321,-1.1041,-1.2258,-1.0638,-1.1307,-1.4427,0.0,0.0,0.0,0.0,0.0,0.0,0.0,0.0,0.0,0.0,0.0,0.0,0.0,0.0,0.0,0.0,0.0,0.0,0.0,0.0,0.0,0.0,0.0,-2.7906,-3.103,-3.3204,-3.3271,-3.4857,-3.5282,-3.3595,-3.4217,-3.5105,-3.6055,-3.6866,-3.7704,-3.8594,-3.7741,-3.7234,-3.7191,-3.6173,-3.5601,-3.5553,-3.5521,-3.5045,-3.4103,-3.3295,-3.2468,-3.1602,-2.991,-2.9583,-3.0275,-2.864,-2.7939,-2.7832,-2.6986,-2.612,-2.5332,-2.5303,-2.5303,-2.5303,-2.5303,-2.5303,-2.5303,-2.5303,-2.5303,-2.5264,-2.5077,-2.4917,-2.4775,-2.4559,-2.4357,-2.4209,-2.419,-2.419,-2.419,-2.419,-2.419,-2.419,-2.419,-2.3602,-2.2832,-2.2006,-2.118,-2.0319,-1.951,-1.9344,-1.9803,-2.1238,-2.0976,-2.111,-2.2669,-2.0876,0.0,-1.9586,-1.6675,-1.4616,-1.4652,-1.4651,-1.4427,-1.3849,-1.4485,-1.4538,-1.376,-1.3715,-1.3796,-1.3917,-1.3697,-1.387,-1.4503,-1.5344,-1.5396,-1.4676,0.0,0.0,0.0,0.0,0.0,0.0,0.0,0.0,0.0,0.0,0.0,0.0,0.0,0.0,0.0,0.0,0.0,0.0,0.0,0.0,0.0,-2.7891,-3.0375,-3.0769,-3.3278,-3.509,-3.5155,-3.6153,-3.6677,-3.6248,-3.6991,-3.787,-3.8769,-3.9628,-3.994,-3.9551,-3.869,-3.7901,-3.7214,-3.6304,-3.545,-3.4662,-3.5259,-3.4496,-3.2391,-3.2737,-3.216,-3.0737,-3.0256,-2.9833,-2.944,-2.9023,-2.8493,-2.7881,-2.7691,-2.7108,-2.626,-2.5572,-2.5303,-2.5303,-2.5303,-2.5303,-2.5303,-2.5303,-2.5303,-2.5264,-2.5077,-2.4974,-2.4885,-2.4591,-2.4461,-2.4393,-2.4247,-2.419,-2.419,-2.419,-2.419,-2.419,-2.419,-2.4025,-2.3657,-2.285,-2.2483,-2.1951,-2.0691,-2.0466,-2.015,-1.9219,-2.083,-2.1403,-1.8955,-1.9829,-2.0001,-1.7946,-1.716,-1.7165,-1.81,-1.8056,-1.7461,-1.613,-1.6571,-1.6626,-1.595,-1.4896,-1.4364,-1.4548,-1.3561,-1.29,-1.2661,-1.4103,-1.4706,0.0,0.0,0.0,0.0,0.0,0.0,0.0,0.0,0.0,0.0,0.0,0.0,0.0,0.0,0.0,0.0,0.0,0.0,0.0,0.0,0.0,0.0,-3.1046,-3.4019,-3.5027,-3.6472,-3.7582,-3.7998,-3.8537,-3.8881,-3.8926,-3.9394,-3.9902,-4.041,-4.0586,-4.043,-3.9922,-3.873,-3.7812,-3.7255,-3.6362,-3.5597,-3.4982,-3.5422,-3.4681,-3.2786,-3.3269,-3.2598,-3.0948,-3.0979,-3.0499,-2.9689,-2.9768,-2.9319,-2.8526,-2.8577,-2.7854,-2.6676,0.0,0.0,0.0,0.0,-2.5312,-2.5303,-2.5303,-2.5303,-2.5274,-2.5163,-2.5077,-2.4955,-2.4762,-2.4604,-2.4478,-2.4357,-2.4247,-2.419,-2.419,-2.419,-2.419,-2.419,-2.419,-2.3988,-2.318,-2.2997,-2.2667,-2.1495,-2.1472,0.0,-1.9892,-2.0618,-2.1113,-2.0255,-2.1183,-2.1347,-1.9631,-1.8812,-1.865,-1.9387,-1.8974,-1.8207,-1.716,-1.746,0.0,0.0,0.0,-1.589,-1.6008,-1.5249,0.0,0.0,0.0,-1.7021,-1.6637,-1.8687,0.0,0.0,-1.8294,-1.842,0.0,0.0,0.0,0.0,0.0,0.0,0.0,0.0,0.0,0.0,0.0,0.0,0.0,0.0,0.0,0.0,-3.4023,-3.7128,-3.953,-3.9878,-4.0129,-4.0808,-4.0972,-4.1055,-4.1055,-4.1055,-4.1094,-4.1191,-4.0391,-3.9863,-3.9766,-3.8184,0.0,0.0,0.0,-3.5868,-3.5747,-3.5733,-3.5201,-3.4158,-3.4158,-3.3304,-3.1715,-3.1661,-3.1243,-3.0524,-3.0581,-3.0208,-2.9541,-2.9532,-2.8525,-2.6924,-2.6676,-2.6126,-2.5484,-2.5428,-2.5371,-2.5303,-2.5293,0.0,0.0,-2.5303,-2.5173,-2.5034,-2.501,-2.4776,-2.4528,-2.4512,-2.4375,-2.419,-2.419,-2.419,-2.419,-2.419,-2.419,-2.4006,-2.329,-2.3144,-2.2923,-2.2208,-2.2461,-2.2589,-2.1986,-2.0539,-2.0541,-2.3668,-2.3212,-2.2483,-2.2483,-2.0615,-1.9384,-1.9577,-1.8647,0.0,-1.7835,-1.786,-1.7589,-1.6881,-1.7465,-1.7794,-1.7707,-1.7674,-1.7896,-1.8403,-2.0063,-2.061,-2.0027,-2.2153,-2.2909,-2.2293,-2.0804,-2.1028,0.0,0.0,0.0,0.0,0.0,0.0,0.0,0.0,0.0,0.0,0.0,0.0,0.0,0.0,0.0,-3.4373,-3.6718,-3.8769,-4.0644,-4.0917,-4.0701,-4.0174,-4.0136,-4.0156,-4.0156,-4.0156,-4.0449,-4.1152,-4.0391,-3.959,-3.8887,-3.7871,-3.6973,-3.6269,-3.6073,-3.5619,-3.4856,-3.5525,-3.5015,-3.3325,-3.3325,0.0,-3.1758,-3.107,-3.0684,-3.0587,-3.0661,-3.0559,-3.0378,-3.0431,-2.9455,-2.7791,-2.6315,-2.5634,-2.5484,-2.5428,-2.5398,-2.5368,-2.5322,-2.5303,-2.5303,-2.5303,-2.5274,-2.5214,-2.5046,-2.4891,0.0,-2.4561,-2.4375,-2.419,-2.419,-2.419,-2.419,-2.419,-2.419,-2.4153,-2.4006,-2.3969,-2.3914,-2.3768,-2.3824,-2.3584,-2.2612,-2.1418,-2.0735,-2.1226,-2.0547,-2.0013,-2.0013,-1.9596,-1.9835,-2.1258,-2.0531,-2.0239,-2.0949,-1.9767,-1.8802,-1.8405,-1.8526,-1.8318,-1.7723,-1.7884,-1.8359,-1.9093,-1.9921,-2.03,-2.0156,-2.1062,-2.1387,-2.1221,-2.184,-2.2341,0.0,0.0,0.0,0.0,0.0,0.0,0.0,0.0,0.0,0.0,0.0,-2.9058,0.0,0.0,-3.5318,-3.7507,-3.9001,-4.0351,-4.1621,-4.1445,-4.1035,-4.0605,-4.0547,-4.0547,-4.0547,-4.0547,-4.0723,-4.1172,-4.0391,-3.9512,-3.8652,-3.7773,-3.6894,-3.6035,-3.5996,-3.5761,-3.5307,-3.5734,-3.524,-3.3842,-3.3842,-3.3154,-3.1833,-3.1437,-3.1031,-3.0661,-3.0762,-3.0786,-3.0713,-3.032,-2.9661,-2.8722,-2.6935,-2.5963,-2.5586,-2.5954,-2.5803,-2.5398,-2.5312,-2.5303,-2.5303,-2.5303,-2.5303,-2.5274,-2.5173,-2.4987,-2.4775,-2.4685,-2.4426,-2.419,-2.419,-2.419,-2.419,-2.419,-2.419,-2.419,-2.419,-2.419,-2.4228,-2.4339,-2.4356,-2.4189,-2.3692,-2.2765,-2.1881,-2.1252,-2.0446,-1.9895,-1.9895,-1.9546,-1.9632,-2.0523,-2.0184,-2.0092,-2.056,-1.9813,-1.9225,-1.9059,-1.9036,-1.888,-1.8507,-1.8629,-1.9087,-1.9877,-2.02,-2.0752,-2.1607,-2.1859,-2.218,-2.2558,-2.3012,-2.2617,0.0,0.0,0.0,0.0,0.0,0.0,0.0,0.0,-2.8613,-3.0099,-3.2159,-3.3886,-3.4472,-3.7063,-3.9351,-4.0096,-4.0895,-4.1601,-4.2109,-4.1601,-4.1133,-4.0976,-4.1094,-4.1191,-4.1191,-4.1191,-4.1191,-4.1191,-4.0234,-3.9336,-3.8633,-3.7617,-3.6738,-3.6016,-3.5996,-3.5996,-3.5996,-3.5996,-3.5601,-3.4846,-3.4514,-3.3579,-3.216,-3.1878,-3.1376,-3.0745,-3.0857,-3.0898,-3.0859,-3.0137,-2.9746,-2.9473,-2.8242,-2.699,-2.5939,-2.6408,-2.6076,-2.5408,-2.5348,-2.5303,-2.5303,-2.5303,-2.5303,-2.5303,-2.5303,-2.5072,-2.4828,-2.4818,-2.4545,-2.4247,-2.4209,-2.419,-2.419,-2.419,-2.419,-2.419,-2.419,-2.4228,-2.4303,-2.4461,-2.451,-2.4543,-2.4596,-2.3969,-2.3201,-2.2388,-2.1253,-2.0521,-2.056,-1.9827,-1.9295,-1.9298,-1.9298,-1.9298,-1.9295,-1.9308,-1.9305,-1.9305,-1.9305,-1.9396,-1.9599,-1.9617,-1.9968,-2.0739,-2.0906,-2.164,-2.2997,-2.3162,-2.3492,-2.3969,-2.3699,-2.2654,-1.9818,-2.0358,-2.1886,-2.2774,-2.4884,-2.7848,0.0,0.0,-3.5409,-3.8046,-3.9413,-4.0175,-4.0272,-4.119,-4.1972,-4.2089,-4.2187,-4.2051,-4.1426,-4.1269,-4.0918,-4.0137,-4.0723,-4.1191,-4.1191,-4.1191,-4.1191,-4.1191,-3.9687,-3.8691,-3.8613,-3.7031,-3.6094,-3.5996,-3.5996,-3.5996,-3.5996,-3.5996,-3.5914,-3.5747,-3.4189,-3.3347,-3.3099,-3.1549,-3.0866,-3.0879,-3.0898,-3.0898,-3.0898,-3.0781,-3.0293,-2.9668,-3.0234,-2.8984,-2.6757,-2.6017,-2.5629,-2.5488,-2.542,-2.5357,-2.5303,-2.5303,-2.5303,-2.5303,-2.5303,-2.5152,-2.4949,-2.4828,-2.4639,-2.4428,-2.4247,-2.419,-2.419,-2.419,-2.419,-2.419,-2.419,-2.4339,-2.4478,-2.4495,-2.4545,-2.4591,-2.461,-2.431,-2.4055,-2.3952,-2.1967,-2.0578,-2.082,-1.9946,-1.9297,-1.9286,-1.9304,-1.9302,-1.9294,-1.9298,-1.9305,-1.9305,-1.9305,-1.9727,-2.068,-2.0717,-2.1013,-2.1639,-2.2354,-2.2795,-2.2997,-2.3731,-2.3749,-2.3144,-2.3107,-2.3153,-2.3312,-2.3836,0.0,0.0,-3.0094,-3.2254,-3.5789,-3.7731,-3.9268,-4.0996,-4.2441,-4.3262,-4.2754,-4.293,-4.332,0.0,-4.2676,-4.1914,-4.2578,-4.1387,-4.0117,-3.9258,-3.9473,-3.9687,-3.9687,-4.0156,-4.0234,-3.9726,-3.9473,-3.8906,-3.7891,-3.7148,-3.6523,-3.6016,-3.5996,-3.5996,-3.5996,-3.5996,-3.5722,-3.5188,-3.394,-3.31,-3.2611,-3.1382,-3.0857,-3.0898,-3.0898,-3.0898,-3.0898,-3.0898,-3.0391,-2.959,-2.9434,-2.8418,-2.7011,-2.7097,-2.6454,-2.5547,-2.5434,-2.5376,-2.5346,-2.5313,-2.5303,-2.5303,-2.5303,-2.5163,-2.4998,-2.4924,-2.4727,-2.4478,-2.4393,-2.4284,-2.419,-2.419,-2.4284,-2.4375,-2.4375,-2.4545,-2.4697,-2.4724,-2.475,-2.4822,-2.4987,-2.4921,-2.4695,-2.4273,-2.3318,-2.2354,-2.1534,-2.104,-2.0764,-2.0749,-2.0749,-2.035,-1.9392,-1.9299,-1.9314,-1.9314,-2.0232,-2.0813,-2.0908,-2.1655,-2.2253,-2.2669,-2.3079,-2.3489,-2.3875,-2.4208,-2.4137,-2.3694,-2.3694,-2.3802,-2.5666,0.0,0.0,-3.2444,-3.4727,-3.6547,-3.913,-4.0914,-4.2295,-4.3261,-4.4297,-4.4805,-4.418,-4.3867,-4.3828,-4.4219,-4.2949,-4.2148,-4.2891,-4.1426,-3.9844,-3.873,-3.8398,-3.8144,-3.791,-3.8887,-3.9277,-3.8652,-3.8965,-3.8633,-3.7363,-3.707,-3.6641,-3.6016,-3.5996,-3.5996,-3.5996,-3.5996,-3.5566,-3.4687,-3.4062,-3.3203,-3.2168,-3.1309,-3.0898,-3.0898,-3.0898,-3.0898,-3.0898,-3.0898,-3.0527,-2.9863,-2.9004,-2.8125,-2.7402,-2.7747,-2.6917,-2.5593,-2.5493,-2.5428,-2.5398,-2.5329,-2.5322,-2.5303,-2.5303,-2.5203,-2.5077,-2.5022,-2.4831,-2.4617,-2.4554,-2.4405,-2.4283,-2.421,-2.4312,-2.4447,-2.4556,-2.4708,-2.482,-2.486,-2.4958,-2.5077,-2.526,-2.5302,-2.5114,-2.4571,-2.4511,-2.4002,-2.2643,-2.2459,-2.2459,-2.2459,-2.2461,-2.1968,-2.0746,-2.0634,-2.0703,-2.082,-2.2039,-2.2423,-2.166,-2.2802,-2.3529,-2.3712,-2.3765,-2.4001,-2.4495,-2.4444,-2.4339,-2.419,-2.419,-2.419,-2.5512,0.0,-2.9531,-3.4088,-3.7788,-4.0814,-4.279,-4.395,-4.4897,-4.5954,-4.5547,-4.498,-4.4961,-4.4277,-4.3437,-4.2617,-4.3125,-4.3066,-4.1504,-4.1211,-4.0527,-3.8809,-3.7851,-3.7012,0.0,-3.7637,-3.8633,-3.8594,-3.7832,-3.7363,-3.7305,-3.6504,-3.6035,-3.5996,-3.5996,-3.5996,-3.5996,-3.5996,-3.5566,-3.4707,-3.4668,-3.3809,-3.2168,-3.1309,-3.0898,-3.0898,-3.0898,-3.0898,-3.0898,-3.0898,-3.0879,-3.0762,-2.9902,-2.9023,-2.8164,-2.7344,-2.6422,-2.5601,-2.5598,-2.5517,-2.5398,-2.5406,-2.5354,-2.5303,-2.5303,-2.5303,-2.5253,-2.5046,-2.4979,-2.4911,-2.4662,-2.4586,-2.4515,-2.4256,-2.4199,-2.4327,-2.4714,-2.4796,-2.4796,-2.4808,-2.5072,-2.5292,-2.5293,-2.531,-2.5298,-2.5278,-2.527,-2.4993,-2.4237,-2.4126,-2.4126,-2.4126,-2.4116,-2.4116,-2.4076,-2.4057,-2.4228,-2.4613,-2.4981,-2.4657,-2.3464,-2.4331,-2.4804,-2.4752,-2.457,-2.4474,-2.4495,-2.4303,-2.4227,-2.419,-2.419,-2.419,-2.8846,0.0,-3.4802,-3.8658,-4.1466,-4.3587,-4.4781,-4.5421,-4.5536,-4.4746,-4.3273,-4.1654,-4.0042,-3.8456,-3.7912,-3.9493,-4.0029,-4.066,-4.1836,-4.1992,-4.0937,-3.8086,-3.7988,0.0,0.0,0.0,0.0,-3.6875,-3.6601,-3.6699,-3.7266,-3.7012,-3.6855,-3.6855,-3.6855,-3.6582,-3.6016,-3.5996,-3.5566,-3.4687,-3.3574,-3.2441,-3.1328,-3.1035,-3.0898,-3.0898,-3.0898,-3.0898,-3.0898,-3.0898,-3.0215,-2.9141,-2.8848,-2.7851,-2.6523,-2.6205,-2.5863,-2.5598,-2.5551,-2.5493,-2.5453,-2.5363,-2.5322,-2.5303,-2.5303,-2.5303,-2.5293,-2.5214,-2.5061,-2.491,-2.4822,-2.4793,-2.4766,-2.4639,-2.4642,-2.4683,-2.4778,-2.4969,-2.5135,-2.5124,-2.5224,-2.6024,-2.8299,-2.6802,-2.5308,-2.5299,-2.5292,-2.521,-2.4969,-2.493,-2.4738,-2.4257,-2.4432,-2.4504,-2.4231,-2.4647,-2.4988,-2.5134,-2.5229,-2.5026,-2.4389,-2.4752,-2.493,-2.4867,-2.4839,-2.4795,-2.47,-2.4495,-2.4339,-2.419,-2.419,-2.419,-3.2097,-3.522,-3.8316,-4.1884,-4.395,-4.5162,-4.5434,-4.5425,-4.4743,-4.2652,-4.0714,-3.8707,-3.6475,-3.4802,-3.4478,-3.6657,-3.7298,-3.8463,-4.1133,-4.1504,-4.0801,-3.8926,-3.8906,-3.8281,0.0,0.0,0.0,-3.5996,-3.6289,-3.6719,-3.7266,-3.7305,-3.7305,-3.7305,-3.7305,-3.6875,-3.6016,-3.5996,-3.5723,-3.5137,-3.3144,-3.2051,-3.1777,-3.1172,-3.0898,-3.0898,-3.0898,-3.0898,-3.0898,-3.0898,-3.0234,-2.918,-2.8535,-2.7597,-2.6519,-2.5844,-2.5573,-2.5558,-2.5503,-2.5687,-2.5919,-2.5826,-2.5784,-2.5774,-2.5774,-2.5553,-2.5303,-2.5303,-2.5184,-2.5176,-2.5811,-2.55,-2.5032,-2.5,-2.4998,-2.5023,-2.4992,-2.5154,-2.5312,-2.5292,-2.6283,-2.7421,-2.8415,-2.6766,-2.5303,-2.5303,-2.5298,-2.5311,-2.5311,-2.5297,-2.5124,-2.4642,-2.4828,-2.487,-2.4609,-2.5029,-2.5302,-2.5311,-2.5311,-2.5203,-2.4994,-2.5053,-2.508,-2.5042,-2.5015,-2.4962,-2.4864,-2.4623,-2.4426,-2.4303,-2.4228,-2.419,-3.5193,-3.7946,-4.0111,-4.3671,-4.517,-4.5564,-4.4844,-4.4001,-4.2622,-3.9894,-3.7897,-3.608,0.0,0.0,-3.3044,-3.4226,-3.5194,-3.6794,-3.9628,-4.0097,-4.0429,0.0,0.0,0.0,0.0,0.0,0.0,-3.6133,-3.6816,-3.7285,-3.7422,-3.7383,-3.7363,-3.7363,-3.7324,-3.6875,-3.6016,-3.5957,-3.5937,-3.5898,-3.3398,-3.2598,-3.3281,-3.1641,-3.0898,-3.0898,-3.0898,-3.0898,-3.0898,-3.0898,-3.0859,-3.0605,-2.8945,-2.8239,-2.7928,-2.6225,-2.5574,-2.5561,-2.5561,-2.6049,-2.6707,-2.6746,-2.6717,-2.6659,-2.6621,-2.6024,-2.538,-2.536,-2.5399,-2.5813,-2.744,-2.6669,-2.5437,-2.533,-2.5302,-2.5293,-2.5292,-2.5446,-2.5561,-2.5561,-2.8046,-2.9117,-2.5851,-2.5303,-2.5303,-2.5303,-2.5303,-2.5303,-2.5303,-2.5305,-2.5302,-2.5302,-2.5297,-2.5308,-2.5309,-2.5302,-2.5291,-2.5303,-2.5303,-2.5303,-2.5303,-2.5303,-2.5303,-2.5303,-2.5099,-2.501,-2.501,-2.4663,-2.4512,-2.4495,-2.4303,-2.4209,-3.9495,-4.1654,-4.3357,-4.5053,-4.5223,-4.4617,-4.3256,-4.1772,-3.9756,-3.6485,-3.3658,-3.1303,0.0,0.0,0.0,-3.2861,-3.4773,0.0,-4.1121,-4.2715,0.0,-4.2139,0.0,-4.1138,-3.9707,-3.918,0.0,0.0,-3.6934,-3.7187,-3.9121,-3.8613,-3.8262,-3.8262,-3.7637,-3.6875,-3.6016,-3.5351,-3.5039,-3.5019,-3.3105,-3.2305,-3.2461,-3.1387,-3.0898,-3.0898,-3.0898,-3.0898,-3.0898,-3.0898,-3.0137,-2.8926,-2.8476,-2.7867,-2.7098,-2.5956,-2.5896,-2.6396,-2.6337,-2.65,-2.6796,-2.7412,-2.7575,-2.7448,-2.6794,-2.6582,-2.6524,-2.6313,-2.6746,-2.7237,-2.7236,-2.7525,-2.739,-2.5704,-2.531,-2.531,-2.5299,-2.7302,-2.9088,-2.9088,-2.7757,-2.6322,-2.5457,-2.5303,-2.5303,-2.5303,-2.5303,-2.5303,-2.5303,-2.5302,-2.5301,-2.5301,-2.5308,-2.5297,-2.5301,-2.5301,-2.5292,-2.5303,-2.5303,-2.5303,-2.5303,-2.5303,-2.5303,-2.5303,-2.5099,-2.501,-2.501,-2.4809,-2.4639,-2.4495,-2.4444,-2.4339,-4.214,-4.3901,-4.5104,-4.5697,-4.5025,-4.3655,-4.1558,-3.9465,-3.682,-3.2757,-3.0307,0.0,-2.6869,-2.6074,-2.6948,0.0,0.0,0.0,-3.9869,-4.1648,-4.24,0.0,-4.2266,0.0,-4.0518,-4.0031,-3.978,0.0,-3.8476,-3.8359,-3.9824,-3.9434,-3.9004,-3.8613,-3.8125,-3.7266,-3.6016,-3.5508,-3.5273,-3.5254,-3.3535,-3.2734,-3.2695,-3.1465,-3.0898,-3.0898,-3.0898,-3.0898,-3.0898,-3.0898,-3.0312,-2.9394,-2.8981,-2.8496,-2.7885,-2.694,-2.6621,-2.6755,-2.7489,-2.7525,-2.7404,-2.8163,-2.8429,-2.8313,-2.7717,-2.7467,-2.7362,-2.7217,-2.7516,-2.7988,-2.8401,-2.8228,-2.7755,-2.6982,-2.6039,-2.5308,-2.5297,-2.7995,-2.9955,-2.8448,-2.6619,-2.5292,-2.5312,-2.5303,-2.5303,-2.5303,-2.5303,-2.5303,-2.5303,-2.5303,-2.5303,-2.5303,-2.5303,-2.5303,-2.5303,-2.5303,-2.5303,-2.5303,-2.5303,-2.5303,-2.5303,-2.5303,-2.5303,-2.5303,-2.5192,-2.5122,-2.5141,-2.4968,-2.4814,-2.4623,-2.4545,-2.4393,-4.3771,-4.5128,-4.5789,-4.5754,-4.4423,-4.2363,-3.9618,-3.6781,-3.3496,-2.9017,0.0,-2.64,-2.5065,-2.4836,-2.5849,-2.8965,0.0,-3.2346,-3.7697,-3.9088,-4.0235,-4.203,-4.2241,-4.1974,-4.1217,-4.0359,-4.0203,-4.1071,-4.0467,-4.0058,-4.0078,-3.9961,-3.9453,-3.8457,-3.8437,-3.7656,-3.6016,-3.5996,-3.5996,-3.5976,-3.4355,-3.3516,-3.3359,-3.1777,-3.1016,-3.0898,-3.0898,-3.0898,-3.0898,-3.0898,-3.082,-3.0644,-2.9832,-2.9468,-2.9294,-2.8378,-2.758,-2.72,-2.8698,-2.8768,-2.8307,-2.9071,-2.9289,-2.925,-2.8997,-2.8602,-2.8209,-2.8082,-2.8151,-2.8574,-3.0021,-2.894,-2.7695,-2.8687,-2.7435,-2.599,-2.5987,-2.831,-2.9528,-2.6546,-2.5617,-2.5311,-2.5311,-2.5293,-2.5303,-2.5303,-2.5303,-2.5303,-2.5303,-2.5303,-2.5303,-2.5303,-2.5303,-2.5303,-2.5303,-2.5303,-2.5303,-2.5303,-2.5303,-2.5303,-2.5303,-2.5303,-2.5303,-2.5303,-2.5303,-2.5303,-2.5303,-2.5111,-2.4968,-2.4814,-2.4654,-2.4461,-4.4993,-4.5667,-4.5677,-4.5137,-4.2661,-3.9666,-3.6902,-3.2639,0.0,0.0,-2.4246,-2.3347,-2.384,-2.3934,-2.5331,-2.9679,0.0,-3.2416,-3.8373,-3.9296,-4.0275,0.0,-4.2438,-4.2005,-4.1914,-4.1116,0.0,0.0,-4.0827,-4.0865,-4.0976,-4.0293,-3.918,-3.7578,-3.7539,-3.7031,-3.6016,-3.5996,-3.5996,-3.5996,-3.4961,-3.4101,-3.3379,-3.2402,-3.1582,-3.0898,-3.0898,-3.0898,-3.0898,-3.0898,-3.0488,-2.9805,-2.9648,-2.9541,-2.9374,-2.8493,-2.8476,-2.8961,-2.9265,-2.9271,-2.9292,-3.0081,-3.0297,-3.024,-3.015,-3.004,-2.9828,-2.9094,-2.9413,-3.004,-3.0325,-3.0121,-2.986,-3.0052,-2.9802,-2.9521,-2.9521,-2.9979,-3.0213,-2.9624,-2.7225,-2.5311,-2.5311,-2.5293,-2.5303,-2.5303,-2.5303,-2.5303,-2.5303,-2.5303,-2.5303,-2.5303,-2.5303,-2.5303,-2.5303,-2.5303,-2.5303,-2.5303,-2.5303,-2.5303,-2.5303,-2.5303,-2.5303,-2.5303,-2.5303,-2.5303,-2.5303,-2.5264,-2.5152,-2.4962,-2.4937,-2.485,-4.3053,-4.4113,-4.5055,-4.4343,-4.1283,-3.7694,-3.4767,0.0,0.0,0.0,-2.3013,-2.2364,-2.2916,-2.2985,0.0,-2.7817,-2.8357,0.0,0.0,0.0,0.0,0.0,-4.1255,-4.1346,0.0,-4.0995,-4.0752,-4.0793,-4.0832,-4.0721,-4.0435,-3.9237,-3.8164,-3.7324,-3.6855,-3.6426,-3.5996,-3.5996,-3.5996,-3.5996,-3.5117,-3.4238,-3.3379,-3.2578,-3.1719,-3.0898,-3.0898,-3.0898,-3.0898,-3.0898,-3.0644,-3.0273,-3.0191,-3.0142,-3.0066,-2.9616,-2.943,-2.9469,-2.9912,-2.9808,-2.9609,-3.0472,-3.0659,-3.0525,-3.0424,-3.0424,-3.0356,-2.9894,-3.0075,-3.0402,-3.041,-3.0398,-3.0398,-3.0398,-3.0398,-3.0398,-3.0398,-3.0402,-3.0414,-3.0414,-2.9074,-2.7775,-2.7176,-2.6572,-2.614,-2.6005,-2.5619,-2.5346,-2.5346,-2.5376,-2.5387,-2.5303,-2.5303,-2.5303,-2.5303,-2.5303,-2.5303,-2.5303,-2.5303,-2.5303,-2.5303,-2.5303,-2.5303,-2.5303,-2.5303,-2.5303,-2.5303,-2.5303,-2.5203,-2.501,-2.501,-2.4943,-4.1292,-4.289,-4.4494,-4.3572,-4.0012,-3.593,-3.2866,-2.8838,0.0,0.0,-2.2077,-2.1676,-2.2026,-2.1874,-2.2623,0.0,-2.5714,-2.7404,0.0,0.0,0.0,0.0,0.0,0.0,-4.0662,-4.0662,0.0,-4.0733,-4.0535,-4.0296,-3.9993,-3.8451,-3.7578,-3.7578,-3.6738,-3.6191,-3.5996,-3.5996,-3.5996,-3.5996,-3.5312,-3.4414,-3.3379,-3.2754,-3.1894,-3.0898,-3.0898,-3.0898,-3.0898,-3.0898,-3.0898,-3.0898,-3.0772,-3.0745,-3.074,-3.0685,-3.0263,-2.9823,-3.0501,-3.0454,-3.0164,-3.0726,-3.0774,-3.0598,-3.0506,-3.0494,-3.0516,-3.046,-3.0417,-3.0406,-3.039,-3.0398,-3.0398,-3.0398,-3.0398,-3.0398,-3.0398,-3.0414,-3.0436,-3.0436,-3.0267,-2.9815,-2.8927,-2.7769,-2.689,-2.6669,-2.5952,-2.5421,-2.5421,-2.5477,-2.5465,-2.5365,-2.533,-2.5312,-2.5303,-2.5303,-2.5303,-2.5303,-2.5303,-2.5303,-2.5303,-2.5303,-2.5303,-2.5303,-2.5303,-2.5303,-2.5303,-2.5303,-2.5214,-2.5057,-2.5057,-2.5005,-4.231,-4.3929,-4.4415,-4.2887,-3.8691,-3.4153,-3.1118,0.0,0.0,-2.1204,-2.0348,-2.0113,-2.096,-2.0386,-2.0699,-2.3574,-2.3278,-2.4543,0.0,0.0,0.0,0.0,0.0,0.0,-4.0519,-4.0519,-4.0515,-4.053,-3.9889,-3.9917,-4.0832,-3.9349,-3.8476,-3.8476,-3.7637,-3.6797,-3.6016,-3.5996,-3.5996,-3.5996,-3.5918,-3.5019,-3.3398,-3.332,-3.2422,-3.0898,-3.0898,-3.0898,-3.0898,-3.0898,-3.0898,-3.0898,-3.0898,-3.0879,-3.0879,-3.0878,-3.0839,-3.0761,-3.0859,-3.1347,-3.1836,-3.1132,-3.0811,-3.068,-3.0675,-3.0633,-3.0594,-3.0574,-3.0481,-3.0395,-3.0406,-3.0398,-3.0398,-3.0398,-3.0398,-3.0398,-3.0398,-3.049,-3.0577,-3.0577,-2.9807,-2.911,-2.8993,-2.7774,-2.6806,-2.6787,-2.6048,-2.5484,-2.5484,-2.5508,-2.5527,-2.5571,-2.5409,-2.5294,-2.5306,-2.5292,-2.5303,-2.5303,-2.5303,-2.5303,-2.5303,-2.5303,-2.5303,-2.5303,-2.5303,-2.5303,-2.5303,-2.5303,-2.5284,-2.5274,-2.5274,-2.5264,-3.7519,-4.012,-4.2153,-4.1149,-3.7012,-3.2533,-3.0056,0.0,-2.1594,-2.0849,-2.0082,-1.9648,-2.0024,-1.9769,-2.0224,-2.2467,-2.209,0.0,-2.8007,0.0,0.0,0.0,-3.7507,0.0,0.0,0.0,-4.0489,-4.0489,-3.9316,-3.9073,-4.0104,-3.8592,-3.7493,-3.7051,-3.6699,-3.6348,-3.5996,-3.5996,-3.5996,-3.5996,-3.5469,-3.457,-3.3379,-3.2891,-3.2031,-3.0898,-3.0898,-3.1191,-3.168,-3.168,-3.1973,-3.2402,-3.2402,-3.2109,-3.1738,-3.2226,-3.2109,-3.1758,-3.2246,-3.2305,-3.2148,-3.1797,-3.1288,-3.0813,-3.0719,-3.0685,-3.0652,-3.0659,-3.0593,-3.0494,-3.0414,-3.04,-3.0398,-3.0398,-3.0398,-3.0471,-3.0665,-3.0646,-3.0621,-3.0644,-3.027,-2.9964,-2.9964,-2.9074,-2.8179,-2.7653,-2.7316,-2.6949,-2.6399,-2.6381,-2.6216,-2.5707,-2.5511,-2.5389,-2.5316,-2.5302,-2.5309,-2.5293,-2.5303,-2.5303,-2.5303,-2.5303,-2.5303,-2.5303,-2.5303,-2.5303,-2.5303,-2.5303,-2.5303,-2.5303,-2.5303,-2.5303,-3.334,-3.6211,-3.8791,-3.8143,-3.4433,-3.0413,0.0,0.0,-2.1053,-2.0467,-1.9885,-1.9483,-1.9504,-1.9479,-1.997,-2.1521,-2.1316,-2.2227,-2.5861,-2.7141,0.0,0.0,0.0,-3.6344,0.0,-3.9546,-4.0239,-4.0469,-3.9218,-3.8659,-3.912,-3.7812,-3.6848,-3.6406,-3.6133,-3.5996,-3.5996,-3.5996,-3.5879,-3.5605,-3.498,-3.4121,-3.3027,-3.2461,-3.1719,-3.0898,-3.0898,-3.1387,-3.2207,-3.2207,-3.2676,-3.3398,-3.3398,-3.3047,-3.2598,-3.293,-3.2695,-3.2246,-3.2559,-3.2617,-3.2461,-3.1973,-3.1738,-3.1523,-3.0948,-3.0767,-3.0762,-3.0754,-3.0684,-3.0574,-3.0419,-3.0404,-3.041,-3.0447,-3.0458,-3.0528,-3.0784,-3.0734,-3.0633,-3.0686,-3.0691,-3.0685,-3.0685,-3.0002,-2.9242,-2.8638,-2.8354,-2.8016,-2.7391,-2.7362,-2.7051,-2.6172,-2.5763,-2.552,-2.5438,-2.5402,-2.5394,-2.5382,-2.5348,-2.5321,-2.533,-2.5313,-2.5303,-2.5303,-2.5303,-2.5303,-2.5303,-2.5303,-2.5303,-2.5303,-2.5303,-2.5303,-3.1187,-3.3216,-3.439,-3.3651,-3.0732,-2.7554,0.0,-2.3034,-2.0721,-1.9713,-1.9453,-1.942,-1.9489,-1.9398,-1.9626,-2.0645,-2.0804,-2.1446,-2.3277,-2.5885,0.0,0.0,0.0,-3.3196,-3.4084,-3.7305,-3.9642,-4.0431,-3.9754,-3.894,-3.8156,-3.7353,-3.7012,-3.7285,-3.6445,-3.5996,-3.5996,-3.5996,-3.5566,-3.4707,-3.4707,-3.3828,-3.2207,-3.2207,-3.1719,-3.0898,-3.0898,-3.1387,-3.2207,-3.2207,-3.2676,-3.3398,-3.3398,-3.3398,-3.3281,-3.25,-3.2207,-3.207,-3.1211,-3.2012,-3.3105,-3.1445,-3.2031,-3.3066,-3.1406,-3.0898,-3.0898,-3.0899,-3.0748,-3.0565,-3.0421,-3.0404,-3.0425,-3.0568,-3.0595,-3.0629,-3.0685,-3.0696,-3.0693,-3.0693,-3.0814,-3.0898,-3.0898,-3.0176,-2.959,-2.959,-2.8848,-2.8301,-2.8281,-2.8281,-2.7949,-2.707,-2.6211,-2.5701,-2.5701,-2.564,-2.5605,-2.5605,-2.5473,-2.5398,-2.5413,-2.5339,-2.5303,-2.5303,-2.5303,-2.5303,-2.5303,-2.5303,-2.5303,-2.5303,-2.5303,-2.5303,-2.7614,-2.9387,-3.0587,-3.0501,-2.8188,-2.5626,-2.4389,-2.2005,-1.9931,-1.9512,-1.9393,-1.9378,-1.9483,-1.9402,-1.9626,-2.0641,-2.0752,-2.1384,0.0,0.0,0.0,-3.08,-3.5244,-3.8185,0.0,0.0,-3.9411,-3.9662,-3.8334,-3.7456,-3.7284,-3.6482,-3.6073,-3.6202,-3.5934,-3.5541,-3.5042,-3.5042,-3.4621,-3.3809,-3.3242,-3.2715,-3.2187,-3.1582,-3.1484,-3.1797,-3.1797,-3.2598,-3.3906,-3.3906,-3.4414,-3.5176,-3.5176,-3.4453,-3.3437,-3.3789,-3.3184,-3.2246,-3.2519,-3.2969,-3.3223,-3.2148,-3.2519,-3.3223,-3.2324,-3.1523,-3.0898,-3.0897,-3.1226,-3.1412,-3.0765,-3.0568,-3.0545,-3.0593,-3.0626,-3.0704,-3.0817,-3.0765,-3.0721,-3.0816,-3.0878,-3.1094,-3.1699,-3.1074,-3.0488,-3.0488,-3.0254,-2.9863,-2.9277,-2.9199,-2.9082,-2.8809,-2.7461,-2.6326,-2.5683,-2.5612,-2.557,-2.5532,-2.5488,-2.5447,-2.5406,-2.5376,-2.5337,-2.5313,-2.5303,-2.5303,-2.5303,-2.5303,-2.5303,-2.5303,-2.5303,-2.5303,0.0,-2.5414,-2.6424,-2.6565,-2.5026,0.0,0.0,-2.0966,-1.9471,-1.9387,-1.9329,-1.9344,-1.9438,-1.9629,-2.0071,-2.1025,-2.1171,-2.1711,0.0,0.0,0.0,-3.0858,0.0,0.0,0.0,-3.8896,-3.895,-3.9277,-3.77,-3.6741,-3.6818,-3.6026,-3.5588,-3.5621,-3.5376,-3.5201,-3.508,-3.4752,-3.4361,-3.3887,-3.3379,-3.2969,-3.2617,-3.1777,-3.1855,-3.2637,-3.2324,-3.3144,0.0,-3.4707,-3.5215,-3.5996,-3.5996,-3.5332,-3.4375,-3.4258,-3.3769,-3.3125,-3.2988,-3.3359,-3.375,-3.293,-3.2988,-3.3281,-3.2637,-3.2324,-3.1992,-3.1133,-3.1674,-3.2202,-3.1008,-3.0891,-3.1104,-3.113,-3.0901,-3.0919,-3.1682,-3.1278,-3.0891,-3.1308,-3.1113,-3.1172,-3.2051,-3.1484,-3.1016,-3.1348,-3.1113,-3.0703,-3.0156,-3.0098,-2.9961,-2.9648,-2.832,-2.7128,-2.6203,-2.5831,-2.5629,-2.557,-2.5554,-2.5526,-2.5482,-2.5428,-2.5383,-2.5348,-2.5313,-2.5313,-2.5339,-2.5363,-2.5363,-2.5339,-2.5339,-2.5312,0.0,-2.1615,0.0,0.0,0.0,0.0,-2.0697,-1.9959,0.0,-1.9282,-1.9295,-1.9323,-1.939,-2.0003,-2.0739,-2.1504,-2.1826,0.0,0.0,-2.3724,0.0,0.0,-3.2374,0.0,-3.6569,-3.7497,-3.8334,-3.9142,-3.7603,-3.6622,-3.6622,-3.5911,-3.5493,-3.5493,-3.4845,-3.4898,-3.5775,-3.4983,-3.4593,-3.4609,-3.4609,-3.418,-3.3379,-3.2578,-3.2676,-3.3457,-3.2637,-3.3242,-3.4785,-3.4785,-3.5273,-3.5996,-3.5996,-3.5957,-3.5703,-3.4023,-3.3906,-3.4375,-3.2754,-3.3301,-3.457,-3.3828,-3.3535,-3.332,-3.2578,-3.3281,-3.3848,-3.1543,-3.2065,-3.2907,-3.1167,-3.1274,-3.1851,-3.1981,-3.1401,-3.1274,-3.3027,-3.2187,-3.1328,-3.2129,-3.1621,-3.1348,-3.2226,-3.166,-3.1348,-3.2168,-3.1543,-3.0976,-3.0918,-3.0898,-3.0586,-2.9785,-2.8867,-2.7969,-2.7168,-2.623,-2.5703,-2.5703,-2.5637,-2.5603,-2.5601,-2.5473,-2.5408,-2.5401,-2.5357,-2.5337,-2.5401,-2.5482,-2.5477,-2.5401,-2.5394,-2.5379,-1.9472,0.0,-1.9967,-2.0043,-1.9781,-1.9522,0.0,-1.9319,-1.9164,-1.92,0.0,-1.923,-1.9308,-1.9968,-2.0372,-2.0016,0.0,0.0,-2.2226,0.0,0.0,-3.1771,-3.6089,-3.8646,-3.7762,-3.7873,-3.8084,-3.8296,-3.6738,-3.5795,-3.5795,-3.5603,-3.5493,-3.5493,-3.4699,-3.4408,-3.4678,-3.4464,-3.4127,-3.3629,-3.3629,-3.3545,-3.3379,-3.2578,-3.3008,-3.4355,-3.3496,-3.4101,-3.5684,-3.5684,-3.582,-3.5996,-3.5996,-3.5586,-3.4883,-3.3809,-3.3535,-3.3555,-3.2559,-3.3301,-3.4785,-3.5234,-3.4805,-3.4043,-3.3867,-3.418,-3.4082,-3.1601,-3.2109,-3.2987,-3.1288,-3.0992,-3.1304,-3.199,-3.1991,-3.2128,-3.3183,-3.3086,-3.2871,-3.3086,-3.2949,-3.3086,-3.3965,-3.3398,-3.2871,-3.3086,-3.2422,-3.1641,-3.0996,-3.0898,-3.082,-3.0625,-2.9219,-2.8223,-2.8008,-2.6582,-2.5703,-2.5703,-2.5683,-2.5659,-2.5603,-2.5564,-2.5535,-2.5488,-2.5471,-2.5471,-2.5488,-2.5484,-2.5484,-2.5488,-2.5421,-2.5415,-1.8572,-1.8974,-1.9298,-1.9246,-1.9198,-1.915,-1.9115,0.0,0.0,0.0,0.0,0.0,0.0,0.0,0.0,0.0,-2.1668,0.0,0.0,0.0,-3.2229,-3.2737,-3.633,-3.8565,-3.8046,-3.7642,-3.7411,-3.7411,-3.6219,-3.5493,-3.5493,-3.5493,-3.5493,-3.5493,-3.5045,-3.4834,-3.4903,-3.4497,-3.4337,-3.4399,-3.4464,-3.4507,-3.4523,-3.371,-3.4062,-3.5254,-3.4375,-3.4766,-3.5996,-3.5996,-3.5996,-3.5996,-3.5996,-3.5703,-3.5195,-3.4316,-3.4004,-3.3926,-3.3496,-3.4199,-3.5371,-3.5859,-3.5312,-3.4453,-3.4336,-3.4219,-3.3769,-3.2148,-3.2793,-3.3516,-3.1445,-3.1191,-3.1621,-3.209,-3.2207,-3.2539,-3.373,-3.3672,-3.3516,-3.3926,-3.3379,-3.3242,-3.4492,-3.3672,-3.2969,-3.334,-3.2715,-3.1894,-3.1016,-3.0898,-3.0898,-3.0898,-2.9336,-2.8301,-2.8301,-2.6699,-2.5703,-2.5703,-2.5703,-2.5683,-2.5658,-2.5629,-2.5564,-2.5493,-2.5539,-2.5551,-2.5551,-2.559,-2.559,-2.5547,-2.5517,-2.5484,-1.8016,-1.8674,-1.9298,-1.9186,-1.9153,-1.9135,-1.9049,0.0,0.0,0.0,0.0,0.0,0.0,-2.0231,0.0,0.0,0.0,0.0,-2.6782,-3.0018,-3.2326,-3.2757,-3.5336,-3.7238,-3.7584,-3.7065,-3.6699,-3.6699,-3.5949,-3.5493,-3.5493,-3.5493,-3.5493,-3.5493,-3.5493,-3.5534,-3.5579,-3.4844,-3.4894,-3.5682,-3.5791,-3.5869,-3.5864,-3.4915,-3.5039,-3.5937,-3.4941,-3.5078,-3.5996,-3.5996,-3.5996,-3.5996,-3.5996,-3.5996,-3.5898,-3.5019,-3.4785,-3.4902,-3.4902,-3.5371,-3.5996,-3.5996,-3.5508,-3.4824,-3.4414,-3.3887,-3.332,-3.2969,-3.3555,-3.3828,-3.166,-3.1543,-3.2031,-3.2168,-3.2207,-3.2617,-3.418,-3.4023,-3.3828,-3.4551,-3.3652,-3.3223,-3.4648,-3.3711,-3.2969,-3.3516,-3.2891,-3.207,-3.1211,-3.0976,-3.0898,-3.0898,-2.9453,-2.8496,-2.8496,-2.6894,-2.5898,-2.5898,-2.5762,-2.5703,-2.5703,-2.5657,-2.5595,-2.5539,-2.5595,-2.5627,-2.5627,-2.5662,-2.5662,-2.5627,-2.5603,-2.5587,-1.841,-1.886,-1.8949,-1.8878,-1.8896,-1.8914,-1.8789,0.0,0.0,0.0,0.0,0.0,0.0,-2.1235,-2.2129,0.0,0.0,-2.8491,0.0,0.0,-3.4983,-3.3025,-3.6407,-3.8104,-3.6084,-3.6392,-3.6699,-3.6699,-3.5949,-3.5493,-3.5493,-3.5493,-3.5493,-3.5493,-3.5493,-3.5488,-3.5528,-3.5393,-3.5411,-3.5621,-3.564,-3.5748,-3.5845,-3.4248,-3.4424,-3.5918,-3.4297,-3.4512,-3.5996,-3.5996,-3.5996,-3.5996,-3.5996,-3.5996,-3.5898,-3.5019,-3.5176,-3.5801,-3.5801,-3.5898,-3.5996,-3.5996,-3.5918,-3.5605,-3.4609,-3.3887,-3.3496,-3.3926,-3.334,-3.248,-3.2109,-3.1543,-3.1289,-3.2012,-3.2207,-3.2461,-3.3398,-3.4062,-3.4531,-3.4668,-3.5098,-3.5508,-3.5762,-3.5586,-3.5215,-3.459,-3.3769,-3.293,-3.2109,-3.1367,-3.0898,-3.0898,-3.0,-2.9394,-2.9394,-2.7793,-2.6797,-2.6797,-2.6113,-2.5703,-2.5703,-2.5683,-2.5683,-2.5662,-2.5683,-2.5683,-2.5683,-2.5683,-2.5683,-2.5683,-2.5633,-2.5611,-1.7408,-1.7877,-1.8269,-1.8794,-1.8888,-1.8932,-1.9287,-1.9394,0.0,0.0,0.0,0.0,0.0,0.0,-2.3607,-2.6727,0.0,-3.135,-3.2632,-3.4237,-3.4822,-3.3684,-3.532,-3.6276,-3.5584,-3.5834,-3.6065,-3.6065,-3.5718,-3.5493,-3.5493,-3.5493,-3.5493,-3.5493,-3.5493,-3.5276,-3.4795,-3.4795,-3.4815,-3.4844,-3.4883,-3.496,-3.5035,-3.4723,-3.5052,-3.5802,-3.5062,-3.5205,-3.5948,-3.5995,-3.5996,-3.5996,-3.5996,-3.5996,-3.5898,-3.5019,-3.5232,-3.5868,-3.5283,-3.5408,-3.5841,-3.5876,-3.5578,-3.5185,-3.5213,-3.4002,-3.2883,-3.3984,-3.3281,-3.2207,-3.2207,-3.1543,-3.0996,-3.1406,-3.2187,-3.2949,-3.332,-3.4453,-3.5391,-3.5391,-3.5351,-3.5449,-3.5918,-3.5605,-3.5156,-3.4766,-3.3965,-3.3105,-3.2305,-3.1445,-3.0878,-3.0793,-3.0077,-2.9589,-2.9544,-2.8417,-2.7305,-2.6367,-2.5918,-2.5703,-2.5703,-2.5703,-2.5703,-2.5703,-2.5703,-2.5703,-2.5703,-2.5703,-2.5703,-2.5703,-2.5662,-2.5662,-1.6649,-1.7135,-1.7808,-1.8602,0.0,-1.9105,-2.0138,-2.0407,0.0,0.0,0.0,0.0,0.0,-2.3574,0.0,-2.9901,-3.2171,-3.381,-3.493,-3.5084,-3.5007,-3.4814,-3.4795,-3.4891,-3.518,-3.5391,-3.543,-3.5218,-3.5199,-3.5199,-3.5199,-3.5007,-3.4891,-3.4891,-3.4891,-3.4564,-3.3891,-3.3699,-3.3699,-3.3891,-3.3948,-3.4089,-3.4323,-3.4839,-3.5293,-3.571,-3.5612,-3.5689,-3.5869,-3.5901,-3.593,-3.593,-3.593,-3.593,-3.5852,-3.5188,-3.533,-3.5747,-3.4905,-3.5095,-3.571,-3.5758,-3.532,-3.4906,-3.5681,-3.4293,-3.2705,-3.3992,-3.3275,-3.2183,-3.2421,-3.1992,-3.1484,-3.1484,-3.2461,-3.3398,-3.3398,-3.4609,-3.5703,-3.5703,-3.5312,-3.5215,-3.5879,-3.5449,-3.4941,-3.4726,-3.3965,-3.3105,-3.2305,-3.1445,-3.0857,-3.0718,-3.0187,-2.976,-2.9525,-2.8941,-2.7851,-2.6113,-2.5996,-2.5918,-2.5703,-2.5703,-2.5703,-2.5703,-2.5703,-2.5703,-2.5703,-2.5703,-2.5703,-2.5703,-2.5703,-2.5703,-1.7027,-1.7604,-1.8005,-1.8217,-1.8585,0.0,-2.1311,-2.1758,0.0,-2.4232,0.0,0.0,0.0,-2.7024,-2.9243,-3.1024,-3.3561,-3.5858,-3.7507,-3.7738,-3.743,-3.6622,-3.6526,-3.593,-3.443,-3.5026,-3.5161,-3.4353,-3.4295,-3.4295,-3.4295,-3.3526,-3.3083,-3.3083,-3.3083,-3.3064,-3.2987,-3.2256,-3.2256,-3.2987,-3.3,-3.345,-3.4274,-3.3539,-3.4115,-3.5664,-3.4925,-3.5029,-3.5717,-3.5723,-3.5723,-3.5723,-3.5723,-3.5723,-3.5704,-3.5645,-3.5658,-3.5697,-3.5639,-3.5644,-3.571,-3.571,-3.5628,-3.5541,-3.5684,-3.4795,-3.3855,-3.4341,-3.3251,-3.2148,-3.3063,-3.3262,-3.3223,-3.3223,-3.3301,-3.3398,-3.3398,-3.4121,-3.4785,-3.4785,-3.5391,-3.5937,-3.5996,-3.5957,-3.5625,-3.4824,-3.3965,-3.3105,-3.2305,-3.1445,-3.0857,-3.0718,-3.0657,-3.0325,-2.9562,-2.9507,-2.8769,-2.7012,-2.6914,-2.6543,-2.5723,-2.5703,-2.5703,-2.5703,-2.5703,-2.5703,-2.5703,-2.5703,-2.5703,-2.5703,-2.5703,-2.5703,-1.692,-1.7524,-1.7974,-1.8646,-1.9303,0.0,0.0,-2.2524,-2.3655,-2.4382,-2.5511,0.0,0.0,0.0,-2.9802,-3.1994,-3.4115,-3.5718,-3.6372,-3.6449,-3.593,-3.4507,-3.4334,-3.4295,-3.4199,-3.4007,-3.3968,-3.418,-3.3699,-3.3391,-3.3391,-3.3083,-3.2891,-3.2891,-3.2891,-3.266,-3.216,-3.1852,-3.1583,-3.1352,-3.1891,-3.2601,-3.345,-3.3651,-3.4419,-3.5557,-3.5292,-3.5368,-3.5629,-3.5682,-3.5703,-3.5703,-3.5703,-3.5703,-3.5703,-3.5703,-3.5667,-3.5648,-3.5648,-3.5611,-3.5581,-3.5588,-3.5562,-3.5538,-3.5623,-3.4565,-3.3494,-3.4282,-3.3641,-3.2672,-3.2558,-3.2137,-3.1887,-3.2519,-3.3047,-3.3398,-3.3398,-3.4512,-3.5351,-3.4805,-3.5391,-3.5996,-3.5996,-3.5996,-3.5683,-3.4777,-3.4363,-3.3834,-3.2998,-3.2098,-3.1504,-3.1451,-3.0959,-3.0525,-3.0264,-3.0347,-2.9668,-2.793,-2.7305,-2.6602,-2.5742,-2.5703,-2.5703,-2.5703,-2.5703,-2.5703,-2.5703,-2.5703,-2.5703,-2.5703,-2.5703,-2.5703,-1.6551,-1.7116,-1.7621,0.0,0.0,0.0,-2.1082,-2.2797,-2.4554,-2.5801,-2.7384,-2.84,-2.7942,0.0,0.0,0.0,-3.4095,-3.5199,-3.5468,-3.5026,-3.4237,-3.3045,-3.2891,-3.3026,-3.3372,-3.3103,-3.3045,-3.3372,-3.2852,-3.2526,-3.2526,-3.2256,-3.2122,-3.2122,-3.2122,-3.1852,-3.1295,-3.1295,-3.0987,-3.0398,-3.1006,-3.1718,-3.2545,-3.3391,-3.4276,-3.5103,-3.543,-3.5574,-3.5566,-3.5631,-3.5639,-3.5639,-3.5639,-3.5639,-3.5639,-3.5639,-3.5601,-3.5574,-3.5574,-3.554,-3.5493,-3.5493,-3.5493,-3.5526,-3.5565,-3.4744,-3.3884,-3.4293,-3.3777,-3.2986,-3.2458,-3.2294,-3.2455,-3.3146,-3.3761,-3.4195,-3.4195,-3.5136,-3.5742,-3.4863,-3.5391,-3.5918,-3.5644,-3.5799,-3.5657,-3.4742,-3.4581,-3.4257,-3.3384,-3.2464,-3.1786,-3.1526,-3.0931,-3.0592,-3.069,-3.0772,-3.0233,-2.8809,-2.7891,-2.6894,-2.5742,-2.5703,-2.5703,-2.5703,-2.5703,-2.5703,-2.5703,-2.5703,-2.5703,-2.5703,-2.5703,-2.5703,-1.592,-1.6395,-1.6941,0.0,0.0,0.0,-2.0968,-2.2566,-2.4976,-2.9056,-2.967,-2.9413,-2.9136,-2.9857,0.0,-3.2431,-3.3517,-3.4468,-3.5339,-3.3968,-3.2891,-3.2872,-3.2872,-3.2564,-3.1775,-3.241,-3.2545,-3.1756,-3.1698,-3.1698,-3.1698,-3.0871,-3.0379,-3.0379,-3.0379,-3.0379,-3.0379,-3.0379,-3.0379,-3.0398,-3.0379,-3.0852,-3.1737,-3.2526,-3.3372,-3.4237,-3.5122,-3.5493,-3.5493,-3.5493,-3.5493,-3.5493,-3.5493,-3.5493,-3.5493,-3.5493,-3.5493,-3.5493,-3.5493,-3.5493,-3.5493,-3.5493,-3.5493,-3.5493,-3.5493,-3.5474,-3.5315,-3.443,-3.3583,-3.2928,-3.2986,-3.4356,-3.5703,-3.5684,-3.5783,-3.5861,-3.5861,-3.5929,-3.5723,-3.4844,-3.5391,-3.5723,-3.4863,-3.5378,-3.5607,-3.4729,-3.4559,-3.4192,-3.331,-3.2441,-3.1572,-3.0697,-3.0545,-3.0547,-3.0687,-3.0693,-3.0376,-2.9629,-2.8789,-2.7519,-2.5781,-2.5703,-2.5703,-2.5703,-2.5703,-2.5703,-2.5703,-2.5703,-2.5703,-2.5703,-2.5703,-2.5703,-1.6054,-1.661,0.0,-1.8804,0.0,0.0,0.0,-2.4063,0.0,0.0,-2.8632,-2.8482,-2.8169,-2.8915,-2.9902,-3.0924,-3.1698,-3.2254,-3.2522,-3.1981,-3.1381,-3.0925,-3.0863,-3.109,-3.1648,-3.1371,-3.1295,-3.1679,-3.1141,-3.0794,-3.0794,-2.9967,-2.9486,-2.9486,-2.8948,-2.8909,-2.9486,-2.8929,-2.9236,-3.0379,-2.9775,-3.0256,-3.1737,-3.2526,-3.3372,-3.4237,-3.5122,-3.5493,-3.5493,-3.5493,-3.5493,-3.5493,-3.5493,-3.5493,-3.5493,-3.5493,-3.5493,-3.5493,-3.5493,-3.5493,-3.5493,-3.5493,-3.5493,-3.5493,-3.5493,-3.5064,-3.4526,-3.4257,-3.4007,-3.3827,-3.3839,-3.4697,-3.5433,-3.4967,-3.4419,-3.4008,-3.4008,-3.4043,-3.4012,-3.3777,-3.445,-3.5175,-3.5493,-3.5734,-3.5563,-3.454,-3.4891,-3.472,-3.3186,-3.2842,-3.2152,-3.0617,-3.0491,-3.0524,-3.0554,-3.0657,-3.0094,-2.8695,-2.8416,-2.7793,-2.666,-2.6035,-2.5703,-2.5703,-2.5703,-2.5703,-2.5703,-2.5703,-2.5703,-2.5703,-2.5703,-2.5703,-1.58,-1.6514,0.0,-1.9001,-2.0351,-2.1795,-2.3597,0.0,0.0,0.0,-2.9109,-2.9286,-2.9365,-2.9582,-3.0004,-3.0779,-3.1226,-3.1417,-3.1306,-3.0912,-3.0446,-3.0041,-2.9999,-3.0314,-3.1097,-3.0717,-3.0467,-3.0641,-3.0179,-2.9737,-2.9429,-2.8909,-2.8621,-2.8621,-2.814,-2.8099,-2.8502,-2.8099,-2.8368,-2.9289,-2.8848,-2.9333,-3.0717,-3.1891,-3.2872,-3.3757,-3.4968,-3.5446,-3.5354,-3.5446,-3.5493,-3.5493,-3.5493,-3.5432,-3.5354,-3.5354,-3.5273,-3.5207,-3.5304,-3.5423,-3.5474,-3.5381,-3.5411,-3.5488,-3.5373,-3.5048,-3.4718,-3.4718,-3.4468,-3.4199,-3.4199,-3.4584,-3.4982,-3.4903,-3.4503,-3.3992,-3.3538,-3.3153,-3.3072,-3.3652,-3.4222,-3.4778,-3.5251,-3.5591,-3.5553,-3.4914,-3.5229,-3.4928,-3.3134,-3.2968,-3.2355,-3.0614,-3.0442,-3.0482,-3.0537,-3.0594,-3.019,-2.9219,-2.8873,-2.832,-2.7462,-2.6281,-2.566,-2.566,-2.566,-2.566,-2.566,-2.5683,-2.5703,-2.5703,-2.5703,-2.5703,-1.5241,-1.6156,0.0,-1.8457,-2.0406,0.0,-2.4534,-2.6823,-2.8734,-2.9477,0.0,-3.1008,-3.144,-3.0944,-3.0688,-3.1264,-3.134,-3.1258,-3.1058,-3.0289,-2.976,-2.9836,-2.9808,-2.9893,-3.0155,-3.0237,-2.9929,-2.9063,-2.9063,-2.8736,-2.7928,-2.7813,-2.7775,-2.7775,-2.7698,-2.7593,-2.7485,-2.7593,-2.7631,-2.7599,-2.7708,-2.8198,-2.9014,-3.0794,-3.2051,-3.2961,-3.4524,-3.5074,-3.4859,-3.5166,-3.5316,-3.5316,-3.5393,-3.5289,-3.5051,-3.5051,-3.4908,-3.4734,-3.4981,-3.523,-3.5398,-3.5151,-3.5223,-3.5373,-3.5147,-3.5242,-3.5451,-3.5451,-3.4856,-3.4216,-3.4076,-3.4095,-3.4345,-3.5147,-3.5345,-3.5058,-3.4021,-3.3009,-3.2707,-3.4095,-3.438,-3.4406,-3.4464,-3.5096,-3.56,-3.559,-3.554,-3.4872,-3.3122,-3.2891,-3.2266,-3.0665,-3.0449,-3.0451,-3.0568,-3.0529,-3.0482,-3.0471,-2.9738,-2.8902,-2.8012,-2.6529,-2.5673,-2.5598,-2.5598,-2.5598,-2.5598,-2.566,-2.5683,-2.5683,-2.5703,-2.5703,-1.4678,-1.5497,0.0,0.0,-2.1455,-2.4213,-2.5974,-2.6797,-2.711,-2.6775,-2.8864,-3.0306,-2.8864,-2.9186,-2.9447,-2.8828,-2.8535,-2.855,-2.8982,-2.8329,-2.8029,-2.8669,-2.8335,-2.8141,-2.8418,-2.9006,-2.9044,-2.8217,-2.8736,-2.8736,-2.7928,-2.7255,-2.689,-2.689,-2.6217,-2.6085,-2.6575,-2.6105,-2.645,-2.7599,-2.7113,-2.7259,-2.7995,-2.9843,-3.1411,-3.2664,-3.283,-3.2878,-3.2881,-3.3562,-3.3845,-3.3921,-3.4604,-3.4851,-3.4793,-3.4793,-3.4734,-3.4694,-3.4773,-3.4886,-3.4997,-3.4849,-3.4831,-3.4888,-3.4945,-3.4983,-3.5022,-3.504,-3.4832,-3.4338,-3.3176,-3.3363,-3.3926,-3.4115,-3.4173,-3.4101,-3.3846,-3.2928,-3.2399,-3.3244,-3.3444,-3.366,-3.4234,-3.5049,-3.5568,-3.5515,-3.5501,-3.4872,-3.3122,-3.2891,-3.2269,-3.0609,-3.0402,-3.0414,-3.0441,-3.0482,-3.0217,-2.9528,-2.9369,-2.8629,-2.7132,-2.6739,-2.6223,-2.5531,-2.5511,-2.5511,-2.5511,-2.5595,-2.5611,-2.5611,-2.5682,-2.5703,-1.4466,0.0,0.0,-1.9189,0.0,-2.4023,-2.5308,-2.6207,-2.6663,-2.6343,-2.7998,-2.9168,-2.8085,-2.8372,-2.8605,-2.8028,-2.7811,-2.7759,-2.7945,-2.7597,-2.7502,-2.7915,-2.768,-2.7606,-2.7879,-2.8275,-2.8179,-2.7332,-2.7659,-2.7544,-2.6697,-2.6135,-2.5885,-2.5956,-2.5378,-2.5258,-2.5678,-2.5329,-2.5558,-2.6346,-2.601,-2.6402,-2.7481,-2.9294,-3.0681,-3.1656,-3.2052,-3.2355,-3.263,-3.3165,-3.3658,-3.4072,-3.4524,-3.4593,-3.4445,-3.4445,-3.4375,-3.4302,-3.442,-3.4413,-3.4377,-3.4439,-3.4483,-3.458,-3.4636,-3.4781,-3.4903,-3.4809,-3.4752,-3.4394,-3.3012,-3.2689,-3.2746,-3.2737,-3.3695,-3.4456,-3.393,-3.2906,-3.2394,-3.3437,-3.3316,-3.3316,-3.4113,-3.4959,-3.5399,-3.4943,-3.5238,-3.4737,-3.2602,-3.266,-3.2256,-3.0571,-3.0398,-3.0398,-3.0398,-3.0439,-3.0269,-2.9795,-2.9815,-2.9251,-2.7954,-2.7528,-2.6738,-2.5473,-2.5459,-2.5459,-2.5453,-2.5526,-2.5554,-2.5554,-2.5595,-2.5611,-1.4383,0.0,-1.6824,-1.9464,-2.1347,0.0,-2.3816,-2.5189,-2.6308,-2.6501,-2.7405,-2.8111,-2.7912,-2.7871,-2.7783,-2.7574,-2.7489,-2.7412,-2.7287,-2.7191,-2.7166,-2.726,-2.7172,-2.7223,-2.7437,-2.7582,-2.7313,-2.6447,-2.6505,-2.6206,-2.5292,-2.5088,-2.5065,-2.5212,-2.4962,-2.4883,-2.4962,-2.5022,-2.5022,-2.4962,-2.4937,-2.5627,-2.6989,-2.8399,-2.9551,-3.0437,-3.1278,-3.1912,-3.2348,-3.2852,-3.3479,-3.4175,-3.4435,-3.4375,-3.4123,-3.4123,-3.3986,-3.3823,-3.3901,-3.3882,-3.3813,-3.3852,-3.4078,-3.4301,-3.4306,-3.4487,-3.4701,-3.4588,-3.4398,-3.4024,-3.2976,-3.2165,-3.1581,-3.1316,-3.3157,-3.4658,-3.3646,-3.2878,-3.2673,-3.3583,-3.3295,-3.3205,-3.4197,-3.4864,-3.5012,-3.4255,-3.4653,-3.4237,-3.1987,-3.2275,-3.216,-3.0775,-3.0609,-3.0609,-3.0609,-3.0609,-3.0552,-3.0398,-3.0398,-3.0006,-2.914,-2.8332,-2.719,-2.5638,-2.5461,-2.5383,-2.5376,-2.5453,-2.5473,-2.5473,-2.5484,-2.5535,0.0,0.0,-1.6576,0.0,-1.985,-2.107,0.0,0.0,-2.4657,0.0,-2.6854,-2.7802,-2.7103,-2.6928,-2.6636,-2.587,-2.5695,-2.5828,-2.6301,-2.5914,-2.5795,-2.632,-2.5914,-2.5609,-2.563,-2.6332,-2.6409,-2.5534,-2.6178,-2.6145,-2.5103,-2.5022,-2.4949,-2.4874,-2.4943,-2.493,-2.4828,-2.5107,-2.5107,-2.4814,-2.4636,-2.5028,-2.5891,-2.5949,-2.7283,-2.956,-2.9481,-2.9457,-2.9655,-3.1083,-3.1734,-3.1974,-3.3368,-3.3876,-3.3868,-3.3868,-3.3842,-3.3697,-3.3051,-3.3243,-3.3637,-3.2766,-3.3123,-3.3887,-3.387,-3.3913,-3.3947,-3.3931,-3.3253,-3.2496,-3.2318,-3.2032,-3.1476,-3.0245,-3.1331,-3.2496,-3.1997,-3.2779,-3.3282,-3.2237,-3.2506,-3.3338,-3.4732,-3.4644,-3.426,-3.391,-3.3513,-3.2872,-3.1833,-3.1795,-3.1775,-3.1545,-3.1525,-3.1525,-3.1525,-3.1525,-3.1198,-3.0436,-3.0398,-3.0006,-2.914,-2.8332,-2.7439,-2.6448,-2.5698,-2.5313,-2.5313,-2.5376,-2.5408,-2.5415,-2.5463,-2.5493,-1.4165,-1.4423,-1.5001,0.0,-1.7622,-1.8587,-2.0793,-2.1962,-2.2978,-2.4341,-2.5253,-2.587,-2.5997,-2.6022,-2.59,-2.5471,-2.5387,-2.5446,-2.5661,-2.5474,-2.5398,-2.5669,-2.5454,-2.5303,-2.5303,-2.5649,-2.5707,-2.5322,-2.5548,-2.5501,-2.503,-2.4818,-2.4737,-2.4804,-2.4651,-2.4678,-2.4917,-2.4864,-2.4785,-2.4623,-2.4526,-2.4854,-2.5522,-2.5443,-2.6549,-2.8516,-2.8386,-2.8851,-2.9732,-3.0448,-3.098,-3.1458,-3.2173,-3.2449,-3.2504,-3.2963,-3.2834,-3.2467,-3.2577,-3.254,-3.2375,-3.1912,-3.2065,-3.252,-3.2828,-3.2488,-3.2258,-3.3471,-3.2812,-3.1678,-3.1384,-3.1228,-3.0808,-2.9588,-3.1024,-3.2235,-3.0697,-3.1703,-3.2842,-3.2695,-3.2942,-3.3401,-3.4053,-3.4037,-3.3612,-3.2565,-3.2689,-3.2429,-3.1141,-3.1667,-3.1851,-3.1071,-3.127,-3.1353,-3.0994,-3.0968,-3.0814,-3.0417,-3.0398,-3.0237,-2.9833,-2.9025,-2.8179,-2.7332,-2.5986,-2.5303,-2.5303,-2.533,-2.5337,-2.5337,-2.5368,-2.5413,0.0,0.0,-1.3826,-1.4785,-1.5602,-1.661,0.0,0.0,-2.1531,0.0,-2.3629,-2.3964,-2.4617,-2.4969,-2.513,-2.5103,-2.5081,-2.4976,-2.4707,-2.5034,-2.5207,-2.5024,-2.5168,-2.5303,-2.5303,-2.5303,-2.5207,-2.5005,-2.5048,-2.4862,-2.434,-2.4467,-2.4498,-2.4354,-2.4299,-2.4476,-2.4872,-2.462,-2.4495,-2.4495,-2.4444,-2.4653,-2.5109,-2.5109,-2.5841,-2.72,-2.7622,-2.8594,-2.9916,-3.0118,-3.0558,-3.1109,-3.1311,-3.1384,-3.1458,-3.2063,-3.1916,-3.1458,-3.1861,-3.1653,-3.1151,-3.0889,-3.0785,-3.0864,-3.1274,-3.0827,-3.0533,-3.2125,-3.1721,-3.0693,-3.0295,-3.021,-2.9996,-2.9195,-3.0526,-3.1768,-3.093,-3.1336,-3.2185,-3.3203,-3.3241,-3.307,-3.3013,-3.3052,-3.2642,-3.132,-3.1684,-3.1703,-3.0655,-3.1272,-3.1546,-3.0929,-3.1257,-3.1276,-3.067,-3.0817,-3.0772,-3.0417,-3.0398,-3.0398,-3.0398,-2.9371,-2.8494,-2.7846,-2.6158,-2.5303,-2.5303,-2.5303,-2.5303,-2.5303,-2.5303,-2.534,0.0,-1.4129,0.0,-1.2697,-1.4223,0.0,0.0,0.0,-2.045,-2.143,-2.2293,-2.2879,-2.2936,-2.3599,-2.4182,-2.4256,-2.4215,-2.3888,-2.3052,-2.4293,-2.5024,-2.4245,-2.4832,-2.5303,-2.5303,-2.5303,-2.4986,-2.4225,-2.4861,-2.4441,-2.2533,-2.3922,-2.4251,-2.3143,-2.3985,-2.4495,-2.4545,-2.4512,-2.4495,-2.4495,-2.4303,-2.4227,-2.4263,-2.4263,-2.4722,-2.5623,-2.7126,-2.8282,-2.9104,-2.9898,-3.0228,-3.0338,-3.1091,-3.1384,-3.1403,-3.1439,-3.1421,-3.1292,-3.0577,-3.0472,-3.0454,-2.9457,-2.9112,-2.9137,-2.9177,-2.9137,-2.9125,-2.9217,-2.9186,-2.9113,-2.9095,-2.9093,-2.9067,-2.9012,-2.9108,-3.0179,-3.3667,-3.26,-3.145,-3.3072,-3.2789,-3.2184,-3.1942,-3.1486,-3.1035,-3.0706,-3.0208,-3.0108,-3.0807,-3.0261,-3.0429,-3.1939,-3.2128,-3.1915,-3.1291,-3.1939,-3.1824,-3.0494,-3.0398,-3.0398,-3.0398,-2.8832,-2.7854,-2.7612,-2.6085,-2.5303,-2.5303,-2.5303,-2.5303,-2.5303,-2.5303,-2.5313,0.0,0.0,0.0,-1.3525,-1.3886,-1.4431,-1.5339,-1.6574,-1.7965,-1.9456,-2.054,-2.135,-2.187,-2.2705,-2.3323,-2.3292,-2.3315,-2.3211,-2.2849,-2.3312,-2.3581,-2.3302,-2.3524,-2.3697,-2.3697,-2.3697,-2.3581,-2.3302,-2.3399,-2.3157,-2.2337,-2.3232,-2.3549,-2.3015,-2.3861,-2.4303,-2.4303,-2.4445,-2.4445,-2.4303,-2.4228,-2.419,-2.419,-2.419,-2.4924,-2.619,-2.6778,-2.7493,-2.8282,-2.9108,-2.9439,-2.9475,-2.9751,-2.9861,-2.9934,-3.0448,-3.0301,-2.9898,-3.0118,-2.9916,-2.9512,-2.9127,-2.8767,-2.8551,-2.8905,-2.8681,-2.8497,-2.9491,-2.9062,-2.8443,-2.9202,-2.9787,-3.0418,-3.1151,-3.0112,-2.9674,-3.2066,-3.2275,-3.2011,-3.2094,-3.2317,-3.2103,-3.0974,-3.077,-3.0541,-2.9915,-2.9758,-2.9979,-3.079,-3.0996,-3.1125,-3.1337,-3.171,-3.171,-3.1085,-3.095,-3.0924,-3.0963,-3.0606,-3.0398,-3.0398,-2.9833,-2.8898,-2.7618,-2.7058,-2.624,-2.5099,-2.5243,-2.5303,-2.5303,-2.5303,-2.5303,-1.3774,0.0,0.0,0.0,0.0,-1.3636,-1.4389,-1.5073,-1.6007,-1.7539,-1.8453,-1.9204,-2.0041,-2.073,-2.1422,-2.2233,-2.2404,-2.233,-2.2021,-2.2447,-2.2677,-2.2389,-2.262,-2.2793,-2.2793,-2.2793,-2.2677,-2.2389,-2.2518,-2.2269,-2.1501,-2.2618,-2.3201,-2.3015,-2.3786,-2.4061,-2.3804,-2.4192,-2.4321,-2.419,-2.419,-2.419,-2.419,-2.419,-2.4777,-2.5823,-2.6374,-2.7218,-2.8246,-2.8796,-2.8929,-2.8815,-2.8952,-2.8929,-2.887,-2.9557,-2.9368,-2.8888,-2.9399,-2.9162,-2.8626,-2.8626,-2.8386,-2.8183,-2.8533,-2.8281,-2.8116,-2.914,-2.8676,-2.806,-2.8837,-2.9448,-3.016,-3.1157,-3.0072,-2.9089,-3.0173,-3.1126,-3.1641,-3.1091,-3.1439,-3.1384,-3.0044,-3.0171,-3.0194,-2.9397,-2.9841,-3.0446,-3.0988,-3.1176,-3.1206,-3.108,-3.1195,-3.1027,-3.0452,-3.0279,-3.0395,-3.0841,-3.0494,-3.0311,-3.0398,-3.0121,-2.9193,-2.7537,-2.7273,-2.639,-2.4831,-2.5077,-2.5224,-2.5303,-2.5303,-2.5303,0.0,0.0,0.0,0.0,0.0,0.0,-1.2425,0.0,-1.4775,-1.5761,-1.6143,-1.654,-1.7396,-1.7639,-1.8504,-2.0985,-2.1408,-2.1158,-2.0408,-2.1696,-2.2408,-2.1562,-2.2216,-2.2735,-2.2735,-2.2735,-2.237,-2.1523,-2.2235,-2.1867,-1.9908,-2.2122,-2.3307,-2.2997,-2.3786,-2.3823,-2.3052,-2.3786,-2.4171,-2.419,-2.4171,-2.4171,-2.419,-2.419,-2.4208,-2.4318,-2.5897,-2.7475,-2.892,-2.8938,-2.8737,-2.841,-2.8821,-2.8749,-2.8471,-2.8863,-2.8749,-2.8402,-2.8384,-2.8166,-2.788,-2.7897,-2.788,-2.788,-2.7897,-2.7897,-2.7869,-2.7897,-2.7897,-2.7886,-2.7922,-2.795,-2.8081,-2.8859,-2.8719,-2.8412,-2.8394,-2.9325,-3.0131,-3.0173,-3.0173,-2.9953,-2.9122,-2.9659,-2.9916,-2.914,-3.0356,-3.1366,-3.1421,-3.0723,-3.0522,-3.1311,-3.0687,-2.9996,-2.9465,-3.0118,-3.0414,-3.003,-3.0018,-3.0122,-3.0367,-2.9583,-2.8549,-2.7324,-2.6654,-2.5736,-2.4512,-2.4831,-2.5088,-2.5293,-2.5303,-2.5284,-1.3542,0.0,0.0,0.0,0.0,0.0,-1.3684,0.0,-1.4474,-1.4908,-1.5478,-1.6092,-1.6573,-1.7202,-1.7872,-1.8631,-1.928,-1.9831,-2.0235,-2.0696,-2.0908,-2.0658,-2.085,-2.0985,-2.0985,-2.0985,-2.0889,-2.0658,-2.0725,-2.0488,-1.9821,-2.1361,-2.2493,-2.2978,-2.3786,-2.408,-2.3878,-2.3511,-2.3621,-2.419,-2.3621,-2.3639,-2.419,-2.419,-2.452,-2.509,-2.5529,-2.63,-2.7306,-2.7881,-2.8077,-2.7976,-2.8098,-2.842,-2.8839,-2.8952,-2.8929,-2.8718,-2.8005,-2.7681,-2.7647,-2.783,-2.749,-2.7143,-2.7741,-2.75,-2.7147,-2.7754,-2.747,-2.7373,-2.8766,-2.8694,-2.853,-2.9611,-2.9337,-2.8696,-2.8144,-2.8308,-2.8684,-2.9234,-2.9806,-2.9953,-2.9122,-2.9177,-2.9457,-2.9824,-3.0246,-3.0944,-3.2118,-3.1568,-3.1146,-3.1366,-3.0687,-3.0123,-2.9996,-2.9826,-2.9939,-3.0414,-3.0151,-3.0028,-3.0122,-3.0068,-2.925,-2.7551,-2.7182,-2.6265,-2.4716,-2.4814,-2.4883,-2.4936,-2.503,-2.5088,0.0,0.0,0.0,0.0,0.0,0.0,-1.4119,-1.389,-1.36,-1.3505,-1.4117,-1.4648,-1.4521,-1.5442,-1.6384,-1.6919,-1.7393,-1.8067,-1.9073,-1.9523,-1.9754,-1.9754,-2.0081,-2.0277,-2.0169,-2.0241,-2.0269,-2.0169,-2.0133,-2.0174,-2.0281,-2.0923,-2.1473,-2.1933,-2.2758,-2.3015,-2.2666,-2.2887,-2.3254,-2.3694,-2.3566,-2.3749,-2.419,-2.419,-2.4447,-2.4925,-2.5256,-2.5474,-2.5695,-2.6816,-2.7392,-2.7601,-2.8112,-2.8481,-2.8773,-2.8929,-2.8887,-2.867,-2.8077,-2.7665,-2.7444,-2.759,-2.7226,-2.6779,-2.7265,-2.7051,-2.6808,-2.7272,-2.7051,-2.7029,-2.8459,-2.8287,-2.7942,-2.8947,-2.8722,-2.8163,-2.7754,-2.7783,-2.8065,-2.8633,-2.9113,-2.9345,-2.9067,-2.9292,-2.9549,-2.9696,-3.0265,-3.0925,-3.1531,-3.1182,-3.0889,-3.0889,-3.0173,-2.9714,-2.9714,-2.9414,-2.9493,-3.0062,-2.9889,-2.9829,-2.9999,-3.015,-2.9398,-2.7637,-2.7414,-2.6384,-2.4561,-2.4623,-2.4716,-2.4804,-2.4943,-2.5201,0.0,0.0,0.0,0.0,0.0,0.0,-1.4026,-1.3453,-1.2706,-1.2243,-1.2713,-1.3004,-1.2367,-1.3387,-1.4637,-1.5668,-1.581,-1.6222,-1.7521,-1.8376,-1.8857,-1.8857,-1.9619,-2.0079,-1.9907,-2.0139,-2.0233,-2.006,-2.0188,-2.0432,-2.0822,-2.0645,-2.0517,-2.0503,-2.1345,-2.1418,-2.0649,-2.2025,-2.2776,-2.2887,-2.3584,-2.3969,-2.4061,-2.4153,-2.419,-2.4245,-2.4962,-2.485,-2.4318,-2.5834,-2.6704,-2.7158,-2.8296,-2.8518,-2.8261,-2.8814,-2.8718,-2.8345,-2.8366,-2.7929,-2.7348,-2.7317,-2.7019,-2.6691,-2.6691,-2.6691,-2.6691,-2.6691,-2.6691,-2.686,-2.7621,-2.7317,-2.6996,-2.762,-2.7587,-2.7345,-2.7258,-2.75,-2.788,-2.8219,-2.8298,-2.8489,-2.8863,-2.9538,-2.9795,-2.9214,-3.0356,-3.1035,-3.0411,-3.0265,-3.021,-3.021,-2.9494,-2.8994,-2.8994,-2.8994,-2.9089,-2.9351,-2.9392,-2.9514,-2.9772,-2.9897,-2.9165,-2.7504,-2.7172,-2.6101,-2.4228,-2.4393,-2.4561,-2.4746,-2.4985,-2.5476,0.0,0.0,0.0,0.0,0.0,0.0,-1.404,-1.3864,-1.368,-1.3671,-1.3743,-1.381,-1.3775,-1.4095,-1.4444,-1.4669,-1.4869,-1.5638,-1.7444,-1.7856,-1.7953,-1.7953,-1.8722,-1.9234,-1.9193,-1.9881,-2.0285,-2.0241,-2.0124,-1.9998,-1.9886,-2.0424,-2.0659,-2.0519,-2.1345,-2.1729,-2.1547,-2.118,-2.1345,-2.2024,-2.2189,-2.2611,-2.3272,-2.3896,-2.419,-2.4208,-2.4373,-2.4337,-2.4263,-2.5236,-2.5803,-2.6148,-2.6823,-2.7021,-2.7112,-2.8496,-2.8525,-2.7944,-2.8171,-2.804,-2.7725,-2.7426,-2.7019,-2.6691,-2.6691,-2.6691,-2.6691,-2.6691,-2.6691,-2.686,-2.7621,-2.7671,-2.7603,-2.7755,-2.7741,-2.7521,-2.6944,-2.6873,-2.7051,-2.7439,-2.7794,-2.8102,-2.8446,-2.8667,-2.9014,-2.9831,-3.0228,-3.0613,-3.1091,-3.0595,-3.021,-3.021,-2.9494,-2.8994,-2.8994,-2.8994,-2.9017,-2.9067,-2.9289,-2.9117,-2.8484,-2.9302,-2.8749,-2.6613,-2.5717,-2.5005,-2.4426,-2.4321,-2.4266,-2.434,-2.5342,-2.5552,0.0,0.0,0.0,-1.3671,0.0,0.0,0.0,-1.397,-1.3712,-1.3035,-1.3503,-1.3746,-1.2913,-1.3436,-1.4029,-1.4125,-1.424,-1.4728,-1.5939,-1.6689,-1.7099,-1.7099,-1.7837,-1.8335,-1.8256,-1.9089,-1.9831,-2.0273,-2.0115,-1.9922,-1.972,-2.0028,-2.0111,-1.9913,-2.0317,-2.0554,-2.0554,-2.0519,-2.0721,-2.1161,-2.2006,-2.2611,-2.3033,-2.3823,-2.419,-2.419,-2.419,-2.419,-2.4263,-2.5072,-2.5237,-2.5109,-2.6167,-2.6866,-2.7273,-2.7959,-2.8287,-2.8425,-2.8549,-2.8304,-2.7868,-2.7643,-2.7178,-2.6691,-2.6691,-2.6691,-2.6691,-2.6691,-2.6691,-2.686,-2.7621,-2.7554,-2.7351,-2.7688,-2.7537,-2.7165,-2.6776,-2.6691,-2.6758,-2.6971,-2.7178,-2.75,-2.8047,-2.829,-2.8616,-2.921,-2.9466,-2.9751,-3.0155,-2.9861,-2.9604,-2.9604,-2.9232,-2.8994,-2.8994,-2.8994,-2.8994,-2.8994,-2.9134,-2.9063,-2.876,-2.8858,-2.799,-2.6046,-2.5509,-2.4955,-2.4339,-2.4247,-2.419,-2.4227,-2.5028,-2.5631,0.0,0.0,0.0,0.0,0.0,-1.3915,0.0,0.0,0.0,-1.2361,-1.313,-1.3553,-1.2044,-1.2808,-1.3696,-1.3821,-1.3842,-1.3958,-1.4323,-1.5366,-1.6096,-1.6103,-1.6804,-1.7251,-1.7231,-1.8156,-1.9107,-1.9985,-1.9903,-1.9802,-1.9802,-1.9707,-1.9523,-1.9305,-1.9305,-1.9305,-1.9305,-1.995,-2.0264,-2.0299,-2.1786,-2.2611,-2.2813,-2.3602,-2.4043,-2.419,-2.419,-2.419,-2.4245,-2.4887,-2.4757,-2.426,-2.5784,-2.6759,-2.7328,-2.727,-2.7893,-2.8796,-2.8938,-2.8567,-2.8013,-2.8012,-2.747,-2.6825,-2.6825,-2.6758,-2.6691,-2.6691,-2.6691,-2.6843,-2.7452,-2.7148,-2.6843,-2.7469,-2.7131,-2.6691,-2.6691,-2.6691,-2.6691,-2.6691,-2.6691,-2.6939,-2.7648,-2.8002,-2.8246,-2.8394,-2.8682,-2.8905,-2.8994,-2.8994,-2.8994,-2.8994,-2.8994,-2.8994,-2.8994,-2.8994,-2.8994,-2.8994,-2.8994,-2.9016,-2.9107,-2.8164,-2.7028,-2.5722,-2.5557,-2.5078,-2.4266,-2.4209,-2.419,-2.4209,-2.4725,-2.5752,0.0,0.0,0.0,0.0,-1.3888,0.0,0.0,0.0,-1.3917,-1.3704,0.0,-1.3959,-1.3517,0.0,0.0,-1.3657,-1.3824,-1.3949,-1.3894,-1.4319,-1.4658,-1.4718,-1.5338,-1.5887,-1.6231,-1.7221,-1.8203,-1.9088,-1.9123,-1.9313,-1.9783,-1.9797,-1.9619,-1.9305,-1.9305,-1.9305,-1.9305,-1.9381,-1.9436,-1.9436,-2.0354,-2.1198,-2.1951,-2.2776,-2.3529,-2.419,-2.419,-2.419,-2.4208,-2.43,-2.4107,-2.3886,-2.5063,-2.5605,-2.577,-2.6447,-2.7218,-2.8044,-2.8737,-2.8707,-2.8332,-2.835,-2.7833,-2.7241,-2.7241,-2.6987,-2.6691,-2.6691,-2.6691,-2.6708,-2.6793,-2.6759,-2.6708,-2.681,-2.6759,-2.6691,-2.6691,-2.6691,-2.6691,-2.6691,-2.6691,-2.6841,-2.7303,-2.7409,-2.766,-2.8298,-2.8446,-2.8608,-2.8952,-2.8994,-2.8994,-2.8994,-2.8994,-2.8994,-2.8994,-2.8994,-2.8994,-2.8994,-2.8994,-2.8686,-2.7996,-2.6691,-2.5893,-2.5706,-2.4998,-2.4588,-2.4461,-2.4284,-2.419,-2.4227,-2.5165,-2.5998,0.0,0.0,0.0,0.0,0.0,0.0,-1.4054,0.0,-1.397,-1.3871,0.0,0.0,0.0,0.0,0.0,0.0,-1.3389,-1.3331,-1.3681,-1.3488,-1.3563,-1.4305,-1.4692,-1.5241,-1.6078,-1.6345,-1.6885,-1.7824,-1.796,-1.8023,-1.8048,-1.8704,-1.8945,-1.8717,-1.9111,-1.9305,-1.9305,-1.9305,-1.9305,-1.9323,-2.0629,-2.1437,-2.1839,-2.3125,-2.3878,-2.419,-2.419,-2.419,-2.419,-2.419,-2.3996,-2.375,-2.4239,-2.4972,-2.5925,-2.6738,-2.7662,-2.8539,-2.8865,-2.8735,-2.8385,-2.817,-2.7903,-2.7589,-2.7348,-2.7178,-2.6987,-2.6758,-2.6691,-2.6793,-2.7232,-2.7012,-2.681,-2.7249,-2.7012,-2.6691,-2.6691,-2.6691,-2.6691,-2.6691,-2.6691,-2.6758,-2.6939,-2.7147,-2.7409,-2.7718,-2.7946,-2.8237,-2.8608,-2.8658,-2.8567,-2.8333,-2.8301,-2.8117,-2.7658,-2.8044,-2.8099,-2.7658,-2.7622,-2.7255,-2.6429,-2.6293,-2.578,-2.4857,-2.4968,-2.4801,-2.4339,-2.4247,-2.419,-2.4208,-2.4742,-2.5082,-1.4658,0.0,0.0,0.0,0.0,0.0,0.0,0.0,0.0,0.0,-1.3848,0.0,0.0,0.0,0.0,0.0,0.0,-1.3003,-1.3305,-1.2875,-1.2938,-1.4058,-1.4341,-1.477,-1.5544,-1.5418,-1.5662,-1.6621,-1.6722,-1.6859,-1.7095,-1.7901,-1.8398,-1.8572,-1.9052,-1.9305,-1.9305,-1.9305,-1.9399,-1.9638,-2.0849,-2.1675,-2.2171,-2.3345,-2.3988,-2.419,-2.419,-2.419,-2.419,-2.419,-2.3937,-2.3566,-2.3671,-2.4478,-2.5739,-2.6699,-2.7728,-2.8705,-2.892,-2.8805,-2.8516,-2.8279,-2.8049,-2.784,-2.756,-2.7303,-2.7083,-2.6791,-2.6691,-2.6826,-2.7368,-2.7114,-2.6826,-2.7385,-2.7097,-2.6691,-2.6691,-2.6691,-2.6691,-2.6691,-2.6691,-2.6691,-2.6691,-2.6939,-2.7178,-2.7286,-2.753,-2.7837,-2.8036,-2.8077,-2.7931,-2.7526,-2.7475,-2.7236,-2.6649,-2.7145,-2.7196,-2.6505,-2.6581,-2.6253,-2.5299,-2.5829,-2.5521,-2.4226,-2.4759,-2.4777,-2.419,-2.419,-2.419,-2.419,-2.4339,-2.4538,-1.6314,-1.5782,-1.5278,-1.5569,-1.4798,-1.3991,-1.4145,-1.3939,-1.3713,0.0,0.0,0.0,0.0,0.0,0.0,0.0,0.0,0.0,0.0,-1.2517,-1.292,-1.3798,-1.4149,-1.4271,-1.4172,-1.4336,-1.4774,-1.5584,-1.5472,-1.6104,-1.7774,-1.7903,-1.8324,-1.925,-1.9286,-1.9305,-1.9305,-1.9305,-1.9693,-2.0448,-2.0521,-2.1383,-2.296,-2.2997,-2.3474,-2.419,-2.419,-2.419,-2.419,-2.419,-2.3816,-2.3236,-2.3566,-2.4001,-2.4597,-2.5715,-2.685,-2.7952,-2.8741,-2.8975,-2.8975,-2.8975,-2.8482,-2.7897,-2.7897,-2.7334,-2.6725,-2.6691,-2.6691,-2.6708,-2.6725,-2.6708,-2.6708,-2.6725,-2.6708,-2.6691,-2.6691,-2.6691,-2.6691,-2.6691,-2.6691,-2.6691,-2.6691,-2.6725,-2.6841,-2.7241,-2.7303,-2.7309,-2.7256,-2.7222,-2.7097,-2.668,-2.6649,-2.6631,-2.6612,-2.6631,-2.6487,-2.6144,-2.6548,-2.6247,-2.4956,-2.4942,-2.4729,-2.4208,-2.4226,-2.4226,-2.419,-2.419,-2.419,-2.419,-2.4209,-2.4894,-1.6816,-1.6989,-1.7014,-1.6273,-1.5955,-1.5634,-1.4911,-1.4398,-1.4165,-1.4443,0.0,0.0,0.0,0.0,0.0,0.0,0.0,0.0,0.0,-1.2178,-1.2047,-1.2336,-1.3315,-1.406,-1.4274,-1.4041,-1.3979,-1.425,-1.4212,-1.4467,-1.5144,-1.6369,-1.7339,-1.7969,-1.8841,-1.9305,-1.9305,-1.9822,-2.0244,-2.0503,-2.1621,-2.2447,-2.3033,-2.3547,-2.3933,-2.419,-2.419,-2.419,-2.419,-2.419,-2.3795,-2.3212,-2.3305,-2.346,-2.3803,-2.5481,-2.6832,-2.7915,-2.8723,-2.8994,-2.8994,-2.8994,-2.8633,-2.8183,-2.7982,-2.753,-2.7019,-2.6774,-2.6691,-2.6691,-2.6691,-2.6691,-2.6691,-2.6691,-2.6691,-2.6573,-2.6082,-2.6353,-2.6404,-2.5423,-2.5642,-2.5981,-2.5981,-2.5981,-2.6199,-2.6805,-2.6906,-2.6808,-2.6567,-2.6711,-2.6519,-2.5556,-2.5664,-2.5805,-2.5805,-2.56,-2.5344,-2.4986,-2.4633,-2.4235,-2.3797,-2.3761,-2.37,-2.3544,-2.3544,-2.3649,-2.3876,-2.4091,-2.4192,-2.419,-2.419,-2.4431,-1.7584,-1.7735,-1.7706,-1.6888,-1.6616,-1.6221,-1.5128,-1.462,-1.4442,-1.4689,-1.4368,-1.4309,0.0,0.0,0.0,0.0,0.0,0.0,0.0,-1.1626,-1.1188,-1.1212,-1.2556,-1.3561,-1.3762,-1.3715,-1.3611,-1.3479,-1.3413,-1.3628,-1.4199,-1.5634,-1.6794,-1.7618,-1.879,-1.9512,-1.9711,-2.0304,-2.0876,-2.1401,-2.2571,-2.3216,-2.3437,-2.3951,-2.419,-2.419,-2.419,-2.419,-2.419,-2.419,-2.3876,-2.3369,-2.3253,-2.3259,-2.357,-2.5279,-2.6903,-2.8301,-2.881,-2.8994,-2.8994,-2.8994,-2.8725,-2.8342,-2.7992,-2.7619,-2.721,-2.6808,-2.6691,-2.6691,-2.6691,-2.6691,-2.6691,-2.6691,-2.6691,-2.6488,-2.5761,-2.5981,-2.5947,-2.476,-2.5101,-2.5524,-2.5253,-2.5326,-2.5648,-2.6335,-2.6371,-2.6112,-2.5545,-2.5616,-2.5341,-2.4413,-2.4831,-2.5202,-2.5202,-2.481,-2.4442,-2.4241,-2.3614,-2.3335,-2.3435,-2.3179,-2.3474,-2.4396,-2.3614,-2.3709,-2.4724,-2.4208,-2.3994,-2.4024,-2.4153,-2.4228]},{"header":{"parameterUnit":"m.s-1","parameterCategory":1,"la1":30.6,"la2":29.2853,"lo1":-89.7004,"lo2":-87.6739,"dy":0.0162,"dx":0.0183,"nx":112,"ny":82,"refTime":"2023-09-06T06:00:00:Z","depth":0,"parameterNumber":3,"parameterNumberName":"V-component_of_WINDS"},"data":[0.0,0.0,0.0,0.0,0.0,0.0,0.0,0.0,0.0,0.0,0.0,0.0,0.0,0.0,0.0,0.0,0.0,0.0,0.0,0.0,0.0,0.0,0.0,0.0,0.0,0.0,0.0,0.0,0.0,0.0,0.0,0.0,0.0,0.0,0.0,0.0,0.0,0.0,0.0,0.0,0.0,0.0,0.0,0.0,0.0,0.0,0.0,0.0,0.0,0.0,0.0,0.0,0.0,0.0,0.0,0.0,0.0,0.0,0.0,0.0,0.0,0.0,0.0,0.0,0.0,0.0,0.0,0.0,0.0,0.0,0.0,0.0,0.0,0.0,0.0,0.0,0.0,0.0,0.0,0.0,0.0,0.0,0.0,0.0,0.0,0.0,0.0,0.0,0.0,0.0,-1.0077,-1.2058,-1.3561,-1.4,-1.289,-1.1943,-1.1128,-1.0447,0.0,0.0,0.0,0.0,0.0,0.0,0.0,0.0,0.0,0.0,0.0,0.0,0.0,0.0,0.0,0.0,0.0,0.0,0.0,0.0,0.0,0.0,0.0,0.0,0.0,0.0,0.0,0.0,0.0,0.0,0.0,0.0,0.0,0.0,0.0,0.0,0.0,0.0,0.0,0.0,0.0,0.0,0.0,0.0,0.0,0.0,0.0,0.0,0.0,0.0,0.0,0.0,0.0,0.0,0.0,0.0,0.0,0.0,0.0,0.0,0.0,0.0,0.0,0.0,0.0,0.0,0.0,0.0,0.0,0.0,0.0,0.0,0.0,0.0,0.0,0.0,0.0,0.0,0.0,0.0,0.0,0.0,0.0,0.0,0.0,0.0,0.0,0.0,0.0,0.0,0.0,0.0,0.0,0.0,0.0,0.0,0.0,0.0,0.0,0.0,0.0,0.0,0.0,0.0,-1.0764,-1.2085,-1.2848,-1.3,-1.2358,-1.1176,-1.0627,-1.0964,0.0,0.0,0.0,0.0,0.0,0.0,0.0,0.0,0.0,0.0,0.0,0.0,0.0,0.0,0.0,0.0,0.0,0.0,0.0,0.0,0.0,0.0,0.0,0.0,0.0,0.0,0.0,0.0,0.0,0.0,0.0,0.0,0.0,0.0,0.0,0.0,0.0,0.0,0.0,0.0,0.0,0.0,0.0,0.0,0.0,0.0,0.0,0.0,0.0,0.0,0.0,0.0,0.0,0.0,0.0,0.0,0.0,0.0,0.0,0.0,0.0,0.0,0.0,0.0,0.0,0.0,0.0,0.0,0.0,0.0,0.0,0.0,0.0,0.0,0.0,0.0,0.0,0.0,0.0,0.0,0.0,0.0,0.0,0.0,0.0,0.0,0.0,0.0,0.0,0.0,0.0,0.0,0.0,0.0,0.0,0.0,0.0,0.0,0.0,0.0,0.0,0.0,0.0,-1.0365,-1.1326,-1.1821,-1.2622,-1.2692,-1.1583,-1.0328,-0.9685,-0.9841,-0.8793,0.0,0.0,0.0,0.0,0.0,0.0,0.0,0.0,0.0,0.0,0.0,0.0,0.0,0.0,0.0,0.0,0.0,0.0,0.0,0.0,0.0,0.0,0.0,0.0,0.0,0.0,0.0,0.0,0.0,0.0,0.0,0.0,0.0,0.0,0.0,0.0,0.0,0.0,0.0,0.0,0.0,0.0,0.0,0.0,0.0,0.0,0.0,0.0,0.0,0.0,0.0,0.0,0.0,0.0,0.0,0.0,0.0,0.0,0.0,0.0,0.0,0.0,0.0,0.0,0.0,0.0,0.0,0.0,0.0,0.0,0.0,0.0,0.0,0.0,0.0,0.0,0.0,0.0,0.0,0.0,0.0,0.0,0.0,0.0,0.0,0.0,0.0,0.0,0.0,0.0,0.0,0.0,0.0,0.0,0.0,0.0,0.0,0.0,0.0,0.0,0.0,0.0,-1.0776,-1.1193,-1.1394,-1.2163,-1.21,-1.0692,-0.9736,-0.9107,-0.8962,-0.8366,0.0,0.0,0.0,0.0,0.0,0.0,0.0,0.0,0.0,0.0,0.0,0.0,0.0,0.0,0.0,0.0,0.0,0.0,0.0,0.0,0.0,0.0,0.0,0.0,0.0,0.0,0.0,0.0,0.0,0.0,0.0,0.0,0.0,0.0,0.0,0.0,0.0,0.0,0.0,0.0,0.0,0.0,0.0,0.0,0.0,0.0,0.0,0.0,0.0,0.0,0.0,0.0,0.0,0.0,0.0,0.0,0.0,0.0,0.0,0.0,0.0,0.0,0.0,0.0,0.0,0.0,0.0,0.0,0.0,0.0,0.0,0.0,0.0,0.0,0.0,0.0,0.0,0.0,0.0,0.0,0.0,0.0,0.0,0.0,0.0,0.0,0.0,0.0,0.0,0.0,0.0,0.0,0.0,0.0,0.0,0.0,0.0,0.0,0.0,0.0,0.0,0.0,-0.991,-0.977,-1.0843,-1.1067,-1.0777,-0.9765,-0.9741,-0.9623,-0.9363,-0.9355,0.0,0.0,0.0,0.0,0.0,0.0,0.0,0.0,0.0,0.0,0.0,0.0,0.0,0.0,0.0,0.0,0.0,0.0,0.0,0.0,0.0,0.0,0.0,0.0,0.0,0.0,0.0,0.0,0.0,0.0,0.0,0.0,0.0,0.0,0.0,0.0,0.0,0.0,0.0,0.0,0.0,0.0,0.0,0.0,0.0,0.0,0.0,0.0,0.0,0.0,0.0,0.0,0.0,0.0,0.0,0.0,0.0,0.0,0.0,0.0,0.0,0.0,0.0,0.0,0.0,0.0,0.0,0.0,0.0,0.0,0.0,0.0,0.0,0.0,0.0,0.0,0.0,0.0,0.0,0.0,0.0,0.0,0.0,0.0,0.0,0.0,0.0,0.0,0.0,0.0,0.0,0.0,0.0,0.0,0.0,0.0,0.0,0.0,0.0,0.0,0.0,0.0,-0.9508,-0.909,-0.926,-0.9595,-0.9433,-0.8491,-0.8231,-0.8381,-0.8994,0.0,0.0,0.0,0.0,0.0,0.0,0.0,0.0,0.0,0.0,0.0,0.0,0.0,0.0,0.0,0.0,0.0,0.0,0.0,0.0,0.0,0.0,0.0,0.0,0.0,0.0,0.0,0.0,0.0,0.0,0.0,0.0,0.0,0.0,0.0,0.0,0.0,0.0,0.0,0.0,0.0,0.0,0.0,0.0,0.0,0.0,0.0,0.0,0.0,0.0,0.0,0.0,0.0,0.0,0.0,0.0,0.0,0.0,0.0,0.0,0.0,0.0,0.0,0.0,0.0,0.0,0.0,0.0,0.0,0.0,0.0,0.0,0.0,0.0,0.0,0.0,0.0,0.0,0.0,0.0,0.0,0.0,0.0,0.0,0.0,0.0,0.0,0.0,0.0,0.0,0.0,0.0,0.0,0.0,0.0,0.0,0.0,0.0,0.0,0.0,0.0,0.0,-0.9552,-0.8842,-0.8136,-0.7908,-0.8244,-0.8149,-0.7359,-0.7204,-0.7569,-0.8572,0.0,0.0,0.0,0.0,0.0,0.0,0.0,0.0,0.0,0.0,0.0,0.0,0.0,0.0,0.0,0.0,0.0,0.0,0.0,0.0,0.0,0.0,0.0,0.0,0.0,0.0,0.0,0.0,0.0,0.0,0.0,0.0,0.0,0.0,0.0,0.0,0.0,0.0,0.0,0.0,0.0,0.0,0.0,0.0,0.0,0.0,0.0,0.0,0.0,0.0,0.0,0.0,0.0,0.0,0.0,0.0,0.0,0.0,0.0,0.0,0.0,0.0,0.0,0.0,0.0,0.0,0.0,0.0,0.0,0.0,0.0,0.0,0.0,0.0,0.0,0.0,0.0,0.0,0.0,0.0,0.0,0.0,0.0,0.0,0.0,0.0,0.0,0.0,0.0,0.0,0.0,0.0,0.0,0.0,0.0,0.0,0.0,0.0,0.0,0.0,0.0,0.0,-0.8989,-0.7798,-0.6847,-0.6976,-0.7047,-0.6895,-0.6436,-0.6884,-0.7501,0.0,0.0,0.0,0.0,0.0,0.0,0.0,0.0,0.0,0.0,0.0,0.0,0.0,0.0,0.0,0.0,0.0,0.0,0.0,0.0,0.0,0.0,0.0,0.0,0.0,0.0,0.0,0.0,0.0,0.0,0.0,0.0,0.0,0.0,0.0,0.0,0.0,0.0,0.0,0.0,0.0,0.0,0.0,0.0,0.0,0.0,0.0,0.0,0.0,0.0,0.0,0.0,0.0,0.0,0.0,0.0,0.0,0.0,0.0,0.0,0.0,0.0,0.0,0.0,0.0,0.0,0.0,0.0,0.0,0.0,0.0,0.0,0.0,0.0,0.0,0.0,0.0,0.0,0.0,0.0,0.0,0.0,0.0,0.0,0.0,0.0,0.0,0.0,0.0,0.0,0.0,0.0,0.0,0.0,0.0,0.0,0.0,0.0,0.0,0.0,0.0,0.0,0.0,-0.8694,-0.7125,-0.594,-0.6146,-0.616,-0.6127,-0.5982,-0.6117,-0.6976,-0.8762,0.0,0.0,0.0,0.0,0.0,0.0,0.0,0.0,0.0,0.0,0.0,0.0,0.0,0.0,0.0,0.0,0.0,0.0,0.0,0.0,0.0,0.0,0.0,0.0,0.0,0.0,0.0,0.0,0.0,0.0,0.0,0.0,0.0,0.0,0.0,0.0,0.0,0.0,0.0,0.0,0.0,0.0,0.0,0.0,0.0,0.0,0.0,0.0,0.0,0.0,0.0,0.0,0.0,0.0,0.0,0.0,0.0,0.0,0.0,0.0,0.0,0.0,0.0,0.0,0.0,0.0,0.0,0.0,0.0,0.0,0.0,0.0,0.0,0.0,0.0,0.0,0.0,0.0,0.0,0.0,0.0,0.0,0.0,0.0,0.0,0.0,0.0,0.0,0.0,0.0,0.0,0.0,0.0,0.0,0.0,0.0,0.0,0.0,0.0,0.0,0.0,0.0,-0.8398,-0.6821,-0.568,-0.5783,-0.5621,-0.5528,-0.5528,-0.5528,-0.6261,-0.7976,0.0,0.0,0.0,0.0,0.0,0.0,0.0,0.0,0.0,0.0,0.0,0.0,0.0,0.0,0.0,0.0,0.0,0.0,0.0,0.0,0.0,0.0,0.0,0.0,0.0,0.0,0.0,0.0,0.0,0.0,0.0,0.0,0.0,0.0,0.0,0.0,0.0,0.0,0.0,0.0,0.0,0.0,0.0,0.0,0.0,0.0,0.0,0.0,0.0,0.0,0.0,0.0,0.0,0.0,0.0,0.0,0.0,0.0,0.0,0.0,0.0,0.0,0.0,0.0,0.0,0.0,0.0,0.0,0.0,0.0,0.0,0.0,0.0,0.0,0.0,0.0,0.0,0.0,0.0,0.0,0.0,0.0,0.0,0.0,0.0,0.0,0.0,0.0,0.0,0.0,0.0,0.0,0.0,0.0,0.0,0.0,0.0,0.0,0.0,0.0,0.0,0.0,-0.8137,-0.6833,-0.5831,-0.5809,-0.5407,-0.5156,-0.5117,-0.5108,-0.5527,-0.6538,0.0,0.0,0.0,0.0,0.0,0.0,0.0,0.0,0.0,0.0,0.0,0.0,0.0,0.0,0.0,0.0,0.0,0.0,0.0,0.0,0.0,0.0,0.0,0.0,0.0,0.0,0.0,0.0,0.0,0.0,0.0,0.0,0.0,0.0,0.0,0.0,0.0,0.0,0.0,0.0,0.0,0.0,0.0,0.0,0.0,0.0,0.0,0.0,0.0,0.0,0.0,0.0,0.0,0.0,0.0,0.0,0.0,0.0,0.0,0.0,-0.3014,-0.3139,0.0,0.0,0.0,0.0,0.0,0.0,0.0,0.0,0.0,0.0,0.0,0.0,0.0,0.0,0.0,0.0,0.0,0.0,0.0,0.0,0.0,0.0,0.0,0.0,0.0,0.0,0.0,0.0,0.0,0.0,0.0,0.0,0.0,0.0,0.0,0.0,0.0,0.0,0.0,0.0,-0.8264,-0.7125,-0.6153,-0.5837,-0.5713,-0.5498,-0.5137,-0.5108,-0.5552,-0.6604,-0.6799,0.0,0.0,0.0,0.0,0.0,0.0,0.0,0.0,0.0,0.0,0.0,0.0,0.0,0.0,0.0,0.0,0.0,0.0,0.0,0.0,0.0,0.0,0.0,0.0,0.0,0.0,0.0,0.0,0.0,0.0,0.0,0.0,0.0,0.0,0.0,0.0,0.0,0.0,0.0,0.0,0.0,0.0,0.0,0.0,0.0,0.0,0.0,0.0,0.0,0.0,0.0,0.0,0.0,0.0,0.0,0.0,0.0,0.0,0.0,-0.3003,-0.3083,0.0,0.0,0.0,0.0,0.0,0.0,0.0,0.0,0.0,0.0,0.0,0.0,0.0,0.0,0.0,0.0,0.0,0.0,0.0,0.0,0.0,0.0,0.0,0.0,0.0,0.0,0.0,0.0,0.0,0.0,0.0,0.0,0.0,0.0,0.0,0.0,0.0,0.0,0.0,0.0,-0.8498,-0.7471,-0.6566,-0.6133,-0.6073,-0.5812,-0.5156,-0.5302,-0.558,-0.5916,-0.6356,0.0,0.0,0.0,0.0,0.0,0.0,0.0,0.0,0.0,0.0,0.0,0.0,0.0,0.0,0.0,0.0,0.0,0.0,0.0,0.0,0.0,0.0,0.0,0.0,0.0,0.0,0.0,0.0,0.0,0.0,0.0,0.0,0.0,0.0,0.0,0.0,0.0,0.0,0.0,0.0,0.0,0.0,0.0,0.0,0.0,0.0,0.0,0.0,0.0,0.0,0.0,0.0,0.0,-0.3448,-0.3371,-0.3103,-0.3103,-0.3214,-0.3329,-0.3307,-0.3331,-0.3348,-0.3028,0.0,0.0,0.0,0.0,0.0,0.0,0.0,0.0,0.0,0.0,0.0,0.0,0.0,0.0,0.0,0.0,0.0,0.0,0.0,0.0,0.0,0.0,-0.8058,-0.8664,-0.8875,-0.8701,-0.7871,0.0,0.0,0.0,0.0,0.0,0.0,0.0,0.0,0.0,0.0,0.0,-0.853,-0.7741,-0.7026,-0.6559,-0.6522,-0.6197,-0.5398,-0.5615,-0.5646,-0.5273,-0.589,-0.6347,0.0,0.0,0.0,0.0,0.0,0.0,0.0,0.0,0.0,0.0,0.0,0.0,0.0,0.0,0.0,0.0,0.0,0.0,0.0,0.0,0.0,0.0,0.0,0.0,0.0,0.0,0.0,0.0,0.0,0.0,0.0,0.0,-0.3131,-0.3666,0.0,0.0,0.0,0.0,0.0,0.0,0.0,0.0,0.0,0.0,0.0,0.0,0.0,-0.3395,-0.4135,-0.394,-0.4143,-0.465,-0.467,-0.4555,-0.4265,-0.4265,-0.431,-0.4287,-0.3897,0.0,-0.3901,-0.318,0.0,0.0,0.0,0.0,0.0,0.0,0.0,0.0,0.0,0.0,0.0,0.0,0.0,0.0,0.0,0.0,0.0,0.0,0.0,0.0,0.0,0.0,-0.9945,-1.0031,-0.9789,-0.9462,-0.9346,-0.9106,-0.8694,-0.7872,-0.8061,-0.8288,0.0,0.0,0.0,0.0,0.0,0.0,-0.7804,-0.7661,-0.7472,-0.7042,-0.6992,-0.681,-0.6279,-0.5957,-0.5837,-0.5872,-0.5519,-0.5538,-0.6072,-0.6108,0.0,0.0,0.0,0.0,0.0,0.0,0.0,0.0,0.0,0.0,0.0,0.0,0.0,0.0,0.0,0.0,0.0,0.0,0.0,0.0,0.0,0.0,0.0,0.0,0.0,0.0,0.0,0.0,0.0,-0.2887,-0.3423,-0.3901,-0.349,-0.2974,0.0,0.0,0.0,0.0,0.0,0.0,0.0,0.0,0.0,-0.3562,-0.3765,-0.4182,-0.4935,-0.4813,-0.4911,-0.5169,-0.5169,-0.5053,-0.4836,-0.4755,-0.467,-0.4582,-0.432,-0.4257,-0.4281,-0.3681,-0.356,-0.3795,0.0,0.0,0.0,0.0,-0.3406,-0.3449,-0.3629,-0.4514,-0.5514,-0.5385,0.0,0.0,0.0,0.0,0.0,0.0,0.0,-0.7208,-0.7499,-0.8677,-0.9891,-1.0027,-1.0136,-1.0108,-0.9836,-0.9392,-0.8939,-0.8566,-0.8944,-0.9244,-0.8988,-0.8839,0.0,0.0,0.0,-0.8412,-0.7788,-0.7694,-0.7453,-0.6827,-0.7156,-0.7168,-0.6465,-0.624,-0.6091,-0.6004,-0.5434,-0.5526,-0.6464,-0.6502,-0.7137,0.0,0.0,0.0,0.0,0.0,0.0,0.0,0.0,0.0,0.0,0.0,0.0,0.0,0.0,0.0,0.0,0.0,0.0,0.0,0.0,0.0,0.0,0.0,0.0,0.0,0.0,0.0,0.0,-0.3074,-0.3622,-0.3875,-0.3655,-0.3123,0.0,0.0,0.0,0.0,0.0,0.0,-0.2265,-0.2938,-0.3459,-0.3928,-0.4429,-0.5008,-0.5532,-0.5494,-0.5494,-0.5532,-0.5457,-0.5338,-0.5182,-0.5003,-0.4857,-0.4738,-0.4548,-0.4539,-0.4504,-0.4062,-0.3894,-0.4,-0.3985,-0.3825,-0.3602,-0.3746,-0.3634,-0.3465,-0.3718,-0.4558,-0.5524,-0.5477,-0.5987,-0.6632,-0.678,0.0,0.0,0.0,0.0,-0.7102,-0.7711,-0.8766,-0.9763,-1.0077,-1.0267,-1.0258,-0.9926,-0.9486,-0.9071,-0.8827,-0.9197,-0.9553,-0.9471,-0.9219,0.0,-0.9084,-0.8771,-0.8258,-0.7425,-0.7375,-0.7221,-0.672,-0.7195,-0.7338,-0.6771,-0.6616,-0.6411,-0.6133,-0.5473,-0.5602,-0.6727,-0.6986,-0.7323,-0.7808,0.0,0.0,0.0,0.0,0.0,0.0,0.0,0.0,0.0,0.0,0.0,0.0,0.0,0.0,0.0,0.0,0.0,0.0,0.0,0.0,0.0,0.0,0.0,0.0,0.0,0.0,0.0,0.0,0.0,-0.3229,-0.2941,0.0,0.0,0.0,0.0,-0.021,-0.0975,-0.1325,-0.1202,-0.2288,-0.3264,-0.4005,-0.4999,-0.5705,-0.5993,-0.585,-0.585,-0.5993,-0.5711,-0.5498,-0.5408,-0.505,-0.4914,-0.4891,-0.4592,-0.4545,-0.4643,-0.4157,-0.4189,-0.4385,-0.387,-0.3821,-0.404,-0.3846,-0.4136,-0.4628,-0.4788,-0.5018,-0.5391,-0.5977,-0.6676,-0.73,-0.7416,-0.7323,0.0,0.0,-0.7257,-0.8101,-0.8733,-0.9542,-1.0262,-1.0664,-1.0227,-0.9732,-0.9715,-0.9487,-0.8997,-0.8062,-0.798,-0.8227,-0.8692,0.0,-0.8149,-0.7771,-0.7791,-0.741,-0.6152,-0.633,-0.6681,-0.7032,-0.71,-0.7257,-0.7598,-0.7156,-0.6734,-0.6411,-0.5574,-0.5506,-0.6393,-0.7217,-0.7891,-0.8363,-0.7681,0.0,0.0,0.0,0.0,0.0,0.0,0.0,0.0,0.0,0.0,0.0,0.0,0.0,0.0,0.0,0.0,0.0,0.0,0.0,0.0,0.0,0.0,0.0,0.0,0.0,0.0,0.0,0.0,-0.3329,-0.3179,0.0,-0.1373,-0.0917,-0.0622,-0.0435,-0.0991,-0.1526,-0.1998,-0.254,-0.3321,-0.4278,-0.4809,-0.5385,-0.6176,-0.6125,-0.6027,-0.5881,-0.5776,-0.5596,-0.5422,-0.5148,-0.5006,-0.4908,-0.4701,-0.4582,-0.4531,-0.4372,-0.4368,-0.4501,-0.429,-0.4241,-0.4324,-0.4267,-0.4407,-0.4566,-0.4623,-0.4996,-0.5658,-0.6606,-0.6962,-0.7077,-0.7584,-0.7691,-0.7654,-0.7741,-0.8,-0.8345,-0.8754,-0.9416,-0.9969,-1.0136,-0.9981,-0.9699,-0.9531,-0.8941,-0.8227,-0.7702,-0.8072,-0.845,-0.84,-0.7805,-0.7349,-0.7282,-0.7104,-0.6717,-0.5998,-0.6254,-0.6457,-0.6358,-0.6567,-0.6887,-0.7288,-0.6699,-0.6591,-0.7187,-0.6416,-0.6083,-0.6385,-0.6539,-0.6759,-0.709,-0.579,-0.6159,0.0,0.0,0.0,0.0,0.0,0.0,0.0,0.0,0.0,0.0,0.0,0.0,0.0,0.0,0.0,0.0,0.0,0.0,0.0,0.0,0.0,0.0,0.0,0.0,0.0,-0.2854,-0.2923,-0.3257,-0.2946,-0.2236,-0.0876,-0.0759,-0.0633,-0.0425,-0.0974,-0.1399,-0.1644,-0.2131,-0.2771,-0.348,-0.4316,-0.5079,-0.5786,-0.6103,-0.6132,-0.5878,-0.5827,-0.5674,-0.5433,-0.5223,-0.5108,-0.5057,-0.4853,-0.4711,-0.4613,-0.4562,-0.4567,-0.4519,-0.4519,-0.4519,-0.4519,-0.4519,-0.4519,-0.4519,-0.4519,-0.4842,-0.5366,-0.6355,-0.6724,-0.6845,-0.7617,-0.8019,-0.827,-0.8464,-0.8517,-0.8564,-0.8758,-0.9113,-0.9465,-0.9465,-0.9379,-0.9271,-0.8953,-0.831,-0.7682,-0.7375,-0.7744,-0.8136,-0.8136,-0.754,-0.7086,-0.7264,-0.6956,-0.6589,-0.6194,-0.6271,-0.6348,-0.6308,-0.6307,-0.6562,-0.7189,-0.7019,-0.7006,-0.7286,-0.6765,-0.6437,-0.6425,-0.6602,-0.6766,-0.6971,-0.5988,-0.643,-0.8371,0.0,0.0,0.0,0.0,0.0,0.0,0.0,0.0,0.0,0.0,0.0,0.0,0.0,0.0,0.0,0.0,0.0,0.0,0.0,0.0,0.0,0.0,0.0,-0.2995,-0.3535,-0.3417,-0.2911,-0.2132,-0.1463,-0.11,-0.1195,-0.0919,-0.0079,-0.0804,-0.0905,-0.0084,-0.0988,-0.1544,-0.1624,-0.3563,-0.4608,-0.4681,-0.5705,-0.6179,-0.6013,-0.5871,-0.5725,-0.5572,-0.5274,-0.5216,-0.5338,-0.505,-0.4864,-0.4908,-0.4758,-0.4606,-0.4467,-0.4519,-0.4519,-0.4519,-0.4519,-0.4519,-0.4519,-0.4519,-0.4519,-0.4625,-0.5273,-0.5982,-0.6696,-0.745,-0.8209,-0.8752,-0.8804,-0.8804,-0.8804,-0.8804,-0.8804,-0.8804,-0.8804,-0.8591,-0.831,-0.8009,-0.7709,-0.7446,-0.7101,-0.7041,-0.7208,-0.7835,-0.7583,-0.732,-0.753,-0.7341,0.0,-0.6649,-0.6318,-0.6355,-0.7028,-0.6371,-0.6348,-0.7402,-0.8112,-0.7976,-0.6674,-0.6542,-0.6507,-0.6526,-0.7437,-0.7968,-0.7998,-0.8374,-0.836,-0.7927,0.0,0.0,0.0,0.0,0.0,0.0,0.0,0.0,0.0,0.0,0.0,0.0,0.0,0.0,0.0,0.0,0.0,0.0,0.0,0.0,0.0,-0.1035,-0.1459,-0.2827,-0.2035,-0.1379,-0.1689,-0.1658,-0.1281,-0.0395,-0.0323,-0.0248,0.0,-0.0259,-0.0261,0.0,-0.0253,-0.0827,-0.1543,-0.2141,-0.3102,-0.4563,-0.4955,-0.5309,-0.5711,-0.5772,-0.5671,-0.542,-0.5335,-0.526,-0.5125,-0.4402,-0.4385,-0.4854,-0.42,-0.387,-0.3866,-0.4337,-0.4519,-0.4519,-0.4519,-0.4519,-0.4519,-0.4519,-0.4519,-0.4625,-0.5273,-0.5651,-0.6032,-0.7343,-0.783,-0.8103,-0.8646,-0.8804,-0.8804,-0.8804,-0.8804,-0.8804,-0.8804,-0.8744,-0.8611,-0.8317,-0.8183,-0.8044,-0.7736,-0.75,-0.7284,-0.7043,-0.6869,-0.6748,-0.662,-0.6539,-0.6451,-0.6311,-0.6246,-0.629,-0.6633,-0.6527,-0.6615,-0.7181,-0.6949,-0.7315,-0.8526,-0.7105,-0.6584,-0.7413,-0.6724,-0.6118,-0.5704,-0.7381,-0.8236,0.0,0.0,0.0,0.0,0.0,0.0,0.0,0.0,0.0,0.0,0.0,0.0,0.0,0.0,0.0,0.0,0.0,0.0,0.0,0.0,0.0,0.0,-0.0745,-0.1262,-0.2219,-0.1513,-0.1066,-0.1493,-0.1177,-0.0679,-0.0085,0.0,0.0,0.0,0.0,0.0,0.0,0.0,-0.0247,-0.0894,-0.1349,-0.2177,-0.3291,-0.3801,-0.4412,-0.512,-0.5195,-0.5309,-0.5457,-0.5045,-0.4831,-0.457,-0.3721,-0.3535,-0.3882,-0.3319,-0.3112,-0.3098,0.0,0.0,0.0,0.0,-0.4236,-0.4519,-0.4519,-0.4519,-0.457,-0.4948,-0.5273,-0.5647,-0.6519,-0.723,-0.7777,-0.8209,-0.8586,-0.8804,-0.8804,-0.8804,-0.8804,-0.8804,-0.8804,-0.8731,-0.8437,-0.8427,-0.8306,-0.7983,-0.7762,0.0,-0.7191,-0.6949,-0.6758,-0.6679,-0.673,-0.6731,-0.6759,-0.6616,-0.6604,-0.6865,-0.6626,-0.6627,-0.7108,-0.6834,0.0,0.0,0.0,-0.695,-0.7678,-0.6949,0.0,0.0,0.0,-0.8626,-0.8477,-1.0199,0.0,0.0,-1.1376,-1.2192,0.0,0.0,0.0,0.0,0.0,0.0,0.0,0.0,0.0,0.0,0.0,0.0,0.0,0.0,0.0,0.0,0.0148,-0.0162,-0.1294,-0.1393,-0.1489,-0.1603,-0.0626,0.0,0.0,0.0,0.0,0.0,0.0,0.0,0.0,0.0,0.0,0.0,0.0,-0.1488,-0.1561,-0.2499,-0.3467,-0.4497,-0.4497,-0.4829,-0.5378,-0.4591,-0.4044,-0.3816,-0.2945,-0.251,-0.252,-0.2389,-0.2245,-0.2178,-0.3098,-0.2919,-0.2286,-0.301,-0.3735,-0.4405,-0.446,0.0,0.0,-0.4519,-0.4893,-0.5378,-0.5487,-0.6465,-0.7616,-0.767,-0.8215,-0.8804,-0.8804,-0.8804,-0.8804,-0.8804,-0.8804,-0.8738,-0.8477,-0.8424,-0.8343,-0.8083,-0.7954,-0.7944,-0.7948,-0.7527,-0.7173,-0.7292,-0.7374,-0.7468,-0.7468,-0.7199,-0.7103,-0.7368,-0.6787,0.0,-0.7161,-0.7307,-0.7196,-0.6863,-0.719,-0.7416,-0.7471,-0.7548,-0.7968,-0.8827,-0.9196,-0.9122,-0.8553,-0.969,-0.9961,-0.9463,-1.1004,-1.1897,0.0,0.0,0.0,0.0,0.0,0.0,0.0,0.0,0.0,0.0,0.0,0.0,0.0,0.0,0.0,0.0375,0.016,-0.0085,-0.0266,-0.0268,-0.0355,-0.0351,-0.0175,0.0,0.0,0.0,0.0,0.0,0.0,0.0,0.0,0.0,0.0,0.0,-0.0236,-0.0622,-0.1369,-0.1706,-0.2679,-0.4239,-0.4239,0.0,-0.4463,-0.4159,-0.3632,-0.2878,-0.1942,-0.2003,-0.2591,-0.1861,-0.1479,-0.1517,-0.2187,-0.2355,-0.2286,-0.301,-0.34,-0.3622,-0.4294,-0.4519,-0.4519,-0.4519,-0.457,-0.4787,-0.5324,-0.6091,0.0,-0.7509,-0.8215,-0.8804,-0.8804,-0.8804,-0.8804,-0.8804,-0.8804,-0.8791,-0.8738,-0.8724,-0.8704,-0.8651,-0.8436,-0.8294,-0.8286,-0.7796,-0.7445,-0.7464,-0.7276,-0.7087,-0.7087,-0.7036,-0.7121,-0.7372,-0.7321,-0.7267,-0.7367,-0.7194,-0.7264,-0.7624,-0.7485,-0.7215,-0.6803,-0.682,-0.7001,-0.7377,-0.815,-0.846,-0.8349,-0.9213,-0.9634,-0.9671,-1.1128,-1.1816,0.0,0.0,0.0,0.0,0.0,0.0,0.0,0.0,0.0,0.0,0.0,0.1586,0.0,0.0,0.1002,0.0982,0.0425,0.0,0.0,0.0,0.0,0.0,0.0,0.0,0.0,0.0,0.0,0.0,0.0,0.0,0.0,0.0,0.0,0.0,0.0,-0.0234,-0.0616,-0.078,-0.1539,-0.2886,-0.2886,-0.3119,-0.3557,-0.3027,-0.251,-0.1942,-0.1074,-0.0941,-0.1341,-0.086,-0.0647,-0.0689,-0.0999,-0.1304,-0.1733,-0.2499,-0.2997,-0.34,-0.4236,-0.4519,-0.4519,-0.4519,-0.4519,-0.457,-0.4893,-0.5769,-0.6696,-0.702,-0.7937,-0.8804,-0.8804,-0.8804,-0.8804,-0.8804,-0.8804,-0.8804,-0.8804,-0.8804,-0.8699,-0.8321,-0.815,-0.8035,-0.8042,-0.7672,-0.7481,-0.7682,-0.7442,-0.7241,-0.7241,-0.7114,-0.7049,-0.7167,-0.7247,-0.7214,-0.718,-0.7065,-0.714,-0.7412,-0.7307,-0.7059,-0.6828,-0.678,-0.6947,-0.7235,-0.7653,-0.807,-0.8348,-0.8776,-0.9074,-0.9286,-1.0306,-1.097,0.0,0.0,0.0,0.0,0.0,0.0,0.0,0.0,0.1062,0.1512,0.1756,0.1998,0.2335,0.1861,0.1374,0.1313,0.0535,0.0,0.0,0.0,0.0,0.0,0.0,0.0,0.0,0.0,0.0,0.0,0.0,0.0,0.0,0.0,0.0,0.0,0.0,0.0,0.0,0.0,-0.0544,-0.1598,-0.1582,-0.1907,-0.2602,-0.188,-0.137,-0.1006,-0.0337,0.0,0.0,0.0,0.0,0.0,0.0,-0.0353,-0.0962,-0.1731,-0.2453,-0.3176,-0.4015,-0.4405,-0.4519,-0.4519,-0.4519,-0.4519,-0.4519,-0.5386,-0.6421,-0.6534,-0.7563,-0.8646,-0.8752,-0.8804,-0.8804,-0.8804,-0.8804,-0.8804,-0.8804,-0.8699,-0.8427,-0.783,-0.761,-0.7503,-0.7461,-0.7442,-0.7538,-0.7928,-0.7736,-0.752,-0.7585,-0.7314,-0.7118,-0.7167,-0.7167,-0.7167,-0.7118,-0.7027,-0.6979,-0.6979,-0.6979,-0.7012,-0.7085,-0.7092,-0.7268,-0.7548,-0.7661,-0.793,-0.8427,-0.843,-0.855,-0.8724,-0.9275,-0.9909,0.5496,0.5217,0.4304,0.3658,0.1958,0.0425,0.0,0.0,-0.0309,0.0166,0.0258,0.0263,0.0351,0.027,0.0183,0.0184,0.0092,0.0,0.0,0.0,0.0,0.0,0.0,0.0,0.0,0.0,0.0,0.0,0.0,0.0,0.0,0.0,0.0,0.0,0.0,0.0,0.0,0.0,-0.0549,-0.1561,-0.1418,-0.1456,-0.1735,-0.1446,-0.0876,-0.0135,-0.0067,0.0,0.0,0.0,0.0,0.0,0.0,-0.0063,-0.0234,-0.0965,-0.168,-0.2454,-0.3234,-0.3959,-0.4519,-0.4519,-0.4519,-0.4519,-0.4519,-0.5003,-0.576,-0.6421,-0.7182,-0.7996,-0.8646,-0.8804,-0.8804,-0.8804,-0.8804,-0.8804,-0.8804,-0.8262,-0.7777,-0.7723,-0.7154,-0.6704,-0.6709,-0.7259,-0.7816,-0.8247,-0.7887,-0.7592,-0.7836,-0.7607,-0.7553,-0.7792,-0.7799,-0.7701,-0.7454,-0.7167,-0.6979,-0.6979,-0.6979,-0.7131,-0.7425,-0.7438,-0.7596,-0.7876,-0.8136,-0.8353,-0.8427,-0.8637,-0.8644,-0.8424,-0.8524,-0.9062,0.2605,0.2663,0.0,0.0,-0.1182,-0.0845,-0.1484,-0.1318,-0.0857,-0.0179,0.0,0.0,0.0,0.0,0.0,0.0,0.0,0.0,0.0,0.0,0.0,0.0,0.0,0.0,0.0,0.0,0.0,0.0,0.0,0.0,0.0,0.0,0.0,0.0,0.0,0.0,0.0,0.0,-0.0234,-0.0691,-0.0592,-0.0578,-0.064,-0.0548,-0.0337,0.0,0.0,0.0,0.0,0.0,0.0,0.0,0.0,0.0,-0.0118,-0.0828,-0.1271,-0.173,-0.2954,-0.3566,-0.3901,-0.4349,-0.4519,-0.4519,-0.4519,-0.4948,-0.5542,-0.5869,-0.6799,-0.7777,-0.8103,-0.848,-0.8804,-0.8804,-0.848,-0.8156,-0.8156,-0.7563,-0.6907,-0.6509,-0.6171,-0.5959,-0.5941,-0.6213,-0.6617,-0.7248,-0.7745,-0.8081,-0.8158,-0.7919,-0.7763,-0.7913,-0.7913,-0.7863,-0.7737,-0.7602,-0.7511,-0.7511,-0.7514,-0.7575,-0.7713,-0.7298,-0.723,-0.753,-0.7277,-0.7406,-0.7988,-0.81,-0.8311,-0.8624,-0.8624,-0.884,0.0952,0.0,0.0,-0.4199,-0.4033,-0.2876,-0.3166,-0.2592,-0.1569,-0.0283,0.0,0.0,0.0,0.0,0.0,0.0,0.0,0.0,0.0,0.0,0.0,0.0,0.0,0.0,0.0,0.0,0.0,0.0,0.0,0.0,0.0,0.0,0.0,0.0,0.0,0.0,0.0,0.0,0.0,0.0,0.0,0.0,0.0,0.0,0.0,0.0,0.0,0.0,0.0,0.0,0.0,0.0,0.0,0.0,-0.006,-0.0605,-0.094,-0.1285,-0.2399,-0.301,-0.34,-0.4012,-0.4294,-0.4519,-0.4519,-0.4842,-0.5273,-0.5433,-0.6249,-0.7117,-0.7331,-0.7812,-0.8184,-0.8218,-0.7782,-0.7416,-0.7391,-0.6794,-0.6131,-0.5625,-0.5362,-0.5273,-0.5254,-0.5436,-0.574,-0.624,-0.7202,-0.7915,-0.7907,-0.7843,-0.7843,-0.7843,-0.7954,-0.7941,-0.7757,-0.7664,-0.7535,-0.7322,-0.7321,-0.734,-0.7405,-0.6917,-0.6802,-0.708,-0.6758,-0.6996,-0.7723,-0.7883,-0.8262,-0.8804,-0.8804,-0.8804,0.24,0.0,0.0,-0.3207,-0.5479,-0.6373,-0.412,-0.3652,-0.3041,-0.0501,0.0,0.0,0.0,0.0,0.0,0.0,0.0,0.0,0.0,0.0,0.0,0.0,0.0,0.0,0.0,0.0,0.0,0.0,0.0,0.0,0.0,0.0,0.0,0.0,0.0,0.0,0.0,0.0,0.0,0.0,0.0,0.0,0.0,0.0,0.0,0.0,0.0,0.0,0.0,0.0,0.0,0.0,0.0,0.0,0.0,0.0,-0.0461,-0.1118,-0.1174,-0.212,-0.34,-0.3345,-0.3846,-0.4519,-0.4519,-0.4519,-0.468,-0.5324,-0.5538,-0.5751,-0.6436,-0.6645,-0.6684,-0.667,-0.6654,-0.6632,-0.6622,-0.6067,-0.5554,-0.55,-0.5101,-0.4688,-0.4574,-0.5207,-0.5724,-0.5546,-0.6184,-0.6638,-0.6665,-0.7261,-0.7723,-0.7723,-0.8128,-0.8069,-0.7361,-0.7012,-0.6549,-0.5909,-0.5882,-0.5977,-0.6232,-0.6236,-0.6357,-0.6632,-0.7278,-0.7658,-0.7723,-0.8427,-0.8758,-0.8804,-0.8804,-0.8804,-0.0315,0.0,-0.3121,-0.5605,-0.5551,-0.4774,-0.4016,-0.248,-0.0994,-0.0195,0.085,0.1455,0.1136,0.1763,0.207,0.1207,0.0873,0.0532,0.0091,0.0,0.0,0.0,0.0,0.0,0.0,0.0,0.0,0.0,0.0,0.0,0.0,0.0,0.0,0.0,0.0,0.0,0.0,0.0,0.0,0.0,0.0,0.0,0.0,0.0,0.0,0.0,0.0,0.0,0.0,0.0,0.0,0.0,0.0,0.0,-0.0058,-0.0572,-0.0903,-0.1174,-0.1675,-0.2174,-0.2788,-0.379,-0.4294,-0.4519,-0.4519,-0.4519,-0.4574,-0.4787,-0.5156,-0.5579,-0.5788,-0.6239,-0.6578,-0.6602,-0.6201,-0.5869,-0.5892,-0.5307,-0.4886,-0.4941,-0.4732,-0.4589,-0.4609,-0.4786,-0.4919,-0.486,-0.5839,-0.6579,-0.6574,-0.6797,-0.6977,-0.6956,-0.7121,-0.7084,-0.6834,-0.672,-0.6579,-0.6325,-0.6349,-0.6356,-0.6478,-0.6,-0.5756,-0.5855,-0.6136,-0.647,-0.6966,-0.7723,-0.8321,-0.8804,-0.8804,-0.8804,-0.1823,-0.3469,-0.462,-0.6353,-0.5689,-0.4349,-0.3476,-0.1983,-0.0488,0.0558,0.1511,0.2198,0.2231,0.2892,0.3016,0.1761,0.1384,0.1007,0.009,0.0,0.0,0.0,0.0,0.0,0.0,0.0,0.0,0.0,0.0,0.0,0.0,0.0,0.0,0.0,0.0,0.0,0.0,0.0,0.0,0.0,0.0,0.0,0.0,0.0,0.0,0.0,0.0,0.0,0.0,0.0,0.0,0.0,0.0,-0.0181,-0.0463,-0.0902,-0.1284,-0.1563,-0.2063,-0.2417,-0.2839,-0.386,-0.4373,-0.4545,-0.4545,-0.4563,-0.4519,-0.4519,-0.4838,-0.5179,-0.5193,-0.5536,-0.5837,-0.5887,-0.5542,-0.5148,-0.5198,-0.4889,-0.4577,-0.4688,-0.4694,-0.465,-0.4628,-0.4539,-0.4519,-0.4519,-0.5262,-0.5843,-0.5843,-0.6073,-0.6206,-0.6201,-0.6421,-0.649,-0.625,-0.6182,-0.6133,-0.5843,-0.5843,-0.5876,-0.5828,-0.5382,-0.516,-0.5152,-0.5374,-0.5706,-0.6199,-0.7235,-0.7937,-0.8427,-0.8699,-0.8804,-0.2384,-0.4072,-0.457,-0.5556,-0.5847,-0.5191,-0.2645,-0.1921,-0.1116,0.148,0.1986,0.2286,0.0,0.0,0.3036,0.1869,0.169,0.1285,0.0259,0.0175,0.0176,0.0,0.0,0.0,0.0,0.0,0.0,0.0,0.0,0.0,0.0,0.0,0.0,0.0,0.0,0.0,0.0,0.0,0.0,0.0,0.0,0.0,0.0,0.0,0.0,0.0,0.0,0.0,0.0,0.0,0.0,0.0,0.0,-0.0431,-0.1097,-0.1145,-0.162,-0.2293,-0.2293,-0.291,-0.3635,-0.364,-0.4112,-0.4701,-0.4694,-0.4589,-0.4532,-0.4529,-0.4536,-0.4551,-0.4653,-0.4643,-0.4543,-0.4695,-0.4632,-0.4574,-0.4688,-0.4716,-0.4737,-0.4737,-0.4819,-0.4807,-0.4558,-0.4519,-0.4519,-0.4519,-0.4519,-0.4519,-0.4519,-0.5033,-0.5436,-0.5436,-0.6073,-0.6193,-0.5495,-0.5436,-0.5203,-0.4519,-0.4519,-0.4519,-0.4519,-0.4519,-0.4519,-0.4519,-0.5164,-0.5487,-0.5487,-0.6956,-0.767,-0.7723,-0.8427,-0.8752,-0.5551,-0.669,-0.6673,-0.6131,-0.5253,-0.41,-0.2362,-0.0638,0.0867,0.1673,0.3389,0.4608,0.0,0.0,0.0,0.2658,0.2508,0.0,0.1616,0.2239,0.0,0.1564,0.0,0.1077,0.0087,0.0,0.0,0.0,0.0,0.0,0.0,0.0,0.0,0.0,0.0,0.0,0.0,0.0,0.0,0.0,0.0,0.0,0.0,0.0,0.0,0.0,0.0,0.0,0.0,0.0,0.0,0.0,0.0,-0.0486,-0.1302,-0.1758,-0.2493,-0.33,-0.3877,-0.3842,-0.3706,-0.4342,-0.4676,-0.484,-0.4724,-0.4687,-0.4677,-0.464,-0.4656,-0.468,-0.4802,-0.4853,-0.483,-0.4822,-0.4805,-0.4805,-0.486,-0.4876,-0.4868,-0.4868,-0.477,-0.47,-0.4546,-0.4519,-0.4519,-0.4519,-0.4519,-0.4519,-0.4519,-0.4632,-0.4746,-0.4746,-0.4919,-0.4974,-0.4746,-0.4746,-0.4688,-0.4519,-0.4519,-0.4519,-0.4519,-0.4519,-0.4519,-0.4519,-0.5164,-0.5487,-0.5487,-0.6416,-0.7182,-0.7723,-0.7883,-0.8262,-0.6863,-0.7347,-0.6741,-0.5409,-0.4137,-0.2574,-0.0635,0.0775,0.201,0.3371,0.4665,0.0,0.4859,0.5068,0.4752,0.0,0.0,0.0,0.2701,0.3278,0.343,0.0,0.2215,0.0,0.0884,0.0786,0.0608,0.0,0.0,0.0,0.0,0.0,0.0,0.0,0.0,0.0,0.0,0.0,0.0,0.0,0.0,0.0,0.0,0.0,0.0,0.0,0.0,0.0,0.0,0.0,0.0,-0.0064,-0.0443,-0.1057,-0.1889,-0.2653,-0.3387,-0.4118,-0.4231,-0.3991,-0.3729,-0.4713,-0.5013,-0.4992,-0.4887,-0.4843,-0.4763,-0.4799,-0.479,-0.4809,-0.4944,-0.4914,-0.4894,-0.5001,-0.4944,-0.4919,-0.4974,-0.4999,-0.5013,-0.5016,-0.4814,-0.4688,-0.4577,-0.4519,-0.4519,-0.4519,-0.4519,-0.4519,-0.4519,-0.4519,-0.4519,-0.4519,-0.4519,-0.4519,-0.4519,-0.4519,-0.4519,-0.4519,-0.4519,-0.4519,-0.4519,-0.4519,-0.4519,-0.4519,-0.4897,-0.5054,-0.5058,-0.5764,-0.6475,-0.7235,-0.7563,-0.8103,-0.6933,-0.6845,-0.5622,-0.4104,-0.2814,-0.1294,0.1557,0.2008,0.2563,0.5378,0.0,0.5431,0.5328,0.5279,0.4791,0.3364,0.0,0.3542,0.363,0.385,0.3963,0.3862,0.2954,0.22,0.207,0.2027,0.158,0.0538,0.0353,0.0175,0.0,0.0,0.0,0.0,0.0,0.0,0.0,0.0,0.0,0.0,0.0,0.0,0.0,0.0,0.0,0.0,0.0,0.0,0.0,0.0,0.0,-0.0067,-0.0846,-0.1609,-0.2434,-0.3171,-0.3876,-0.4308,-0.3778,-0.3532,-0.3601,-0.4604,-0.4967,-0.496,-0.5048,-0.5043,-0.491,-0.4952,-0.49,-0.4974,-0.5091,-0.5038,-0.5008,-0.5123,-0.5023,-0.4993,-0.511,-0.5119,-0.5074,-0.51,-0.4863,-0.4691,-0.4691,-0.4574,-0.4519,-0.4519,-0.4519,-0.4519,-0.4519,-0.4519,-0.4519,-0.4519,-0.4519,-0.4519,-0.4519,-0.4519,-0.4519,-0.4519,-0.4519,-0.4519,-0.4519,-0.4519,-0.4519,-0.4519,-0.4519,-0.4519,-0.4519,-0.5109,-0.5764,-0.6475,-0.7128,-0.783,-0.6423,-0.6114,-0.5406,-0.2958,-0.2142,-0.1299,0.1531,0.2497,0.0,0.0,0.5933,0.5984,0.5614,0.5197,0.4581,0.3644,0.0,0.4556,0.4797,0.5698,0.6019,0.0,0.5023,0.4508,0.3391,0.3326,0.0,0.0,0.205,0.107,0.0089,0.0,0.0,0.0,0.0,0.0,0.0,0.0,0.0,0.0,0.0,0.0,0.0,0.0,0.0,0.0,0.0,0.0,0.0,0.0,0.0,0.0,-0.0194,-0.0774,-0.1539,-0.1556,-0.2116,-0.2852,-0.2753,-0.269,-0.2885,-0.3893,-0.4191,-0.4317,-0.491,-0.5094,-0.5058,-0.5065,-0.5054,-0.5094,-0.5279,-0.5311,-0.5332,-0.5367,-0.5322,-0.5338,-0.5338,-0.5219,-0.5124,-0.509,-0.4862,-0.4691,-0.4691,-0.4574,-0.4519,-0.4519,-0.4519,-0.4519,-0.4519,-0.4519,-0.4519,-0.4519,-0.4519,-0.4519,-0.4519,-0.4519,-0.4519,-0.4519,-0.4519,-0.4519,-0.4519,-0.4519,-0.4519,-0.4519,-0.4519,-0.4519,-0.4519,-0.4625,-0.5003,-0.5706,-0.5814,-0.6253,-0.462,-0.4442,-0.4438,-0.2518,-0.1442,-0.0247,0.2584,0.0,0.0,0.0,0.6545,0.6255,0.5449,0.5148,0.0,0.4281,0.4365,0.0,0.0,0.0,0.0,0.0,0.5798,0.526,0.0,0.458,0.4283,0.3659,0.3662,0.2847,0.1059,0.0342,0.0,0.0,0.0,0.0,0.0,0.0,0.0,0.0,0.0,0.0,0.0,0.0,0.0,0.0,0.0,0.0,0.0,0.0,0.0,-0.0066,-0.0527,-0.0921,-0.1378,-0.1747,-0.2187,-0.2449,-0.2026,-0.1823,-0.1876,-0.2398,-0.2952,-0.3478,-0.4276,-0.4547,-0.4604,-0.5137,-0.5235,-0.5292,-0.5362,-0.5428,-0.5428,-0.5428,-0.5428,-0.5428,-0.5428,-0.5292,-0.5226,-0.5226,-0.5061,-0.4897,-0.4914,-0.4745,-0.4609,-0.4585,-0.4172,-0.3901,-0.3901,-0.3566,-0.3624,-0.4405,-0.4519,-0.4519,-0.4519,-0.4519,-0.4519,-0.4519,-0.4519,-0.4519,-0.4519,-0.4519,-0.4519,-0.4519,-0.4519,-0.4519,-0.4519,-0.4519,-0.4842,-0.5487,-0.5487,-0.5873,-0.3069,-0.2905,-0.3209,-0.1902,-0.0786,0.0706,0.3454,0.3605,0.0,0.0,0.7014,0.6318,0.539,0.5353,0.5327,0.0,0.4766,0.5079,0.0,0.0,0.0,0.0,0.0,0.0,0.5805,0.5805,0.0,0.4461,0.4977,0.4324,0.1921,0.0671,0.0,0.0,0.0,0.0,0.0,0.0,0.0,0.0,0.0,0.0,0.0,0.0,0.0,0.0,0.0,0.0,0.0,0.0,0.0,-0.0067,-0.0739,-0.1006,-0.1141,-0.1877,-0.205,-0.1889,-0.1265,-0.093,-0.0856,-0.1006,-0.168,-0.2542,-0.3476,-0.3744,-0.3882,-0.4824,-0.509,-0.5156,-0.5359,-0.5428,-0.5428,-0.5428,-0.5428,-0.5428,-0.5428,-0.5226,-0.5093,-0.5093,-0.4794,-0.4522,-0.4517,-0.4336,-0.4139,-0.4164,-0.3532,-0.3065,-0.3065,-0.2565,-0.2676,-0.3904,-0.4125,-0.4236,-0.4291,-0.4405,-0.4519,-0.4519,-0.4519,-0.4519,-0.4519,-0.4519,-0.4519,-0.4519,-0.4519,-0.4519,-0.4519,-0.4519,-0.4787,-0.5269,-0.5269,-0.5601,-0.333,-0.2879,-0.1842,-0.0561,-0.0084,0.0671,0.3271,0.0,0.0,0.6533,0.671,0.6293,0.5911,0.6135,0.618,0.5551,0.5696,0.5949,0.0,0.0,0.0,0.0,0.0,0.0,0.6962,0.6962,0.6871,0.6782,0.5961,0.4372,0.1961,0.0687,0.0,0.0,0.0,0.0,0.0,0.0,0.0,0.0,0.0,0.0,0.0,0.0,0.0,0.0,0.0,0.0,0.0,0.0,0.0,0.0,-0.0067,-0.0135,-0.0135,-0.0202,-0.0269,-0.0201,-0.0135,-0.0137,-0.0069,-0.0136,-0.074,-0.1608,-0.2549,-0.2815,-0.3013,-0.3889,-0.4148,-0.4339,-0.5156,-0.5428,-0.5428,-0.5428,-0.5428,-0.5428,-0.5428,-0.4761,-0.4161,-0.4161,-0.3396,-0.2739,-0.2728,-0.2552,-0.2404,-0.2402,-0.2336,-0.2286,-0.2286,-0.2232,-0.2233,-0.2406,-0.3007,-0.3442,-0.35,-0.4119,-0.4519,-0.4519,-0.4519,-0.4519,-0.4519,-0.4519,-0.4519,-0.4519,-0.4519,-0.4519,-0.4519,-0.4519,-0.4515,-0.457,-0.457,-0.4625,-0.0164,-0.1138,-0.2486,-0.0539,0.0,0.0639,0.3093,0.0,0.3954,0.6424,0.6768,0.6526,0.6314,0.6471,0.6522,0.6178,0.6074,0.0,0.5953,0.0,0.0,0.0,0.6614,0.0,0.0,0.0,0.7139,0.7139,0.5964,0.4538,0.298,0.1769,0.0736,0.0,0.0,0.0,0.0,0.0,0.0,0.0,0.0,0.0,0.0,0.0,0.0,0.0,0.0,0.0,0.0,0.0,0.0,0.0,0.0,0.0,0.0,0.0,0.0,0.0,0.0,0.0,0.0,0.0,-0.0205,-0.0672,-0.161,-0.1877,-0.2076,-0.2952,-0.3215,-0.3407,-0.4342,-0.4951,-0.5428,-0.5428,-0.5428,-0.5236,-0.4651,-0.4239,-0.3828,-0.3288,-0.2915,-0.2621,-0.2621,-0.248,-0.2403,-0.2359,-0.191,-0.153,-0.1557,-0.1152,-0.0858,-0.0898,-0.1952,-0.2837,-0.3277,-0.3669,-0.4009,-0.446,-0.4519,-0.4519,-0.4519,-0.4519,-0.4519,-0.4519,-0.4519,-0.4519,-0.4519,-0.4519,-0.4519,-0.4519,-0.4519,-0.4519,0.1601,0.0158,-0.1694,-0.0333,0.0225,0.0996,0.0,0.0,0.4379,0.6404,0.6799,0.6708,0.6526,0.666,0.6731,0.6631,0.6365,0.6164,0.6149,0.5893,0.0,0.0,0.0,0.6572,0.0,0.6973,0.7095,0.7136,0.6212,0.5175,0.4112,0.3225,0.1851,0.0079,0.0,0.0,0.0,0.0,0.0,0.0,0.0,0.0,0.0,0.0,0.0,0.0,0.0,0.0,0.0,0.0,0.0,0.0,0.0,0.0,0.0,0.0,0.0,0.0,0.0,0.0,0.0,0.0,0.0,-0.0138,-0.0743,-0.094,-0.1074,-0.2016,-0.2684,-0.3213,-0.387,-0.468,-0.5362,-0.5027,-0.496,-0.4767,-0.378,-0.3366,-0.3017,-0.2415,-0.2079,-0.1877,-0.1877,-0.1835,-0.1789,-0.1752,-0.1176,-0.0795,-0.0777,-0.0298,0.0,0.0,-0.0956,-0.184,-0.2561,-0.2894,-0.3287,-0.3793,-0.4015,-0.4181,-0.4125,-0.4349,-0.4519,-0.4519,-0.4519,-0.4519,-0.4519,-0.4519,-0.4519,-0.4519,-0.4519,-0.4519,0.0544,0.0652,0.1276,0.0294,0.0805,0.1866,0.0,0.4113,0.5214,0.6453,0.6793,0.6829,0.6568,0.6774,0.695,0.6808,0.676,0.6608,0.6401,0.6215,0.0,0.0,0.0,0.6302,0.6548,0.6746,0.699,0.7129,0.692,0.6342,0.5108,0.4918,0.3401,0.0081,0.0,0.0,0.0,0.0,0.0,0.0,0.0,0.0,0.0,0.0,0.0,0.0,0.0,0.0,0.0,0.0,0.0,0.0,0.0,0.0,0.0,0.0,0.0,0.0,0.0,0.0,0.0,0.0,0.0,0.0,0.0,0.0,-0.0202,-0.1079,-0.2622,-0.3956,-0.4005,-0.468,-0.516,-0.4228,-0.4028,-0.3761,-0.2887,-0.2012,-0.134,-0.134,-0.0605,0.0,0.0,0.0,0.0,0.0,0.0,0.0,0.0,0.0,0.0,0.0,0.0,-0.0336,-0.1066,-0.1793,-0.224,-0.224,-0.2959,-0.34,-0.3289,-0.407,-0.4519,-0.4519,-0.4519,-0.4519,-0.4519,-0.4519,-0.4519,-0.4519,-0.4519,-0.4519,0.2781,0.2248,0.1871,0.1999,0.2528,0.3317,0.43,0.4878,0.5527,0.6623,0.6963,0.7005,0.6708,0.6823,0.695,0.6756,0.6793,0.6742,0.0,0.0,0.0,0.6336,0.6612,0.6819,0.0,0.0,0.6949,0.6993,0.6759,0.61,0.4991,0.4803,0.3951,0.2214,0.2119,0.1785,0.1071,0.1071,0.0755,0.0,0.0,0.0,0.0,0.0,0.0,0.0,0.0,0.0,0.0,0.0,0.0,0.0,0.0,0.0,0.0,0.0,0.0,0.0,0.0,0.0,0.0,0.0,0.0,0.0,0.0,0.0,-0.0067,-0.0337,-0.1227,-0.2128,-0.2151,-0.2876,-0.348,-0.3215,-0.3084,-0.2889,-0.1952,-0.1478,-0.114,-0.0538,-0.0202,0.0,0.0,0.0,0.0,0.0,0.0,0.0,0.0,0.0,0.0,0.0,0.0,-0.0287,-0.1009,-0.1286,-0.1676,-0.2178,-0.2454,-0.2843,-0.3345,-0.3566,-0.3956,-0.4463,-0.4519,-0.4519,-0.4519,-0.4519,-0.4519,-0.4519,-0.4519,-0.4519,0.0,0.3572,0.3069,0.3203,0.3796,0.0,0.0,0.5667,0.6186,0.6865,0.7083,0.7041,0.6836,0.6999,0.7157,0.7086,0.7084,0.7002,0.0,0.0,0.0,0.6348,0.0,0.0,0.0,0.6946,0.6868,0.6926,0.6647,0.6231,0.5502,0.5384,0.5002,0.4295,0.3484,0.2539,0.1608,0.1517,0.0975,0.0,0.0,0.0,0.0,0.0,0.0,0.0,0.0,0.0,0.0,0.0,0.0,0.0,0.0,0.0,0.0,0.0,0.0,0.0,0.0,0.0,0.0,0.0,0.0,0.0,0.0,0.0,0.0,0.0,-0.0622,-0.1265,-0.1286,-0.2025,-0.2585,-0.2245,-0.2161,-0.1891,-0.1037,-0.0819,-0.0674,-0.0137,0.0,0.0,0.0,0.0,0.0,0.0,0.0,0.0,0.0,0.0,0.0,0.0,0.0,-0.0178,-0.0629,-0.0676,-0.0895,-0.134,-0.1619,-0.2009,-0.251,-0.301,-0.3511,-0.4015,-0.4349,-0.4349,-0.407,-0.379,-0.379,-0.407,-0.407,-0.4236,0.0,0.4742,0.0,0.0,0.0,0.0,0.5691,0.6389,0.0,0.7209,0.7118,0.6985,0.6914,0.7231,0.7548,0.7615,0.7462,0.0,0.0,0.6971,0.0,0.0,0.6439,0.0,0.686,0.6781,0.6759,0.6902,0.663,0.6458,0.6458,0.6332,0.6338,0.6338,0.4201,0.267,0.1797,0.1604,0.1057,0.0151,0.0151,0.0075,0.0,0.0,0.0,0.0,0.0,0.0,0.0,0.0,0.0,0.0,0.0,0.0,0.0,0.0,0.0,0.0,0.0,0.0,0.0,0.0,0.0,0.0,0.0,0.0,0.0,0.0,-0.056,-0.1221,-0.1225,-0.1844,-0.2297,-0.1396,-0.1234,-0.0956,-0.0144,0.0,0.0,0.0,0.0,0.0,0.0,0.0,0.0,0.0,0.0,0.0,0.0,0.0,0.0,0.0,0.0,0.0,0.0,0.0,0.0,0.0,-0.0615,-0.1062,-0.1118,-0.2397,-0.3176,-0.3231,-0.3959,-0.3956,-0.3231,-0.251,-0.2565,-0.3231,-0.3287,-0.368,0.6374,0.0,0.6681,0.632,0.6619,0.7009,0.0,0.7223,0.7356,0.737,0.0,0.7238,0.7027,0.7268,0.7415,0.7137,0.0,0.0,0.7437,0.0,0.0,0.6464,0.677,0.6901,0.6743,0.6678,0.6715,0.6753,0.6478,0.6312,0.6312,0.6278,0.6338,0.6338,0.5651,0.4836,0.3951,0.3927,0.2986,0.1248,0.1248,0.0805,0.0,0.0,0.0,0.0,0.0,0.0,0.0,0.0,0.0,0.0,0.0,0.0,0.0,0.0,0.0,0.0,0.0,0.0,0.0,0.0,0.0,0.0,0.0,0.0,0.0,0.0,-0.014,-0.0288,-0.0273,-0.0473,-0.0546,-0.0349,-0.0279,-0.028,-0.0072,0.0,0.0,0.0,0.0,0.0,0.0,0.0,0.0,0.0,0.0,0.0,0.0,0.0,0.0,0.0,0.0,0.0,0.0,0.0,0.0,0.0,-0.0168,-0.0504,-0.1062,-0.1452,-0.1898,-0.2454,-0.2621,-0.2621,-0.2454,-0.2286,-0.2286,-0.2454,-0.3065,-0.3121,0.699,0.7141,0.7167,0.7196,0.7321,0.7447,0.7482,0.0,0.0,0.0,0.0,0.0,0.0,0.0,0.0,0.0,0.7197,0.0,0.0,0.0,0.6851,0.6512,0.6651,0.68,0.6709,0.6637,0.6597,0.6597,0.6386,0.6338,0.6338,0.6338,0.6338,0.6338,0.6179,0.5673,0.4673,0.4618,0.3836,0.2255,0.1806,0.128,0.0753,0.0221,0.0,0.0,0.0,0.0,0.0,0.0,0.0,0.0,0.0,0.0,0.0,0.0,0.0,0.0,0.0,0.0,0.0,0.0,0.0,0.0,0.0,0.0,0.0,0.0,0.0,0.0,0.0,0.0,0.0,0.0,0.0,0.0,0.0,0.0,0.0,0.0,0.0,0.0,0.0,0.0,0.0,0.0,0.0,0.0,0.0,0.0,0.0,0.0,0.0,0.0,0.0,0.0,0.0,0.0,0.0,-0.0168,-0.056,-0.0895,-0.1452,-0.2174,-0.1842,-0.1675,-0.1675,-0.1341,-0.1341,-0.173,-0.212,-0.2286,0.7233,0.7215,0.7167,0.7461,0.7545,0.7538,0.7648,0.0,0.0,0.0,0.0,0.0,0.0,0.7114,0.0,0.0,0.0,0.0,0.6245,0.6449,0.6577,0.6516,0.6549,0.6566,0.6627,0.6536,0.6471,0.6471,0.6339,0.6338,0.6338,0.6338,0.6338,0.6338,0.6338,0.5867,0.4921,0.482,0.4284,0.3357,0.2503,0.188,0.1566,0.0686,0.0153,0.0,0.0,0.0,0.0,0.0,0.0,0.0,0.0,0.0,0.0,0.0,0.0,0.0,0.0,0.0,0.0,0.0,0.0,0.0,0.0,0.0,0.0,0.0,0.0,0.0,0.0,0.0,0.0,0.0,0.0,0.0,0.0,0.0,0.0,0.0,0.0,0.0,0.0,0.0,0.0,0.0,0.0,0.0,0.0,0.0,0.0,0.0,0.0,0.0,0.0,0.0,0.0,0.0,0.0,0.0,0.0,-0.0616,-0.1229,-0.1842,-0.1229,-0.0951,-0.0951,-0.028,-0.0336,-0.0951,-0.1062,-0.1397,0.7815,0.8005,0.8044,0.8209,0.8167,0.8126,0.8316,0.0,0.0,0.0,0.0,0.0,0.0,0.6695,0.6713,0.0,0.0,0.6906,0.0,0.0,0.7038,0.6569,0.6665,0.6719,0.6363,0.6417,0.6471,0.6471,0.6339,0.6338,0.6338,0.6338,0.6338,0.6338,0.6338,0.6257,0.6025,0.6002,0.5529,0.4453,0.4297,0.3285,0.1565,0.142,0.0826,0.0,0.0,0.0,0.0,0.0,0.0,0.0,0.0,0.0,0.0,0.0,0.0,0.0,0.0,0.0,0.0,0.0,0.0,0.0,0.0,0.0,0.0,0.0,0.0,0.0,0.0,0.0,0.0,0.0,0.0,0.0,0.0,0.0,0.0,0.0,0.0,0.0,0.0,0.0,0.0,0.0,0.0,0.0,0.0,0.0,0.0,0.0,0.0,0.0,0.0,0.0,0.0,0.0,0.0,0.0,0.0,-0.0112,-0.0224,-0.0336,-0.0224,-0.0168,-0.0168,-0.0056,-0.0056,-0.0168,-0.0783,-0.0838,0.7524,0.7866,0.7896,0.712,0.7631,0.8379,0.8638,0.8685,0.0,0.0,0.0,0.0,0.0,0.0,0.6881,0.6048,0.0,0.6664,0.6639,0.6578,0.6533,0.6243,0.6307,0.6396,0.6274,0.6318,0.6359,0.6359,0.6298,0.6338,0.6338,0.6338,0.6338,0.6338,0.6338,0.622,0.6135,0.6135,0.5904,0.5363,0.4825,0.406,0.3142,0.2657,0.2144,0.1641,0.1071,0.0845,0.0784,0.0236,0.0,0.0,0.0,0.0,0.0,0.0,0.0384,0.0861,0.0847,0.1236,0.1643,0.1253,0.1398,0.1459,0.0307,0.0371,0.0718,0.0148,0.0,0.0,0.0,0.0,0.0,0.0,0.0,0.0,0.0,0.0,0.0,0.0,0.0,0.0,0.0,0.0,0.0,0.0,0.0,0.0,0.0,0.0,0.0202,0.0672,0.0262,0.0194,0.0645,0.0248,0.0,0.0,0.0,0.0,0.0,0.0,0.0,0.0,0.0,0.0,0.0,0.0,0.0,0.0,-0.0336,-0.0336,0.7456,0.799,0.8163,0.6909,0.0,0.7719,0.7429,0.7377,0.0,0.0,0.0,0.0,0.0,0.6927,0.0,0.6151,0.6253,0.6419,0.6159,0.6186,0.6173,0.6139,0.6135,0.6152,0.6203,0.624,0.6247,0.621,0.6207,0.6207,0.6207,0.6173,0.6152,0.6152,0.6152,0.6095,0.5976,0.5942,0.5942,0.5976,0.5149,0.4715,0.4443,0.3739,0.3321,0.3046,0.2256,0.1948,0.188,0.1097,0.0706,0.0706,0.0706,0.0706,0.0704,0.0691,0.1234,0.1952,0.1982,0.2377,0.281,0.2422,0.278,0.3054,0.1246,0.1272,0.1786,0.089,0.0653,0.0562,0.0141,0.0,0.0,0.0,0.0,0.0,0.0,0.0,0.0,0.0,0.0,0.0,0.0,0.0,0.0,0.0,0.0,0.0,0.0,0.0,0.0337,0.1207,0.0725,0.0584,0.1225,0.0505,0.0,0.0,0.0,0.0,0.0,0.0,0.0,0.0,0.0,0.0,0.0,0.0,0.0,0.0,0.0,0.0,0.8351,0.9115,0.9776,0.9332,0.765,0.0,0.328,0.2768,0.0,0.2814,0.0,0.0,0.0,0.4765,0.5552,0.6312,0.6372,0.6404,0.6614,0.6654,0.66,0.6458,0.6441,0.6335,0.6071,0.6176,0.62,0.6057,0.6047,0.6047,0.6047,0.5911,0.5833,0.5833,0.5833,0.583,0.5817,0.5688,0.5688,0.5817,0.5745,0.5298,0.4512,0.4415,0.3887,0.312,0.3056,0.2988,0.2968,0.289,0.289,0.289,0.289,0.289,0.2888,0.2884,0.2963,0.2966,0.2961,0.2649,0.2262,0.281,0.3509,0.3971,0.3122,0.2968,0.2962,0.2778,0.269,0.2248,0.0433,0.0,0.0,0.0,0.0,0.0,0.0,0.0,0.0,0.0,0.0,0.0,0.0,0.0,0.0,0.0,0.0,0.0,0.0,0.0,0.0337,0.1207,0.1272,0.1258,0.1291,0.0515,0.0,0.0,0.0,0.0,0.0,0.0,0.0,0.0,0.0,0.0,0.0,0.0,0.0,0.0,0.0,0.0,0.8436,0.8265,0.7491,0.5879,0.5308,0.0,0.0,0.3618,0.2695,0.3481,0.3585,0.0,0.0,0.0,0.5322,0.593,0.6169,0.6298,0.6413,0.6427,0.6335,0.6084,0.6054,0.6047,0.603,0.5996,0.5989,0.6027,0.5942,0.5888,0.5888,0.5833,0.58,0.58,0.58,0.5759,0.5671,0.5616,0.5569,0.5528,0.5623,0.5529,0.5298,0.5405,0.5298,0.5076,0.4411,0.4108,0.4059,0.3357,0.3124,0.3124,0.3124,0.3124,0.3124,0.3124,0.3513,0.4062,0.4062,0.4373,0.4763,0.5002,0.5315,0.547,0.5165,0.4551,0.3816,0.3226,0.2943,0.2571,0.1137,0.0842,0.0696,0.0142,0.0,0.0,0.0,0.0,0.0,0.0,0.0,0.0,0.0,0.0,0.0156,0.0759,0.09,0.096,0.0792,0.1401,0.1927,0.213,0.2165,0.1934,0.1321,0.053,0.0,0.0,0.0,0.0,0.0,0.0,0.0,0.0,0.0,0.0,0.0,0.0,0.0,0.0,0.0,0.0,0.8388,0.7845,0.6632,0.0,0.0,0.0,0.4337,0.3764,0.3233,0.3626,0.3423,0.3487,0.4613,0.0,0.0,0.0,0.6165,0.6207,0.6254,0.6176,0.6037,0.5827,0.58,0.5823,0.5884,0.5837,0.5827,0.5884,0.5793,0.5735,0.5735,0.5688,0.5664,0.5664,0.5664,0.5616,0.5518,0.5518,0.5464,0.5428,0.5467,0.5593,0.5739,0.5888,0.6044,0.619,0.5532,0.5237,0.5157,0.4375,0.4139,0.4139,0.4139,0.4139,0.4139,0.4139,0.4608,0.5237,0.5237,0.5709,0.6338,0.6338,0.6338,0.6264,0.6271,0.5736,0.4913,0.4211,0.3923,0.3613,0.2555,0.2117,0.1701,0.1085,0.0737,0.0522,0.0522,0.023,0.0,0.0,0.0,0.0,0.0,0.0312,0.07,0.1289,0.1812,0.202,0.1896,0.2484,0.2851,0.2689,0.2978,0.2609,0.1407,0.0739,0.0264,0.0,0.0,0.0,0.0,0.0,0.0,0.0,0.0,0.0,0.0,0.0,0.0,0.0,0.0,0.0,0.8332,0.8219,0.7945,0.0,0.0,0.0,0.0595,0.2422,0.3733,0.2223,0.149,0.1541,0.3062,0.3798,0.0,0.6451,0.6288,0.6078,0.6311,0.5989,0.58,0.5796,0.5796,0.5742,0.5603,0.5715,0.5739,0.5599,0.5589,0.5589,0.5589,0.5443,0.5425,0.5425,0.5425,0.5425,0.5425,0.5425,0.5425,0.5428,0.5425,0.544,0.5596,0.5735,0.5884,0.6037,0.6193,0.6338,0.6338,0.6338,0.6338,0.6338,0.6338,0.6338,0.6338,0.6338,0.6338,0.6338,0.6338,0.6338,0.6338,0.6338,0.6338,0.6338,0.6338,0.6335,0.6227,0.6071,0.5922,0.5584,0.4709,0.3839,0.3124,0.3122,0.2345,0.1644,0.1644,0.0784,0.0,0.0,0.0,0.0,0.0,0.0926,0.1632,0.1592,0.2492,0.3142,0.3134,0.2981,0.2832,0.2753,0.348,0.3278,0.1474,0.134,0.0928,0.0065,0.0,0.0,0.0,0.0,0.0,0.0,0.0,0.0,0.0,0.0,0.0,0.0,0.0,0.0,0.7443,0.6045,0.0,0.3358,0.0,0.0,0.0,0.1366,0.0,0.0,0.2128,0.1742,0.3896,0.4064,0.4336,0.5592,0.6233,0.6635,0.6691,0.7163,0.7245,0.6503,0.6419,0.6184,0.5652,0.5532,0.5518,0.5586,0.5491,0.543,0.543,0.5284,0.5199,0.5199,0.5104,0.5098,0.5199,0.5101,0.5155,0.5425,0.525,0.5335,0.5596,0.5735,0.5884,0.6037,0.6193,0.6338,0.6338,0.6338,0.6338,0.6338,0.6338,0.6338,0.6338,0.6338,0.6338,0.6338,0.6338,0.6338,0.6338,0.6338,0.6338,0.6338,0.6338,0.6183,0.6088,0.604,0.5996,0.5889,0.5587,0.5418,0.498,0.3444,0.2784,0.2527,0.2527,0.1635,0.0891,0.0884,0.0451,0.023,0.1007,0.1404,0.2097,0.3402,0.3975,0.4417,0.496,0.4324,0.4019,0.4576,0.4217,0.3816,0.3211,0.2009,0.1182,0.0939,0.031,0.0,0.0,0.0,0.0,0.0,0.0,0.0,0.0,0.0,0.0,0.0,0.0,0.0,0.6666,0.497,0.0,0.1955,0.1557,0.162,0.2116,0.0,0.0,0.0,0.2035,0.1343,0.3476,0.3632,0.3883,0.5289,0.5999,0.6535,0.6869,0.7279,0.738,0.6798,0.6719,0.6374,0.5623,0.5416,0.5372,0.5403,0.5321,0.5243,0.5189,0.5098,0.5047,0.5047,0.4962,0.5081,0.5476,0.5081,0.513,0.5627,0.5217,0.5172,0.5416,0.5623,0.5796,0.5952,0.6166,0.649,0.6872,0.649,0.6338,0.6338,0.6338,0.6567,0.6872,0.6872,0.7176,0.7403,0.7022,0.7126,0.7459,0.7038,0.6883,0.6898,0.6876,0.6496,0.6122,0.6122,0.6078,0.603,0.603,0.6098,0.5854,0.4673,0.3931,0.3573,0.3599,0.2682,0.1878,0.1985,0.1569,0.1366,0.2079,0.2567,0.3267,0.4442,0.5029,0.5454,0.5768,0.5222,0.4836,0.4849,0.4686,0.4284,0.3547,0.2811,0.2244,0.1851,0.1387,0.1051,0.1019,0.0631,0.0448,0.0448,0.0448,0.0448,0.0448,0.0168,0.0,0.0,0.0,0.0,0.5965,0.4595,0.0,0.1899,0.0401,0.0,0.1662,0.2642,0.3147,0.3359,0.0,0.0677,0.2543,0.2843,0.3429,0.5232,0.5597,0.5935,0.6814,0.6854,0.6802,0.682,0.6677,0.6286,0.5453,0.5332,0.5277,0.5125,0.5125,0.5067,0.4925,0.4904,0.4897,0.4897,0.4884,0.5239,0.5967,0.5239,0.5246,0.5992,0.5261,0.4972,0.5181,0.543,0.5724,0.596,0.6321,0.6977,0.7808,0.6915,0.6546,0.6546,0.656,0.7099,0.7931,0.7931,0.8542,0.9145,0.8237,0.8539,0.9154,0.8196,0.797,0.7923,0.7953,0.733,0.657,0.657,0.646,0.6264,0.6162,0.6165,0.6211,0.6276,0.544,0.4693,0.4781,0.3761,0.2861,0.3133,0.3008,0.2935,0.3167,0.4076,0.4766,0.4844,0.5709,0.6149,0.584,0.58,0.5399,0.4241,0.4891,0.4755,0.3078,0.3613,0.3675,0.2867,0.2733,0.2656,0.2512,0.1681,0.1233,0.1174,0.1174,0.1174,0.1174,0.0448,0.0112,0.0112,0.0056,0.0,0.5126,0.4044,0.0,0.0,0.1453,0.1481,0.2044,0.2286,0.2909,0.4601,0.2843,0.1655,0.3864,0.3325,0.3095,0.476,0.5611,0.6395,0.7361,0.7392,0.7379,0.7481,0.6803,0.5982,0.5075,0.5114,0.5121,0.4975,0.5067,0.5067,0.4925,0.4806,0.4741,0.4741,0.4623,0.5011,0.5831,0.5015,0.5081,0.5992,0.5148,0.5114,0.5823,0.5531,0.5964,0.6869,0.7655,0.8045,0.8274,0.829,0.8282,0.83,0.8548,0.877,0.8998,0.8998,0.9145,0.9296,0.9074,0.9103,0.9296,0.9013,0.9008,0.8941,0.8956,0.8803,0.8651,0.8493,0.8523,0.8323,0.7279,0.7244,0.7134,0.6169,0.5719,0.5554,0.5664,0.4701,0.3763,0.3935,0.3368,0.3167,0.4052,0.4459,0.4999,0.5864,0.618,0.6149,0.584,0.58,0.5617,0.5122,0.5292,0.5226,0.4821,0.4284,0.3911,0.3756,0.3087,0.2631,0.2493,0.2281,0.2121,0.1953,0.1952,0.1952,0.1952,0.1229,0.0838,0.0838,0.028,0.0,0.484,0.0,0.0,0.1848,0.0,0.1943,0.2047,0.2523,0.3038,0.3702,0.245,0.172,0.3324,0.3045,0.288,0.4189,0.5029,0.59,0.6838,0.6945,0.6921,0.696,0.6518,0.5868,0.4979,0.4986,0.4969,0.4819,0.4877,0.4857,0.4707,0.4962,0.4914,0.4635,0.5163,0.5542,0.5634,0.5211,0.5258,0.578,0.5292,0.5612,0.6598,0.6561,0.7154,0.8334,0.8364,0.8745,0.9357,0.8964,0.8861,0.905,0.9251,0.9593,1.004,1.004,1.0346,1.0651,1.0196,1.0357,1.0674,1.0201,1.0051,0.9997,1.0014,0.9646,0.9271,0.9246,0.9231,0.9055,0.8154,0.8075,0.8089,0.7183,0.6397,0.5921,0.5983,0.5359,0.4841,0.4997,0.4608,0.446,0.5098,0.5381,0.5607,0.6083,0.6213,0.6125,0.5749,0.5759,0.5688,0.5459,0.5428,0.5428,0.5428,0.4957,0.4659,0.4652,0.4257,0.3916,0.3742,0.3685,0.3401,0.279,0.2732,0.2732,0.2788,0.2009,0.1619,0.1619,0.1229,0.0838,0.5023,0.0,0.3004,0.2218,0.2055,0.0,0.2293,0.3037,0.3522,0.2727,0.2037,0.1719,0.2319,0.2561,0.2859,0.363,0.4354,0.5142,0.6049,0.6028,0.596,0.6168,0.6024,0.56,0.49,0.4863,0.4816,0.4663,0.4674,0.468,0.4688,0.5218,0.5328,0.4901,0.5878,0.6204,0.5706,0.5433,0.5433,0.5706,0.5814,0.6449,0.7485,0.7809,0.8544,0.9597,0.9043,0.9377,1.0355,0.9575,0.9442,0.9638,0.9793,1.0346,1.1087,1.1087,1.162,1.2144,1.1261,1.1501,1.2057,1.1163,1.0908,1.098,1.0899,1.038,0.9787,0.9755,0.9782,0.9596,0.899,0.892,0.8832,0.8318,0.7275,0.6345,0.6236,0.5871,0.5688,0.5922,0.5871,0.593,0.6261,0.6304,0.6252,0.6271,0.6266,0.6037,0.564,0.5691,0.5671,0.5426,0.5466,0.5466,0.5466,0.5466,0.5456,0.5428,0.5428,0.5291,0.5138,0.4996,0.4489,0.366,0.3522,0.3511,0.3566,0.2788,0.2397,0.2397,0.2286,0.1898,0.0,0.0,0.3827,0.0,0.35,0.3431,0.0,0.0,0.4126,0.0,0.3714,0.3045,0.2371,0.2771,0.327,0.3406,0.407,0.4904,0.5891,0.5272,0.5072,0.5895,0.5272,0.4689,0.4577,0.4643,0.4657,0.456,0.4616,0.4905,0.5336,0.5433,0.576,0.6317,0.5873,0.5928,0.6421,0.5222,0.5222,0.6475,0.7122,0.7652,0.8101,0.8745,0.9129,0.9391,1.0007,1.0431,1.0574,1.0931,1.1082,1.1166,1.1734,1.1996,1.2077,1.2077,1.215,1.2265,1.1867,1.1854,1.1911,1.1443,1.1486,1.1668,1.1415,1.1594,1.1855,1.1601,1.1531,1.1269,1.019,0.9793,0.9473,0.8317,0.803,0.7877,0.7093,0.6297,0.5719,0.5684,0.5732,0.6179,0.7382,0.6734,0.635,0.7208,0.6514,0.5796,0.5613,0.5606,0.5603,0.5562,0.5559,0.5559,0.5559,0.5559,0.5501,0.5435,0.5428,0.5291,0.5138,0.4996,0.4777,0.4545,0.4416,0.4349,0.4349,0.3566,0.3176,0.3121,0.2508,0.2174,0.5867,0.4966,0.4231,0.0,0.4068,0.3866,0.4089,0.4219,0.4311,0.4347,0.4113,0.3693,0.3019,0.2792,0.2836,0.3297,0.3624,0.4144,0.5046,0.4779,0.465,0.5106,0.4775,0.4519,0.4519,0.458,0.4591,0.4522,0.4908,0.5246,0.5492,0.6303,0.6686,0.6588,0.7069,0.6902,0.5982,0.6199,0.6583,0.7235,0.7557,0.8075,0.8788,0.9072,0.9401,0.9749,1.0122,1.0501,1.0822,1.1082,1.1276,1.145,1.171,1.181,1.183,1.1997,1.1951,1.1817,1.1857,1.1844,1.1784,1.1457,1.1434,1.1436,1.1384,1.1585,1.1821,1.1853,1.1781,1.153,1.096,1.0753,1.0533,0.9685,0.9485,0.9319,0.8513,0.7831,0.7431,0.7548,0.7605,0.7788,0.8254,0.7546,0.6915,0.7145,0.6354,0.5718,0.5491,0.6084,0.6263,0.5549,0.6078,0.6165,0.5535,0.546,0.5433,0.5432,0.5428,0.5332,0.526,0.5118,0.4969,0.4819,0.4582,0.4519,0.4519,0.4125,0.3956,0.3956,0.3622,0.3289,0.0,0.0,0.466,0.4415,0.4254,0.4103,0.0,0.0,0.4283,0.0,0.4113,0.401,0.3624,0.3066,0.2863,0.3249,0.3413,0.3733,0.4301,0.447,0.4501,0.4412,0.4494,0.4519,0.4519,0.4519,0.4501,0.4409,0.4925,0.5341,0.5619,0.6785,0.7315,0.7041,0.8013,0.7717,0.6086,0.7176,0.7723,0.7723,0.7883,0.8369,0.9077,0.9077,0.9406,0.99,1.0053,1.0408,1.0889,1.0962,1.1122,1.1323,1.1396,1.1423,1.145,1.167,1.1617,1.145,1.1597,1.1599,1.1492,1.1243,1.1129,1.1081,1.1152,1.1296,1.1416,1.1613,1.1467,1.1323,1.1327,1.122,1.1066,1.0698,1.0511,1.0245,0.9456,0.8911,0.8624,0.8974,0.8985,0.9016,0.9078,0.8317,0.7686,0.7591,0.6879,0.6306,0.6167,0.6933,0.7138,0.6293,0.7001,0.7005,0.5892,0.5851,0.5773,0.5432,0.5428,0.5428,0.5428,0.5179,0.5088,0.5161,0.473,0.4519,0.4519,0.4519,0.4519,0.4519,0.4519,0.4184,0.0,0.5852,0.0,0.4217,0.4247,0.0,0.0,0.0,0.4114,0.3875,0.3931,0.3983,0.3993,0.4055,0.3884,0.3247,0.3673,0.4105,0.4013,0.4284,0.4412,0.422,0.4379,0.4519,0.4519,0.4519,0.4406,0.4217,0.444,0.4973,0.5932,0.641,0.7184,0.8252,0.7967,0.7723,0.7563,0.767,0.7723,0.7723,0.8427,0.8758,0.8831,0.8831,0.8998,0.9263,0.9873,1.0294,1.0665,1.0882,1.1002,1.1042,1.1316,1.1423,1.143,1.1443,1.1436,1.139,1.1129,1.1016,1.1009,1.0722,1.0812,1.0967,1.0692,1.0967,1.1326,1.1142,1.1058,1.103,1.1023,1.0805,1.0651,1.0631,1.0595,1.0318,0.9495,0.8811,0.85,0.8784,0.8709,0.885,0.9689,0.888,0.8461,0.9388,0.8591,0.7997,0.8183,0.8108,0.8082,0.8409,0.8459,0.8031,0.6937,0.7081,0.6692,0.5446,0.5428,0.5428,0.5428,0.5084,0.5225,0.5932,0.5011,0.4519,0.4519,0.4519,0.4519,0.4519,0.4519,0.4463,0.0,0.0,0.0,0.526,0.502,0.4759,0.4398,0.4248,0.4148,0.4003,0.3853,0.3765,0.3856,0.3596,0.3434,0.3637,0.3484,0.3521,0.3926,0.4111,0.4158,0.4056,0.4148,0.4178,0.4178,0.4178,0.4158,0.4056,0.4601,0.5187,0.5985,0.6772,0.7538,0.8377,0.8391,0.8427,0.8427,0.7943,0.7943,0.8427,0.8699,0.8804,0.8804,0.8804,0.9072,0.9532,0.9746,1.0007,1.0294,1.0595,1.0715,1.0728,1.0828,1.0868,1.0895,1.1082,1.1029,1.0882,1.0962,1.0889,1.0742,1.0601,1.1115,1.1608,1.0807,1.1442,1.2243,1.1247,1.1594,1.222,1.1873,1.1884,1.1829,1.1492,1.1034,1.0581,1.0651,1.0643,1.0633,1.0505,1.0578,1.0664,1.059,0.9775,0.9192,0.9432,0.8603,0.8103,0.8394,0.8961,0.9146,0.8543,0.9093,0.9093,0.7967,0.7288,0.6785,0.6511,0.5811,0.5428,0.5428,0.526,0.5486,0.5996,0.5628,0.5339,0.5164,0.4736,0.4519,0.4519,0.4519,0.4519,0.6867,0.0,0.0,0.0,0.0,0.5406,0.4884,0.4608,0.4402,0.4251,0.3838,0.3559,0.376,0.333,0.3202,0.382,0.3498,0.3337,0.3784,0.3958,0.3999,0.3948,0.3988,0.4019,0.4019,0.4019,0.3999,0.3948,0.4428,0.5039,0.5711,0.6646,0.7538,0.8377,0.8657,0.8758,0.8664,0.8271,0.8315,0.8804,0.8804,0.8804,0.8804,0.8804,0.9018,0.9399,0.9599,0.9907,1.0281,1.0481,1.0744,1.0989,1.0681,1.0744,1.101,1.0904,1.0907,1.1017,1.1212,1.134,1.1421,1.1421,1.1903,1.2328,1.16,1.2151,1.2813,1.1921,1.232,1.2936,1.2539,1.2652,1.2725,1.2509,1.1694,1.1094,1.1431,1.156,1.1516,1.1316,1.1443,1.1423,1.0935,1.0462,1.003,0.9765,0.9409,0.9236,0.94,0.998,1.014,0.9502,0.9985,0.9932,0.8804,0.8113,0.7508,0.6979,0.6273,0.5686,0.5428,0.5311,0.5608,0.6357,0.6109,0.6032,0.6249,0.5273,0.4732,0.4519,0.4519,0.4519,0.0,0.0,0.0,0.0,0.0,0.0,0.4522,0.0,0.4836,0.4557,0.3876,0.344,0.3737,0.3429,0.3263,0.37,0.3775,0.3731,0.3598,0.3826,0.3951,0.3802,0.3917,0.4009,0.4009,0.4009,0.3944,0.3795,0.3921,0.4399,0.5241,0.6031,0.707,0.837,0.8657,0.8671,0.839,0.8657,0.8798,0.8804,0.8798,0.8798,0.8804,0.8804,0.8811,0.8851,0.9426,1.0,1.0598,1.0604,1.1031,1.1695,1.0919,1.1108,1.1648,1.0863,1.1108,1.1764,1.1757,1.232,1.3,1.3009,1.3,1.3,1.3009,1.3009,1.307,1.3009,1.3009,1.3078,1.3094,1.3033,1.3169,1.3534,1.2711,1.1841,1.1834,1.1404,1.1041,1.0982,1.0982,1.0902,1.0672,1.0795,1.0889,1.0678,1.1049,1.1416,1.1436,1.1182,1.1109,1.1396,1.1169,1.0549,0.9432,0.9568,0.8865,0.6933,0.6724,0.6334,0.5491,0.5216,0.5744,0.7066,0.6276,0.6417,0.767,0.6249,0.5218,0.4574,0.4519,0.4515,0.7314,0.0,0.0,0.0,0.0,0.0,0.5598,0.0,0.5232,0.4808,0.4548,0.4237,0.375,0.3617,0.3555,0.3327,0.3356,0.3497,0.3568,0.3649,0.3687,0.3643,0.3676,0.37,0.37,0.37,0.3683,0.3643,0.4029,0.4589,0.5265,0.6684,0.7745,0.8363,0.8657,0.8764,0.8691,0.8557,0.8597,0.8804,0.8597,0.8604,0.8804,0.8804,0.8925,0.907,0.9292,0.9573,1.0006,1.0424,1.0567,1.0669,1.1424,1.141,1.0926,1.0681,1.0744,1.1024,1.16,1.1964,1.2237,1.283,1.3408,1.3756,1.3158,1.3786,1.451,1.3312,1.3846,1.4708,1.4657,1.4541,1.4302,1.4045,1.3525,1.3002,1.2752,1.253,1.2102,1.093,1.0848,1.0902,1.0672,1.0692,1.0722,1.0855,1.1009,1.1263,1.169,1.149,1.1336,1.1416,1.1169,1.089,1.0549,0.9835,0.9225,0.8865,0.7518,0.6588,0.6334,0.5709,0.5619,0.6297,0.6588,0.6793,0.6912,0.6475,0.6204,0.5987,0.5492,0.5218,0.0,0.0,0.0,0.0,0.0,0.0,0.6176,0.5967,0.5598,0.4982,0.4895,0.4724,0.4061,0.4174,0.4199,0.3635,0.3657,0.3676,0.3406,0.3442,0.3483,0.3483,0.3541,0.3667,0.3921,0.3751,0.3711,0.3921,0.4005,0.4473,0.5434,0.6899,0.7816,0.8037,0.8283,0.8377,0.825,0.833,0.8464,0.8624,0.8577,0.8644,0.8804,0.8804,0.8898,0.901,0.913,0.9272,0.9352,1.0093,1.0446,1.0664,1.1287,1.1363,1.1045,1.0744,1.08,1.1149,1.163,1.2245,1.287,1.3382,1.4022,1.4615,1.4118,1.4688,1.5167,1.4273,1.4688,1.5449,1.5613,1.5359,1.5093,1.4989,1.4399,1.3812,1.3536,1.3252,1.2642,1.1351,1.1249,1.1191,1.0651,1.0661,1.0755,1.0808,1.1015,1.1256,1.1476,1.1349,1.1243,1.1243,1.0982,1.0815,1.0815,1.02,0.9725,0.9551,0.8429,0.7437,0.6719,0.6203,0.5981,0.6001,0.6708,0.7255,0.7509,0.7235,0.6912,0.6588,0.5873,0.5529,0.0,0.0,0.0,0.0,0.0,0.0,0.6429,0.6273,0.6026,0.5197,0.5136,0.509,0.4624,0.4906,0.5004,0.4382,0.431,0.4045,0.3208,0.3199,0.3283,0.3283,0.3459,0.3767,0.4231,0.3869,0.3796,0.4264,0.3924,0.4296,0.5677,0.6808,0.7417,0.7513,0.7769,0.7796,0.7567,0.8071,0.829,0.833,0.8584,0.8724,0.8758,0.8791,0.8804,0.8824,0.9024,0.9045,0.8851,0.9595,1.0385,1.1041,1.065,1.0947,1.149,1.0773,1.1024,1.1596,1.175,1.2801,1.4085,1.4145,1.4746,1.541,1.541,1.541,1.541,1.541,1.541,1.5508,1.5947,1.5771,1.5586,1.6027,1.5213,1.4387,1.4341,1.3786,1.3,1.2197,1.2012,1.1655,1.0863,1.0897,1.0992,1.0705,1.1049,1.1296,1.1069,1.1015,1.0995,1.0995,1.0735,1.0624,1.0624,1.0624,1.0301,0.9466,0.9338,0.8603,0.701,0.6902,0.6599,0.5972,0.6712,0.7608,0.8699,0.8103,0.7509,0.6804,0.6114,0.5823,0.0,0.0,0.0,0.0,0.0,0.0,0.6399,0.6502,0.6525,0.598,0.6011,0.6005,0.5531,0.5411,0.5257,0.4908,0.4334,0.3718,0.3194,0.3108,0.3125,0.3125,0.3259,0.3392,0.3514,0.355,0.3622,0.3751,0.4049,0.4801,0.6032,0.6538,0.7013,0.7468,0.7769,0.7855,0.7842,0.7709,0.7769,0.8016,0.8076,0.823,0.847,0.8697,0.8804,0.8811,0.8871,0.8858,0.8831,0.9185,0.9455,0.9647,0.9962,1.0103,1.0137,1.0161,1.0312,1.0587,1.1453,1.2411,1.3373,1.3974,1.4746,1.541,1.541,1.541,1.541,1.541,1.541,1.5508,1.5947,1.6056,1.6017,1.6105,1.5936,1.565,1.5244,1.505,1.4688,1.3906,1.3183,1.2512,1.171,1.1582,1.1502,1.1005,1.1002,1.1142,1.1316,1.1136,1.0995,1.0995,1.0735,1.0624,1.0624,1.0624,1.0561,1.0364,0.9658,0.9041,0.8437,0.7989,0.7168,0.5839,0.6412,0.7111,0.7937,0.8374,0.8533,0.8381,0.7627,0.6966,0.0,0.0,0.0,0.7154,0.0,0.0,0.0,0.6551,0.6503,0.5872,0.6118,0.6337,0.5953,0.6123,0.6136,0.5707,0.5359,0.4856,0.4048,0.3395,0.3015,0.3015,0.3105,0.3316,0.3631,0.3538,0.3497,0.3575,0.4092,0.4783,0.5701,0.6171,0.668,0.7248,0.7395,0.743,0.743,0.7468,0.7542,0.7702,0.8009,0.823,0.8383,0.8671,0.8804,0.8804,0.8804,0.8804,0.8831,0.9064,0.9123,0.9077,0.9653,0.9845,0.9927,1.0038,1.0226,1.0416,1.103,1.1796,1.27,1.3408,1.4451,1.541,1.541,1.541,1.541,1.541,1.541,1.5508,1.5947,1.5908,1.5791,1.6066,1.5898,1.5684,1.5459,1.541,1.5294,1.4874,1.4451,1.3786,1.2634,1.2081,1.1707,1.1432,1.109,1.0828,1.0975,1.0868,1.0775,1.0775,1.0712,1.0624,1.0624,1.0624,1.0624,1.0624,1.0174,0.9654,0.9068,0.8617,0.7894,0.6857,0.7194,0.7689,0.8262,0.8646,0.8804,0.8758,0.7652,0.7048,0.0,0.0,0.0,0.0,0.0,0.6712,0.0,0.0,0.0,0.5797,0.6088,0.6428,0.6303,0.6739,0.6978,0.6592,0.6455,0.6105,0.5248,0.4081,0.3275,0.324,0.3419,0.3667,0.3939,0.3529,0.3326,0.3524,0.3959,0.4526,0.526,0.5744,0.6343,0.6979,0.6979,0.6979,0.6979,0.7261,0.7426,0.7388,0.7983,0.823,0.8303,0.8591,0.8751,0.8804,0.8804,0.8804,0.8824,0.9058,0.9072,0.901,0.9448,0.974,0.9947,0.9993,1.0221,1.0481,1.0604,1.1253,1.2181,1.2618,1.3846,1.5177,1.5177,1.5294,1.541,1.541,1.541,1.5498,1.585,1.5674,1.5498,1.5859,1.5664,1.541,1.541,1.541,1.541,1.541,1.541,1.4932,1.3485,1.2687,1.2135,1.1834,1.1226,1.0807,1.0624,1.0624,1.0624,1.0624,1.0624,1.0624,1.0624,1.0624,1.0624,1.0624,1.0624,1.0275,0.9458,0.8948,0.8457,0.7987,0.8058,0.8269,0.8593,0.8752,0.8804,0.8752,0.7441,0.69,0.0,0.0,0.0,0.0,0.7818,0.0,0.0,0.0,0.6526,0.661,0.0,0.6435,0.6813,0.0,0.0,0.7223,0.6631,0.6174,0.6295,0.5425,0.4692,0.45,0.4873,0.4819,0.4009,0.3426,0.3169,0.3323,0.3458,0.4017,0.5255,0.5351,0.5905,0.6979,0.6979,0.6979,0.6979,0.7054,0.7074,0.7074,0.7408,0.7715,0.7989,0.829,0.8564,0.8804,0.8804,0.8804,0.8811,0.8844,0.9194,0.965,0.9371,0.9256,0.9316,0.9626,0.9907,1.0207,1.053,1.1163,1.1881,1.1888,1.3053,1.4332,1.4332,1.4805,1.541,1.541,1.541,1.542,1.5469,1.5449,1.542,1.5478,1.5449,1.541,1.541,1.541,1.541,1.541,1.541,1.5108,1.4213,1.3965,1.3416,1.2012,1.171,1.1413,1.0681,1.0624,1.0624,1.0624,1.0624,1.0624,1.0624,1.0624,1.0624,1.0624,1.0624,1.0441,1.0052,0.8866,0.8226,0.8167,0.7882,0.7753,0.783,0.848,0.8804,0.8758,0.7935,0.7332,0.0,0.0,0.0,0.0,0.0,0.0,0.7433,0.0,0.6551,0.6803,0.0,0.0,0.0,0.0,0.0,0.0,0.6676,0.6394,0.6747,0.629,0.5687,0.5066,0.5023,0.466,0.3638,0.4037,0.421,0.3789,0.39,0.441,0.5432,0.5275,0.5567,0.6353,0.6767,0.6979,0.6979,0.6979,0.6979,0.6985,0.7508,0.7802,0.7895,0.8417,0.8691,0.8804,0.8804,0.8804,0.8804,0.8804,0.9211,0.9777,0.9609,0.9774,1.0017,0.9798,1.0,1.0388,1.0577,1.0815,1.1181,1.1813,1.2716,1.3606,1.4085,1.4451,1.4805,1.5294,1.541,1.5469,1.5723,1.5596,1.5478,1.5732,1.5596,1.541,1.541,1.541,1.541,1.541,1.541,1.5294,1.4932,1.451,1.3965,1.3295,1.281,1.2205,1.1413,1.1288,1.1037,1.0383,1.0301,1.0234,1.0067,1.0207,1.0227,1.0067,1.0053,0.992,0.9619,0.9246,0.8877,0.8559,0.8536,0.8479,0.8321,0.8646,0.8804,0.8811,0.8039,0.7609,0.8634,0.0,0.0,0.0,0.0,0.0,0.0,0.0,0.0,0.0,0.6717,0.0,0.0,0.0,0.0,0.0,0.0,0.6661,0.6926,0.6738,0.631,0.5716,0.5255,0.4728,0.4093,0.475,0.5014,0.4453,0.4677,0.5114,0.5845,0.5644,0.5757,0.6169,0.67,0.6979,0.6979,0.6979,0.7061,0.7148,0.7589,0.7889,0.807,0.8497,0.8731,0.8804,0.8804,0.8804,0.8804,0.8804,0.9309,1.0064,0.9865,1.0264,1.0793,1.0182,1.0161,1.0448,1.0598,1.0627,1.0733,1.1497,1.2342,1.313,1.3666,1.4213,1.4628,1.5235,1.541,1.5488,1.5801,1.5654,1.5488,1.5811,1.5644,1.541,1.541,1.541,1.541,1.541,1.541,1.541,1.541,1.4932,1.4451,1.4204,1.3726,1.2907,1.1829,1.163,1.1214,1.0087,1.0,0.9913,0.9699,0.988,0.9966,0.9976,1.027,1.0143,0.9522,0.9721,0.9542,0.8818,0.9011,0.9018,0.8804,0.8804,0.8804,0.8804,0.8262,0.7973,0.7392,0.8259,0.9044,0.841,0.8587,0.8828,0.8541,0.7687,0.6987,0.0,0.0,0.0,0.0,0.0,0.0,0.0,0.0,0.0,0.0,0.662,0.6477,0.673,0.6006,0.555,0.5798,0.5324,0.5087,0.5252,0.5631,0.6061,0.6557,0.6605,0.676,0.6959,0.6972,0.6979,0.6979,0.6979,0.7168,0.7493,0.752,0.7836,0.8357,0.8427,0.8544,0.8804,0.8804,0.8804,0.8804,0.8804,0.9562,1.0712,1.0064,1.0436,1.121,1.0849,1.0441,1.0174,1.0461,1.0618,1.0618,1.0618,1.1725,1.3009,1.3009,1.4154,1.5352,1.541,1.541,1.542,1.543,1.542,1.542,1.543,1.542,1.541,1.541,1.541,1.541,1.541,1.541,1.541,1.541,1.5352,1.5108,1.4332,1.4213,1.3467,1.1569,1.1346,1.0879,0.9843,0.9699,0.9693,0.9686,0.9693,0.9969,1.0629,1.1681,1.1686,1.0337,1.0268,0.9803,0.8811,0.8818,0.8818,0.8804,0.8804,0.8804,0.8804,0.8752,0.845,0.8293,0.8517,0.881,0.8025,0.835,0.8936,0.9272,0.935,0.9243,0.9025,0.0,0.0,0.0,0.0,0.0,0.0,0.0,0.0,0.0,0.6171,0.5908,0.5984,0.6245,0.6114,0.5266,0.596,0.6297,0.5866,0.6254,0.6403,0.6157,0.6407,0.6268,0.5623,0.6533,0.6979,0.6979,0.7214,0.7368,0.7513,0.7923,0.8225,0.8383,0.8571,0.8711,0.8804,0.8804,0.8804,0.8804,0.8804,0.9614,1.0762,1.0559,1.0691,1.0973,1.0751,1.0434,1.016,1.0454,1.0624,1.0624,1.0624,1.1351,1.2328,1.2826,1.3726,1.4746,1.5225,1.541,1.541,1.541,1.541,1.541,1.541,1.541,1.5342,1.5059,1.5215,1.5244,1.4678,1.4805,1.5,1.5,1.5,1.4974,1.5012,1.4991,1.448,1.3029,1.2456,1.16,1.0261,0.9659,0.9392,0.9392,0.9827,1.0368,1.1059,1.1226,1.1109,1.0657,1.0641,1.049,1.0115,1.0115,0.9917,0.9465,0.9611,0.9408,0.8804,0.8804,0.8711,0.8767,0.8988,0.9217,0.8101,0.8604,0.9365,0.918,0.9404,0.9604,0.9403,0.9783,0.9973,0.0,0.0,0.0,0.0,0.0,0.0,0.0,0.5702,0.5397,0.5348,0.6023,0.618,0.5352,0.6359,0.6973,0.6757,0.7057,0.6981,0.6285,0.6556,0.6279,0.5302,0.6196,0.6862,0.7174,0.714,0.7341,0.7842,0.7937,0.8221,0.853,0.8717,0.8804,0.8804,0.8804,0.8804,0.8804,0.8804,0.9465,1.0466,1.072,1.0661,1.0494,1.0926,1.0733,1.0301,1.0557,1.0624,1.0624,1.0624,1.117,1.1958,1.2757,1.3545,1.4392,1.5167,1.541,1.541,1.541,1.541,1.541,1.541,1.541,1.5293,1.4873,1.5,1.498,1.4223,1.4492,1.4736,1.458,1.4844,1.5259,1.5746,1.5456,1.4849,1.3942,1.3052,1.2019,1.0615,0.9969,0.9611,0.9611,1.0531,1.1268,1.1693,1.1774,1.1634,1.143,1.1243,1.126,1.1506,1.1011,1.0805,1.0879,1.0401,0.9694,0.8803,0.8791,0.8639]}]]